GEFSGL_500_meanwind_006.txt.gz
Wind_Speed
33 34 33 33 34 35 36 38 40 42 45 47 50 52 56 60 64 66 67 65 64 66 69 73 78 82 87 92 98 103 108 114 118 117 115 110 102 93 85 79 75 75 77
32 32 32 33 33 35 38 40 43 46 48 50 53 56 60 64 67 67 65 64 66 69 74 79 84 89 94 100 106 111 116 119 121 117 104 89 79 73 69 67 68 73 78
31 32 32 33 35 38 41 43 46 48 51 53 57 61 65 67 67 65 64 66 70 75 81 87 92 98 103 109 115 118 120 116 108 98 86 74 68 65 65 66 68 70 70
31 31 32 35 38 41 43 46 49 51 53 56 61 65 68 68 66 64 66 70 76 82 88 94 100 106 112 117 119 119 113 102 90 82 77 72 68 67 68 69 65 59 53
30 32 35 38 41 44 46 48 51 53 56 61 65 68 69 67 65 66 70 76 82 88 94 101 107 113 118 119 116 108 99 90 83 79 77 74 70 69 68 65 57 47 40
31 35 38 41 43 45 47 49 52 56 61 65 68 68 66 65 66 70 76 82 88 94 100 107 113 117 116 110 102 95 90 86 82 79 75 71 66 64 60 52 47 41 34
34 37 40 43 45 47 49 51 55 60 64 67 67 65 65 67 70 76 82 87 94 101 107 113 116 113 106 98 91 87 83 77 73 69 63 57 54 49 46 42 39 36 32
37 40 43 46 47 48 50 54 58 62 65 65 63 63 66 71 76 81 86 93 99 106 112 114 110 102 93 88 85 80 72 63 56 51 46 42 39 37 37 36 32 28 26
39 42 44 46 47 50 54 57 60 63 62 60 62 65 70 75 80 86 91 97 104 109 110 106 98 91 85 80 76 68 57 46 39 35 33 31 32 34 34 31 27 24 24
39 41 42 45 49 53 56 58 59 58 57 60 64 69 74 79 85 91 98 103 107 107 101 92 86 81 76 70 63 52 40 31 26 24 25 28 30 31 30 28 26 24 22
40 42 45 49 52 54 56 56 55 55 58 62 66 72 79 85 91 97 103 107 106 100 90 82 76 72 64 56 46 37 29 24 21 21 23 24 25 25 25 25 25 24 23
42 45 47 50 52 53 53 52 54 57 61 65 69 76 83 90 95 101 105 103 97 89 81 74 68 60 49 40 33 28 25 23 22 22 21 21 22 21 22 23 24 26 27
44 45 48 50 51 50 51 53 57 60 64 68 74 81 87 93 100 104 102 94 85 78 71 64 56 46 35 29 25 24 23 21 20 19 20 21 21 21 21 21 23 26 30
43 46 48 48 48 50 52 56 59 63 68 74 80 86 92 98 102 101 94 83 75 68 59 51 42 34 28 25 25 23 21 19 19 19 20 20 20 20 19 19 21 23 26
44 45 46 46 48 51 54 58 63 68 75 81 86 91 96 99 99 95 83 74 65 57 47 39 32 27 27 28 25 22 20 20 20 20 20 20 20 20 19 19 20 22 23
43 44 45 47 49 53 56 62 68 75 81 86 91 95 98 97 91 81 72 64 55 46 38 30 26 25 25 22 20 20 20 21 21 21 21 20 19 18 18 18 20 21 21
43 44 46 48 52 56 60 65 72 79 84 89 93 97 96 89 79 71 62 53 45 38 30 25 25 25 22 19 20 21 22 22 23 23 22 21 19 18 17 17 18 19 19
44 45 48 51 55 59 65 71 76 81 86 90 94 95 88 78 70 62 52 42 36 31 26 25 24 21 21 21 22 22 22 23 23 23 22 20 18 17 16 15 16 16 15
45 48 51 55 59 65 70 75 80 84 88 91 92 86 76 67 61 52 42 35 29 25 25 24 21 22 22 22 21 21 22 22 23 23 22 20 17 15 14 13 13 13 12
47 50 54 59 64 70 75 79 83 87 90 90 85 75 65 58 50 40 33 28 24 23 22 21 21 21 21 21 22 22 22 22 22 22 21 19 17 14 12 11 10 10 9
49 53 59 64 69 74 78 82 86 88 89 84 74 65 57 49 39 31 26 22 21 21 20 20 19 20 21 22 23 23 22 20 20 19 19 18 16 13 11 10 9 8 7
53 59 64 69 73 78 81 84 87 87 83 73 64 56 49 40 30 25 20 19 19 18 17 17 18 19 20 19 20 20 19 18 18 18 17 16 15 14 12 10 8 6 5
58 64 68 73 77 81 83 86 87 83 73 64 56 48 39 29 23 19 17 16 16 16 17 18 19 19 18 17 18 18 18 18 18 18 17 16 15 14 13 11 9 7 4
63 67 72 76 80 82 85 86 83 73 64 57 48 38 28 20 16 13 12 13 14 16 17 18 18 17 17 17 17 18 19 20 21 20 19 18 17 16 15 14 12 10 6
66 71 75 78 80 83 85 81 73 64 57 49 37 27 18 12 9 8 10 13 15 17 18 19 18 17 16 16 17 19 20 21 23 22 21 20 19 19 18 18 17 15 11
70 74 77 79 82 84 80 70 62 56 49 38 26 16 8 5 4 7 11 14 17 19 21 22 21 20 18 17 17 18 19 21 23 23 22 20 20 21 22 22 22 21 19

GEFSGL_500_meanwind_012.txt.gz
Wind_Speed
33 33 33 34 35 36 37 38 38 39 41 41 43 45 48 51 53 56 59 63 65 69 72 76 76 76 75 77 80 84 89 95 100 101 106 111 117 120 120 116 111 105 100
34 34 34 34 35 35 36 36 38 40 41 42 44 48 51 54 57 60 62 64 68 72 75 76 75 75 77 80 85 91 97 103 109 112 114 115 112 107 100 93 87 83 79
35 34 34 34 34 34 35 37 39 40 41 44 48 51 54 57 59 60 63 67 72 74 74 74 75 77 81 86 92 98 103 109 114 117 113 105 94 84 76 68 63 59 56
34 34 33 32 33 34 35 37 38 40 44 48 51 54 56 57 60 64 68 71 73 72 72 74 77 81 86 92 98 104 110 112 111 106 97 83 70 60 55 49 43 41 40
33 31 30 31 32 34 35 36 39 43 47 51 54 55 56 60 64 68 70 71 70 71 73 76 81 87 92 98 105 110 110 106 97 87 74 61 52 46 41 38 35 33 34
28 28 29 30 31 33 35 38 42 46 50 52 54 56 60 64 67 70 70 69 71 73 76 81 87 93 98 104 109 108 100 90 79 66 56 48 43 39 37 34 33 31 30
24 26 27 29 30 33 37 41 45 49 51 54 57 60 63 66 69 69 68 70 72 76 82 87 93 98 104 107 105 94 81 70 61 53 47 42 38 36 33 30 29 29 30
22 24 26 29 33 37 41 44 48 51 54 56 59 62 65 66 66 67 69 71 76 82 88 93 98 102 105 103 92 78 63 54 49 46 44 40 36 34 32 29 27 25 28
22 25 28 32 36 40 43 47 50 52 54 57 60 63 64 63 65 67 71 75 81 87 93 98 102 104 100 90 76 61 49 43 42 42 40 37 36 35 34 32 29 26 26
24 28 32 35 39 42 45 48 50 52 55 58 61 61 61 63 66 70 75 80 86 91 96 100 102 97 85 72 59 47 39 38 37 36 35 34 35 34 35 35 33 31 31
28 31 34 37 40 43 45 48 50 53 56 58 58 59 62 65 70 75 81 86 91 95 98 98 93 81 69 57 47 39 36 35 34 32 32 32 33 33 33 34 35 35 34
30 33 36 38 41 43 46 48 52 54 54 55 57 60 65 70 74 79 85 90 95 97 96 89 77 65 54 45 38 35 34 34 32 31 31 32 32 31 31 32 32 34 35
31 34 36 38 41 44 47 49 51 52 53 55 58 62 67 73 78 84 89 93 96 95 86 74 62 52 43 37 35 33 32 31 30 30 31 31 32 31 29 28 29 30 32
32 35 37 40 42 45 47 48 49 51 53 57 61 66 71 77 82 88 92 95 93 84 71 59 50 42 37 34 34 32 31 31 32 31 31 31 32 31 29 27 25 24 24
34 36 38 41 43 45 46 47 49 52 56 60 65 70 76 81 87 93 96 92 83 71 58 47 40 35 33 33 33 33 33 33 33 33 33 32 32 31 29 26 24 22 20
35 37 39 41 43 44 45 48 51 55 60 65 71 76 82 87 93 95 90 80 68 57 47 39 34 32 31 31 31 32 33 33 33 33 33 31 30 28 27 25 22 19 16
36 38 40 42 42 43 45 49 54 60 65 71 76 81 86 91 93 88 77 66 56 46 38 33 31 31 30 30 30 31 31 32 32 31 30 29 28 27 25 23 20 17 14
37 39 40 40 41 44 48 52 58 63 68 74 79 85 89 90 85 75 64 54 45 38 32 30 29 29 29 29 30 30 30 30 29 29 28 27 25 24 23 21 17 14 11
37 38 38 40 43 47 52 57 62 67 73 78 83 87 87 81 71 63 54 42 34 30 28 28 27 27 28 28 27 27 27 27 27 27 26 25 24 22 21 19 16 13 9
36 37 39 42 47 52 57 61 66 72 77 82 86 85 78 67 59 51 41 31 27 26 25 25 25 25 25 25 25 25 26 27 27 27 26 25 24 22 20 18 15 12 8
35 38 42 47 51 56 61 66 70 75 81 85 84 77 67 57 48 37 28 23 22 22 23 23 23 22 22 22 24 25 26 27 27 27 25 24 24 23 21 18 14 11 7
38 42 47 51 56 60 65 70 75 80 84 83 75 64 56 47 36 26 20 18 18 20 20 21 20 19 19 21 22 24 26 27 26 26 25 25 25 24 22 20 15 10 6
42 46 51 55 60 65 69 74 80 84 82 74 63 54 45 35 25 17 14 15 16 18 19 19 19 19 20 21 23 24 25 25 26 25 25 25 24 24 23 21 16 10 6
46 50 55 60 64 69 73 79 83 82 74 63 53 44 34 23 14 10 10 12 15 17 18 18 19 19 20 22 24 25 26 27 27 26 26 26 26 26 25 22 17 11 7
51 55 60 64 68 73 78 82 81 74 63 53 43 33 22 12 6 5 8 11 13 15 17 19 20 21 22 23 25 26 27 28 28 28 28 28 27 27 26 24 20 14 9
55 60 64 68 73 78 82 81 74 64 53 43 33 21 10 3 1 4 7 10 13 15 17 20 21 22 24 25 26 27 28 29 29 30 30 30 30 28 26 25 22 17 13

GEFSGL_500_meanwind_018.txt.gz
Wind_Speed
42 41 40 39 38 37 36 37 38 39 40 41 42 43 44 46 48 49 50 51 54 57 60 62 64 67 70 71 72 74 75 77 77 77 82 87 93 99 105 109 110 107 100
42 40 40 39 38 37 37 37 38 39 40 41 42 43 45 47 48 49 51 54 57 60 62 65 67 69 70 72 73 75 76 79 81 83 88 95 101 107 108 105 97 86 74
41 39 39 39 38 38 38 38 39 39 40 41 42 44 46 47 48 51 54 57 60 62 64 66 68 69 71 73 74 76 79 83 88 93 97 102 105 105 98 87 73 63 57
39 38 38 38 38 38 38 39 39 40 41 41 43 45 46 48 51 54 57 60 62 64 66 68 69 71 72 74 76 80 85 90 96 102 105 105 100 90 78 65 54 50 47
37 37 37 37 37 38 39 39 40 40 40 41 44 45 47 51 54 57 59 61 63 65 67 69 70 71 73 77 81 87 92 98 104 107 104 96 82 69 58 49 44 41 40
34 35 35 36 37 38 39 39 38 39 40 42 44 47 50 53 56 58 61 63 65 67 68 69 71 73 77 82 88 94 100 104 105 100 90 76 62 52 45 41 39 36 35
32 33 34 36 37 36 36 36 36 37 40 43 46 49 53 55 57 60 62 64 66 68 69 70 73 77 83 88 94 100 103 101 94 83 69 57 49 44 39 37 35 34 34
31 32 33 33 32 32 32 33 35 38 42 45 49 51 54 56 59 61 63 65 66 68 70 73 78 83 90 95 99 101 96 86 74 63 55 47 43 40 38 36 34 32 33
28 28 28 28 29 30 32 34 37 41 44 47 50 52 54 57 60 62 63 64 66 69 73 78 84 90 95 100 99 93 80 67 57 51 46 43 41 40 38 37 36 35 32
24 25 26 27 28 30 33 36 40 43 46 48 50 53 55 58 60 61 63 64 67 72 78 84 90 95 99 97 89 76 61 52 47 44 43 42 40 40 40 40 39 38 35
22 23 25 27 29 32 35 39 41 43 46 48 51 54 56 58 59 60 63 68 72 77 83 89 94 96 93 84 71 58 49 43 41 40 40 39 40 40 40 40 40 39 37
20 23 25 28 31 34 37 39 41 44 46 49 52 54 56 56 58 62 67 72 77 82 88 93 94 89 78 66 54 46 41 39 39 38 38 39 39 39 39 38 38 38 38
21 24 27 29 32 35 37 39 42 44 47 49 51 52 54 57 61 66 71 76 82 87 91 91 84 73 61 51 43 39 38 37 36 36 36 36 36 36 36 35 34 34 35
22 25 28 30 33 35 37 40 42 45 47 48 49 51 55 60 64 69 74 80 85 89 87 78 66 56 47 39 36 35 34 33 33 33 33 33 34 33 33 31 31 30 30
24 27 30 32 34 36 39 41 43 45 45 46 49 53 58 63 68 73 79 84 87 84 74 62 51 43 37 34 33 33 32 32 32 32 32 32 32 32 31 30 29 28 27
27 29 31 33 35 37 40 41 42 43 45 48 52 57 62 67 72 78 84 86 82 72 59 47 39 34 32 31 30 30 31 31 31 32 32 32 31 31 30 29 29 27 25
29 30 32 34 36 38 39 39 41 45 49 53 58 63 68 73 78 83 84 80 69 56 44 35 30 29 28 27 27 28 29 30 31 32 31 31 31 30 29 28 27 25 23
29 31 33 35 36 36 37 40 44 48 53 58 63 67 72 78 82 83 78 67 53 42 32 27 24 24 25 25 26 27 29 31 31 31 31 31 30 29 28 26 25 22 19
30 33 34 34 35 37 40 44 48 52 57 62 66 71 77 82 82 76 65 50 38 29 23 20 21 22 23 24 25 27 29 30 31 31 31 31 30 29 27 25 23 20 16
32 32 32 34 37 41 44 48 52 57 62 66 71 76 80 80 73 63 49 36 26 20 17 17 18 20 22 23 26 27 29 31 31 31 31 30 29 28 26 24 21 17 14
30 31 33 37 41 45 48 52 57 61 66 71 77 81 81 73 61 47 34 23 16 13 13 15 17 19 21 23 26 28 29 31 32 32 31 30 29 27 25 22 18 14 11
30 33 37 41 45 49 52 57 61 66 71 77 81 81 74 61 46 33 21 12 8 8 10 13 15 18 20 23 25 28 30 31 32 32 32 30 28 26 23 19 15 12 10
33 37 41 45 49 52 57 61 66 72 77 82 81 73 60 46 32 19 9 4 3 6 8 11 14 17 20 23 25 28 29 31 32 32 31 29 26 24 21 18 15 12 10
36 40 44 48 52 57 62 67 72 78 82 81 73 60 45 30 17 7 2 1 3 6 8 11 14 17 20 23 26 28 30 32 33 33 32 30 27 25 22 19 16 14 11
40 44 48 52 57 62 67 73 79 83 81 72 59 45 29 15 5 3 4 4 5 6 9 12 14 17 20 23 26 28 30 32 34 34 33 32 30 27 24 22 19 16 13
43 48 52 57 62 67 73 79 82 80 71 58 43 27 13 3 6 7 7 6 5 7 9 12 15 17 20 23 25 27 29 31 33 34 34 32 31 29 26 24 21 18 15

GEFSGL_500_meanwind_024.txt.gz
Wind_Speed
49 47 46 46 45 44 42 41 40 40 39 38 37 37 38 40 41 43 44 46 48 50 52 53 55 55 57 60 62 64 66 68 69 68 70 72 74 77 80 84 89 93 98
46 44 44 44 44 42 40 40 39 39 38 37 37 38 39 40 42 44 46 48 50 52 54 56 56 58 60 63 64 65 67 68 70 70 71 74 78 83 87 91 96 100 101
43 42 42 42 41 39 38 38 38 38 38 37 37 39 40 41 43 46 48 51 52 54 56 57 59 61 63 64 66 67 68 69 71 73 76 80 85 90 94 98 99 97 91
40 41 40 39 38 36 36 36 36 37 37 37 38 39 41 43 45 48 50 52 54 56 58 60 62 63 64 65 66 67 68 71 75 79 82 87 92 97 99 97 90 81 71
39 38 37 35 34 34 34 34 35 35 36 37 38 41 43 46 47 49 50 53 55 58 60 61 62 64 64 65 66 68 72 76 80 84 89 94 97 97 93 85 74 62 54
34 33 31 31 31 31 32 33 34 35 36 37 41 43 45 46 48 49 51 55 57 59 60 61 62 63 63 65 68 72 77 82 87 92 96 98 95 89 79 67 58 51 47
27 27 26 26 27 29 31 33 33 34 37 40 42 44 45 46 48 51 54 56 58 59 60 61 61 62 64 68 72 77 83 89 94 97 96 91 82 71 62 54 50 48 47
21 22 23 25 27 29 30 30 33 36 38 41 43 44 45 47 50 53 55 56 57 59 59 60 62 64 68 72 76 81 87 93 95 92 86 75 65 56 52 50 48 46 43
20 21 23 26 26 27 29 32 35 37 39 41 42 43 46 48 51 53 54 55 57 57 59 61 65 68 72 77 82 87 91 91 88 79 70 60 53 51 51 49 47 46 42
20 22 25 26 27 28 31 33 35 36 38 39 41 44 47 49 51 52 54 54 55 57 61 65 69 73 78 83 87 89 88 82 72 62 55 51 50 50 50 49 47 46 44
19 21 23 24 26 27 29 31 32 34 37 40 43 45 47 49 51 52 52 54 56 59 63 68 72 77 82 86 88 86 78 67 57 49 46 46 47 48 48 48 48 47 45
17 18 20 21 23 25 27 29 32 35 38 41 43 45 47 49 50 51 53 56 59 63 67 72 77 81 85 86 83 74 63 53 46 42 42 44 45 46 46 46 46 46 46
13 14 17 19 21 24 28 31 34 37 39 41 43 45 46 48 49 52 56 60 64 68 73 77 81 84 84 79 70 59 48 41 38 39 41 43 44 45 45 44 44 43 43
11 13 16 20 23 27 30 33 35 37 39 41 43 44 46 49 52 56 60 65 69 73 77 80 83 82 76 65 54 44 37 35 36 38 40 42 43 44 44 44 42 40 38
13 16 19 23 26 29 31 33 35 37 39 40 42 45 48 52 56 61 65 69 73 76 79 81 78 71 59 48 39 33 32 34 36 39 41 43 43 43 43 42 40 38 34
16 20 23 25 28 30 32 34 36 37 38 41 45 49 53 57 61 66 71 74 78 80 80 76 66 54 42 33 28 28 31 33 36 39 41 42 42 41 39 38 37 34 30
20 23 25 27 28 30 32 33 35 37 41 45 49 54 58 63 67 72 75 79 81 79 72 60 47 36 28 23 23 26 29 33 36 39 41 41 40 38 36 34 32 29 26
22 24 26 28 29 30 31 33 37 41 45 50 55 59 64 69 73 77 79 80 76 67 55 41 30 22 18 19 21 25 29 32 35 38 39 39 37 35 33 31 28 25 22
24 25 27 28 29 30 33 37 41 46 50 55 60 65 70 75 78 80 79 72 61 48 35 24 17 14 15 18 21 25 29 32 35 37 38 37 35 32 30 28 26 23 21
25 26 26 28 30 33 37 41 46 51 55 61 66 71 75 77 79 76 68 56 41 27 17 12 9 11 14 18 21 25 29 32 34 36 36 35 34 31 29 27 25 23 21
25 25 27 29 32 36 41 45 50 55 60 66 71 75 77 76 72 62 48 34 21 12 7 6 7 11 15 19 22 26 29 32 34 35 35 34 33 31 30 28 25 23 21
25 26 29 32 35 40 45 49 54 59 65 70 74 75 73 66 55 41 27 16 9 5 4 6 9 12 16 20 22 25 28 31 32 34 33 33 32 31 29 27 24 23 21
26 28 31 34 39 44 48 53 58 64 68 71 71 67 59 49 36 23 13 7 5 5 6 8 11 14 17 20 22 24 26 28 31 32 31 31 30 28 27 26 25 24 22
27 30 33 38 42 46 51 56 61 65 67 66 62 53 43 31 20 11 8 6 6 6 7 10 12 15 18 20 22 24 26 27 28 30 30 30 29 28 28 27 26 24 23
29 32 36 40 44 49 54 58 62 63 62 58 50 39 28 19 12 9 8 7 7 8 10 12 14 16 19 21 22 24 25 26 28 29 30 30 29 28 27 26 25 24 23
30 34 38 42 46 51 55 58 60 59 55 48 38 28 20 13 9 8 7 7 9 10 12 14 16 17 19 21 22 24 25 26 26 28 28 29 28 27 26 25 24 24 23

GEFSGL_500_meanwind_030.txt.gz
Wind_Speed
59 60 61 61 61 61 58 55 52 50 48 47 46 45 44 42 42 42 43 43 44 44 44 45 46 49 52 55 58 60 62 63 64 64 66 66 67 67 66 67 68 70 73
55 56 57 58 58 58 57 54 51 48 46 45 44 43 42 41 41 42 44 45 45 45 45 47 49 52 56 59 61 62 64 65 66 66 67 68 68 69 69 71 73 76 80
50 51 53 55 54 54 53 51 48 46 44 42 41 40 40 40 41 43 44 45 45 45 47 50 54 57 59 60 62 64 66 67 68 68 68 68 69 72 73 75 78 82 88
42 45 47 49 50 50 49 47 44 42 41 40 39 39 39 40 41 43 44 45 46 48 51 54 57 58 60 62 64 66 67 67 68 69 69 70 72 75 78 80 83 88 91
35 38 41 43 44 44 43 42 40 39 37 37 37 37 38 40 41 42 44 46 48 51 54 56 58 60 62 64 66 67 67 68 69 71 71 73 76 79 82 85 87 88 87
28 31 34 36 38 39 38 37 35 35 34 34 34 36 38 40 40 42 45 48 51 53 55 57 59 61 63 65 67 67 69 70 72 73 75 78 81 84 85 86 86 83 77
23 25 27 30 32 33 32 31 31 32 32 32 34 38 40 41 42 45 48 50 51 53 56 58 60 63 64 66 67 68 70 73 76 78 79 82 84 85 85 82 78 73 67
21 23 25 27 28 28 28 29 29 30 31 33 36 37 39 42 44 45 47 49 52 54 57 59 61 63 65 66 68 70 73 76 79 82 84 85 85 83 79 74 68 62 57
20 22 23 24 24 25 26 26 28 30 32 34 34 36 39 40 42 44 47 50 53 56 58 60 62 64 66 69 71 74 76 79 82 85 85 83 79 74 69 63 58 55 53
19 20 21 21 21 22 23 25 27 30 31 32 33 35 37 39 42 45 48 51 54 56 59 61 64 66 70 73 75 77 79 81 82 81 78 73 67 61 57 55 54 54 54
15 15 16 16 18 20 21 23 24 25 25 28 31 33 36 40 43 46 49 52 54 57 60 63 67 70 73 75 78 80 80 79 76 70 64 58 53 51 51 52 53 54 54
7 9 11 13 14 16 16 17 18 21 24 28 31 34 38 42 45 47 50 53 56 59 63 67 71 73 76 78 80 80 77 71 64 56 49 45 44 45 47 50 52 52 51
4 4 4 5 7 10 12 14 18 22 26 29 33 36 39 42 45 48 52 56 60 64 68 72 74 76 79 80 78 73 65 56 47 41 38 38 39 42 45 47 47 46 44
3 3 4 6 9 12 15 18 22 25 28 32 34 37 40 43 47 51 56 60 65 69 72 75 77 78 77 73 66 57 46 39 34 32 31 33 37 41 43 42 41 39 36
6 7 9 11 14 17 20 22 25 28 30 33 35 39 42 46 51 56 61 65 69 72 74 75 75 72 66 56 46 37 31 28 26 27 30 34 37 39 39 38 36 34 32
11 12 14 16 19 21 23 25 27 29 31 34 37 41 45 50 55 60 65 69 71 72 72 69 65 57 47 37 29 25 23 22 24 27 31 34 35 34 34 33 33 31 30
15 16 18 20 21 23 24 26 28 30 33 36 40 44 49 54 59 64 67 69 69 67 62 56 47 37 29 22 20 19 19 21 24 28 31 32 32 31 31 30 30 29 28
18 19 20 21 22 24 26 27 30 32 36 39 44 48 54 58 62 65 65 64 61 55 47 39 30 23 18 16 16 18 20 22 25 29 31 31 30 30 29 29 28 27 26
20 20 21 22 23 25 27 29 32 35 38 42 47 52 56 59 62 62 59 54 48 40 32 26 20 16 15 16 17 19 22 24 26 29 30 30 29 29 28 28 27 27 27
21 22 22 24 25 27 29 31 34 37 41 45 50 54 57 59 59 54 50 43 36 30 25 21 17 16 16 17 19 21 23 25 27 29 30 30 29 29 28 27 27 27 27
22 23 24 25 27 29 30 33 36 40 43 48 52 54 56 56 52 47 41 35 29 25 22 19 17 17 18 19 21 23 24 26 27 29 29 29 29 28 28 27 27 27 26
23 24 25 27 28 30 33 36 39 42 45 50 53 54 54 51 46 41 35 30 26 23 20 18 18 18 19 21 22 24 25 27 28 28 29 29 28 27 26 26 26 27 26
24 26 27 28 30 32 35 38 41 44 47 51 52 53 51 47 42 36 31 27 24 21 20 19 18 19 20 22 23 25 26 27 27 27 28 28 27 26 25 25 25 26 27
26 27 29 30 32 34 37 39 42 45 49 51 52 51 48 43 38 32 27 24 22 21 20 20 20 21 22 23 24 25 26 26 27 27 27 27 26 25 25 25 25 25 26
27 29 30 32 34 36 38 41 43 47 49 51 51 49 45 39 33 28 24 23 22 22 21 21 21 22 23 24 25 26 26 26 26 26 26 26 26 25 25 25 25 25 25
29 30 32 33 35 37 39 42 44 48 50 51 50 47 42 35 29 25 23 21 21 22 22 22 22 24 24 25 25 26 26 26 26 26 26 25 25 25 25 25 25 24 25

GEFSGL_500_meanwind_036.txt.gz
Wind_Speed
64 66 67 69 70 72 72 72 71 70 69 66 63 61 59 58 57 56 53 52 51 51 50 50 51 52 52 51 53 54 55 55 57 59 61 63 66 68 70 71 71 72 72
61 62 63 64 66 67 68 68 68 68 67 65 64 61 60 58 57 55 53 52 51 51 50 51 51 52 53 55 55 56 57 59 62 63 65 67 69 71 72 72 73 74 75
53 54 54 55 57 59 61 62 63 63 63 62 61 59 58 56 55 53 52 51 50 50 50 50 52 53 56 57 58 58 61 64 66 68 69 70 71 72 73 74 75 76 78
40 41 42 43 45 47 50 53 55 56 58 57 56 55 54 53 52 51 50 49 49 48 49 51 53 55 57 60 61 62 64 66 69 70 70 71 72 74 75 75 76 78 79
27 26 28 30 33 36 39 42 44 46 48 49 49 49 49 49 48 48 47 47 47 48 49 51 54 56 58 61 62 64 66 68 70 71 71 72 73 75 76 77 78 79 80
17 16 17 19 22 25 28 30 33 35 37 39 42 42 43 43 44 44 44 45 46 47 49 52 54 56 59 61 62 64 66 68 70 71 71 73 75 77 78 80 81 81 81
11 10 10 12 15 16 17 20 23 25 28 31 34 36 38 39 40 41 41 43 44 47 49 52 53 55 56 59 61 63 66 68 70 72 73 75 77 79 80 81 80 79 75
9 5 5 6 8 11 12 15 17 20 23 25 28 30 33 35 36 36 38 40 42 46 47 49 51 53 55 58 61 64 66 69 71 74 75 77 78 79 77 75 71 66 61
10 5 1 2 4 7 9 13 16 18 18 20 23 26 27 29 32 34 37 39 41 44 46 47 50 53 56 59 62 64 67 70 73 74 76 76 75 72 69 65 59 54 51
11 8 5 2 3 5 6 8 10 12 15 18 19 22 25 28 30 32 33 34 37 41 43 47 50 54 57 60 63 66 68 70 72 73 73 71 68 64 59 54 49 47 45
12 10 8 5 3 2 3 4 6 9 12 14 17 19 22 24 25 27 30 33 36 40 44 48 52 57 60 63 66 67 68 68 68 66 64 61 56 52 48 45 43 42 41
11 9 8 6 4 2 1 3 5 7 10 12 15 17 18 21 24 27 31 34 38 42 47 51 55 59 62 64 64 65 64 62 59 56 52 48 44 42 40 40 39 39 39
12 11 9 7 6 4 3 3 5 7 9 12 14 17 19 22 26 29 33 36 41 45 50 54 57 60 61 61 60 58 55 52 49 45 41 38 36 35 35 36 37 37 38
12 11 10 9 8 7 7 7 8 10 12 14 16 19 22 25 28 32 35 40 45 49 53 56 58 59 58 56 53 50 48 44 39 36 33 32 32 33 34 35 35 36 35
12 11 11 10 10 10 10 11 12 13 15 17 19 22 25 28 31 35 39 43 48 52 54 56 56 55 52 49 47 44 41 36 33 30 30 31 32 33 34 35 34 34 34
13 13 13 13 13 13 13 14 15 16 18 20 22 25 28 32 35 38 43 47 50 52 53 53 53 50 48 46 43 40 36 32 30 30 30 30 31 32 33 34 34 34 33
15 15 15 15 15 15 15 16 18 20 21 24 26 28 32 35 38 42 46 50 52 52 53 53 51 49 45 42 39 37 33 30 30 30 30 31 31 32 33 33 33 33 32
16 16 16 17 17 17 18 20 21 23 25 27 29 32 35 38 41 45 49 51 52 53 53 52 49 45 41 39 37 34 31 30 30 30 31 31 32 32 33 33 33 32 31
17 18 18 18 19 20 21 23 24 26 28 30 32 35 38 40 44 48 50 52 53 53 52 49 45 41 39 36 33 31 29 29 30 31 31 32 32 33 33 33 32 32 32
19 19 20 20 21 22 24 25 27 29 31 33 35 38 40 43 46 49 52 53 53 52 49 45 41 37 35 32 30 29 29 29 30 31 32 33 33 33 33 33 33 33 33
20 21 22 23 24 25 26 28 29 31 33 35 37 40 42 45 48 51 52 52 51 49 45 40 36 34 32 30 29 28 29 29 30 32 33 33 34 34 34 34 34 33 33
22 23 24 25 26 27 29 30 32 33 35 37 39 42 44 47 50 52 52 51 48 44 40 36 33 32 30 29 28 28 30 31 31 33 33 34 34 34 34 34 34 33 32
23 24 26 27 28 29 31 32 34 35 37 38 41 43 46 48 51 52 51 48 44 40 36 33 32 30 29 29 29 30 31 31 32 34 34 34 34 34 33 33 33 32 32
25 26 27 28 29 31 32 34 35 36 38 40 42 44 47 50 51 51 49 44 40 36 33 32 31 30 30 30 31 31 32 32 33 34 34 34 33 32 32 32 32 32 31
26 27 28 29 31 32 33 35 36 37 39 41 43 46 49 50 51 50 46 42 38 35 33 32 31 31 32 32 32 32 33 33 34 34 33 33 32 31 31 31 31 31 31
27 28 29 31 32 33 34 35 36 38 40 42 45 47 49 50 51 48 44 40 37 35 33 33 32 32 33 33 33 33 33 33 33 33 33 32 31 30 30 30 30 30 29

GEFSGL_500_meanwind_042.txt.gz
Wind_Speed
42 45 48 51 55 58 61 63 65 67 69 69 70 69 68 67 66 64 63 63 63 62 62 61 61 61 61 59 59 58 57 57 59 60 60 61 62 63 64 64 64 65 66
40 43 46 49 51 54 56 58 60 62 63 64 65 65 65 64 63 62 61 60 60 61 61 61 61 61 61 60 59 58 58 59 60 61 62 63 64 65 66 67 67 67 68
38 40 42 44 46 47 47 48 50 51 52 54 56 57 57 57 57 57 56 55 55 56 57 58 59 59 59 59 58 58 58 59 60 63 64 64 65 67 67 67 68 68 69
34 35 38 40 41 41 40 39 38 39 40 42 45 47 47 48 48 49 48 48 48 49 50 52 53 54 55 55 56 56 58 59 61 63 64 65 66 66 67 67 67 68 70
30 31 33 35 35 34 32 30 29 29 31 33 34 35 36 37 39 39 40 40 41 42 43 45 47 49 49 50 53 55 56 59 60 63 64 64 65 66 66 66 68 69 71
26 27 27 28 28 28 26 24 23 22 22 23 25 25 26 28 29 30 31 33 34 36 38 39 42 44 44 48 50 52 55 58 60 61 61 63 64 65 66 68 69 71 72
22 23 23 23 23 22 21 20 19 17 16 16 16 17 18 19 20 22 24 26 28 30 33 36 39 40 43 46 49 52 54 55 56 57 59 61 63 65 67 68 70 71 71
19 19 20 20 19 19 17 16 15 13 12 10 10 11 12 13 15 17 20 22 24 27 30 34 36 38 41 44 46 48 50 52 54 57 59 61 63 65 66 67 68 67 67
16 17 17 17 16 16 15 14 12 11 8 6 6 8 9 11 13 15 17 20 23 26 28 31 33 36 38 41 44 46 50 53 55 57 59 61 63 63 63 63 63 62 61
14 15 15 15 15 14 14 13 12 11 8 6 5 5 6 7 10 12 15 17 20 22 25 28 32 35 38 41 44 47 50 53 55 56 58 59 59 59 59 58 56 54 52
13 13 13 14 14 14 13 13 13 11 10 8 6 6 6 7 9 12 14 17 19 22 25 29 33 36 39 42 45 48 50 52 54 55 56 57 56 55 54 52 50 47 45
12 13 13 13 14 13 13 13 12 11 10 9 8 8 9 10 11 13 16 19 22 25 28 31 34 38 41 44 47 49 50 52 54 55 55 54 53 51 49 46 44 41 40
12 13 13 14 14 14 13 12 11 11 10 10 11 11 12 13 15 17 19 22 25 28 31 34 37 40 43 46 48 50 51 53 54 54 53 52 50 47 45 42 40 38 38
13 13 14 14 14 14 13 13 12 12 12 12 13 14 15 17 19 21 23 25 28 31 33 36 40 43 46 47 49 51 53 54 53 51 49 47 45 43 40 38 37 36 36
14 14 14 14 14 14 14 13 13 14 14 15 16 17 19 20 22 24 27 29 31 34 37 40 43 46 48 49 51 52 52 51 49 47 45 42 40 38 36 35 34 34 34
15 15 15 15 15 15 15 15 15 16 17 18 19 21 22 24 26 28 30 32 34 37 39 42 45 47 49 50 51 50 49 47 44 42 40 38 36 35 34 33 33 33 34
16 16 16 16 16 16 16 17 18 19 20 21 22 24 25 27 29 31 32 34 37 39 42 44 47 48 49 50 49 47 45 42 40 38 36 35 34 33 33 33 34 34 34
18 18 18 18 18 18 18 19 20 21 22 23 25 27 28 29 31 33 35 37 39 41 44 46 48 49 49 48 46 44 41 39 37 36 34 34 33 33 33 34 34 35 35
19 19 19 19 19 20 20 21 22 23 25 26 27 29 30 32 33 35 37 39 41 43 46 48 49 49 47 46 44 41 39 37 36 35 34 34 33 34 34 35 35 35 35
21 21 21 21 21 22 22 23 24 25 27 28 29 31 32 34 35 37 39 41 43 45 47 49 49 47 45 44 41 39 38 37 35 35 34 34 34 35 35 36 36 36 36
22 22 22 22 22 23 24 25 26 27 28 30 31 33 34 35 37 39 41 42 45 47 48 49 48 46 45 43 41 39 37 36 35 35 35 35 36 36 36 37 37 37 36
23 23 23 23 23 24 25 26 27 28 30 31 33 34 35 37 38 40 42 44 46 48 49 49 48 46 44 42 40 39 38 37 36 36 36 36 37 37 37 38 38 37 37
24 24 24 24 25 25 26 27 28 29 31 32 34 35 37 38 40 41 43 45 48 49 50 49 47 46 44 42 40 39 38 38 37 37 37 37 37 38 38 38 37 37 36
25 25 25 25 26 26 27 28 29 30 32 33 35 36 38 39 40 42 44 47 49 50 50 49 47 45 43 42 40 39 39 38 37 37 37 37 36 37 37 36 36 35 34
26 26 26 26 26 26 27 28 30 31 33 34 36 37 39 40 41 43 46 48 50 50 50 48 46 44 43 41 40 39 38 38 37 37 36 35 34 35 35 34 33 33 32
26 26 26 26 26 27 28 29 31 32 33 35 36 38 40 41 43 45 47 49 50 51 50 48 46 43 41 40 39 38 37 37 36 36 34 33 32 32 32 31 31 31 30

GEFSGL_500_meanwind_048.txt.gz
Wind_Speed
36 36 37 37 37 37 38 39 40 42 44 46 49 50 51 53 54 55 56 56 56 57 57 58 59 58 58 58 58 58 58 58 58 57 57 57 57 58 58 59 60 60 62
34 34 35 35 35 36 37 37 38 40 42 44 46 46 47 48 49 50 50 49 49 49 49 50 51 53 53 54 55 55 56 57 57 57 58 59 59 60 61 62 61 62 63
32 33 33 33 34 34 34 36 37 38 40 41 42 43 43 45 45 44 43 42 42 42 42 43 44 46 48 49 51 51 52 53 55 55 56 58 59 60 60 61 61 62 64
30 31 31 32 32 32 33 34 35 37 38 38 39 39 39 40 40 38 37 36 35 35 34 36 37 39 40 42 44 46 46 48 50 51 53 55 56 58 59 61 62 63 63
29 29 30 30 31 32 32 33 33 34 35 35 35 35 35 35 35 32 31 30 29 28 28 29 31 32 34 36 38 40 41 43 46 48 50 52 54 55 57 58 59 59 60
27 28 29 29 30 30 31 31 31 31 32 32 31 31 31 31 30 28 27 25 25 24 23 23 24 25 27 29 32 34 36 40 43 45 47 49 51 52 53 55 56 58 60
26 27 27 28 29 29 29 29 30 30 29 29 28 27 27 27 26 26 25 23 21 20 19 19 20 21 24 26 28 30 33 36 38 41 43 46 48 49 52 54 56 58 59
24 25 25 26 26 27 27 27 27 27 27 26 25 25 24 23 23 23 22 20 19 17 17 17 16 18 19 21 24 26 30 33 36 39 42 45 48 50 52 54 56 57 59
22 22 23 23 24 24 24 25 25 25 25 24 24 23 22 22 21 21 20 19 18 17 16 16 17 18 20 21 24 27 30 33 36 39 42 45 48 51 53 55 56 57 58
20 20 21 21 21 22 22 22 23 23 23 22 22 21 20 20 20 20 19 19 18 18 18 18 19 20 22 24 26 29 32 35 38 41 44 48 50 52 54 55 56 57 58
19 19 20 20 20 21 21 22 22 22 21 21 20 20 20 20 20 20 20 20 20 21 21 22 23 24 26 28 30 33 36 38 41 44 47 50 52 53 54 55 56 56 56
18 19 19 20 20 21 21 22 21 21 21 20 20 20 21 21 22 22 22 22 22 23 24 25 26 28 30 32 34 37 39 42 45 48 50 52 53 54 54 55 54 53 52
18 19 19 19 20 21 21 21 21 21 21 21 21 21 22 23 23 24 24 25 25 26 27 28 30 31 34 36 38 40 43 45 48 50 52 54 54 54 54 53 52 49 48
19 19 19 20 20 21 21 21 21 22 22 22 22 23 23 24 25 25 26 27 28 29 30 32 33 35 37 39 41 44 46 48 50 52 54 54 54 53 51 50 48 46 44
20 20 20 21 21 22 22 22 22 23 23 23 24 24 25 26 27 27 28 29 30 32 33 35 36 38 40 42 44 46 49 51 52 53 53 52 51 50 49 47 45 44 42
21 21 22 22 22 23 23 23 24 24 25 25 26 26 27 28 28 29 31 32 33 35 36 37 39 41 43 45 47 49 50 52 53 52 51 50 49 47 47 46 44 42 40
23 23 23 24 24 24 25 25 26 26 26 27 28 28 29 30 31 32 33 34 36 37 39 40 41 43 45 47 49 50 52 52 52 51 50 49 47 47 45 44 43 41 39
25 25 25 25 26 26 27 27 27 28 28 29 30 30 31 32 33 34 35 36 38 39 41 42 44 45 47 49 51 52 52 52 52 51 49 48 47 46 44 43 41 40 39
26 26 27 27 27 28 28 28 29 29 30 30 31 32 33 34 35 35 37 38 40 41 42 44 46 47 49 51 53 53 53 53 52 50 49 48 46 44 43 42 41 40 39
27 28 28 28 28 29 29 29 30 30 31 31 32 33 34 35 36 37 38 40 41 43 44 46 47 49 51 53 54 54 54 53 51 49 48 46 44 43 42 41 41 40 39
29 29 29 29 30 30 30 31 31 32 32 33 34 34 35 36 37 38 39 41 43 44 46 48 49 51 53 54 55 55 54 52 50 48 46 44 43 42 42 41 40 40 39
30 30 30 30 31 31 31 31 32 33 33 34 34 35 36 36 38 39 41 42 44 46 47 49 51 53 54 55 55 55 53 51 49 46 44 43 42 41 40 39 39 38 38
30 31 31 31 31 32 32 33 33 34 34 34 35 35 36 37 38 40 41 43 46 48 49 51 53 54 55 55 55 54 51 49 47 45 43 41 40 39 39 38 37 37 36
31 31 32 32 33 33 34 34 34 34 34 34 35 36 36 38 39 41 42 45 47 49 50 52 54 55 55 55 54 52 50 47 45 43 41 39 38 38 37 36 35 35 35
31 32 32 33 34 34 34 34 34 34 34 35 35 36 37 39 40 42 44 46 48 49 51 53 54 55 54 53 52 50 48 46 44 42 39 37 36 36 35 33 33 33 33
32 33 33 34 34 34 35 34 34 34 35 35 36 37 38 39 41 43 44 46 48 50 52 53 54 53 52 50 49 48 45 43 42 40 38 37 35 33 32 31 31 31 31

GEFSGL_500_meanwind_054.txt.gz
Wind_Speed
42 42 42 42 42 42 42 41 41 41 41 41 41 40 40 41 41 42 43 43 44 44 44 44 45 47 47 47 47 46 46 46 46 45 46 47 45 46 48 50 51 52 51
40 40 40 40 40 39 39 39 39 39 39 39 39 39 39 39 39 40 41 41 41 40 40 41 42 42 42 42 42 42 41 40 39 39 40 42 44 43 44 46 48 50 50
37 37 37 37 36 37 37 37 37 37 37 37 37 37 37 37 38 39 38 38 37 37 37 37 38 38 38 37 37 36 35 35 35 35 34 34 36 39 41 43 45 47 49
34 34 34 34 34 34 35 35 35 35 35 35 35 35 36 36 37 37 36 35 35 34 35 35 35 35 34 33 33 32 30 29 30 30 29 29 31 34 36 38 41 44 45
32 32 32 32 32 32 32 32 32 33 33 33 33 34 34 35 35 35 34 34 33 33 33 32 32 31 30 30 29 28 26 25 25 25 26 27 29 32 34 36 38 40 43
28 29 29 29 29 29 29 29 30 30 31 31 31 32 32 33 33 33 32 31 31 30 30 29 29 28 28 27 26 25 24 24 24 24 24 26 27 29 31 34 37 39 42
26 27 27 27 27 27 27 27 27 28 29 29 30 30 30 31 31 30 30 29 28 28 27 28 27 27 27 26 26 26 25 25 24 25 25 26 28 30 32 34 36 39 42
24 25 24 23 23 24 24 24 25 26 27 27 28 28 28 29 28 28 28 27 27 27 27 27 27 27 27 26 26 26 26 26 26 26 27 29 30 32 34 37 39 42 44
22 21 21 21 21 21 22 22 23 24 25 25 26 27 27 27 27 27 27 26 26 27 27 27 27 27 27 27 28 28 28 28 29 30 31 32 34 36 38 40 42 45 47
20 20 19 20 20 20 21 22 23 23 24 24 25 25 26 26 26 26 26 26 27 27 28 28 28 28 29 29 30 30 31 32 32 33 34 36 37 39 41 43 45 47 50
19 19 19 19 19 20 20 21 22 23 23 24 24 25 25 25 26 26 27 27 28 28 29 29 30 30 31 31 32 33 34 35 36 37 38 39 41 43 45 47 49 50 52
19 19 19 19 19 20 20 21 22 23 24 24 24 25 25 26 26 27 27 28 29 30 30 31 32 33 33 34 35 35 36 37 39 40 41 43 45 46 48 50 51 52 53
20 20 20 20 20 21 21 22 22 23 24 25 25 26 26 27 28 28 29 30 31 31 32 33 34 34 35 36 37 38 39 40 42 43 45 46 47 49 50 51 52 53 54
21 21 21 21 21 22 23 23 24 24 25 26 26 27 27 28 29 30 30 31 32 33 34 34 35 36 37 38 39 41 42 43 44 46 48 49 50 51 52 53 53 54 53
22 22 22 23 23 23 24 25 25 26 27 27 27 28 29 29 30 31 31 32 33 34 35 36 37 38 39 40 41 43 44 46 47 49 50 51 52 54 54 55 54 54 52
24 24 24 25 25 25 26 26 27 28 28 28 29 29 30 31 31 32 33 33 34 35 36 37 38 39 40 42 43 45 47 48 50 51 52 54 55 55 56 55 54 52 50
27 27 27 27 27 28 28 29 29 29 30 30 30 31 31 32 32 33 34 35 35 36 37 38 39 40 42 43 45 47 49 50 51 53 55 56 56 56 56 54 52 50 49
29 29 29 29 29 30 30 30 30 31 31 31 32 32 32 33 34 34 35 36 37 38 38 39 40 42 43 45 47 48 50 52 53 55 56 56 56 55 53 51 49 48 46
31 31 31 31 31 32 32 32 32 32 32 33 33 34 34 35 35 36 36 37 38 39 39 40 41 43 44 46 48 50 51 53 54 55 56 55 54 52 50 49 47 46 44
32 32 33 33 33 33 33 33 33 33 34 34 34 35 35 36 37 37 38 38 39 40 40 41 42 44 46 48 49 51 52 54 55 55 54 53 51 50 49 47 46 44 42
34 34 34 34 34 34 34 34 34 34 35 35 35 36 36 37 38 38 38 39 39 40 41 42 44 45 47 49 50 52 53 54 54 54 52 51 50 49 47 46 44 42 40
35 35 35 35 35 34 35 35 35 35 35 35 36 37 37 38 39 39 39 40 40 41 42 43 45 46 48 50 51 52 53 53 53 52 50 50 49 47 46 44 42 40 38
34 34 34 34 34 35 35 35 36 36 36 36 37 38 38 38 39 39 39 40 41 41 42 43 45 47 49 50 51 52 52 52 51 50 49 48 47 46 44 42 40 38 37
34 34 35 35 35 35 35 36 36 36 37 38 38 39 39 39 39 39 39 40 40 41 43 45 46 48 49 50 51 52 51 51 50 49 47 46 45 44 42 40 38 37 36
33 34 34 34 35 35 35 36 36 37 38 38 39 39 38 38 38 39 39 40 41 42 44 45 46 48 49 50 51 51 50 50 48 47 45 44 42 41 40 38 37 36 35
32 32 33 33 34 34 35 35 36 37 37 38 38 38 38 38 38 39 40 40 41 42 43 44 46 47 49 50 50 49 49 48 47 46 45 42 41 40 39 37 36 35 34

GEFSGL_500_meanwind_060.txt.gz
Wind_Speed
48 48 47 47 47 47 47 47 47 47 48 48 47 47 46 45 44 44 43 43 43 43 43 43 43 43 43 43 42 41 41 40 39 38 38 38 37 37 35 33 31 30 29
47 47 47 47 47 47 47 47 47 46 46 46 45 45 44 43 42 42 42 42 42 42 41 41 42 42 41 41 40 39 38 37 37 36 36 36 35 33 31 30 28 27 25
46 46 46 46 46 46 45 45 45 45 45 44 43 42 41 40 40 40 40 40 40 40 39 40 40 40 39 39 38 37 36 36 35 35 35 34 33 32 30 29 27 26 25
44 44 44 44 44 44 45 45 44 43 42 41 40 38 38 38 38 38 38 38 38 38 38 38 38 38 37 36 35 35 34 34 34 34 33 32 31 31 30 29 28 27 26
42 42 42 42 42 42 42 41 41 40 39 38 37 36 36 36 36 36 36 36 36 36 36 36 36 36 35 34 34 34 34 34 34 33 32 32 32 31 31 31 30 29 29
39 40 41 40 40 40 39 38 37 36 35 35 34 34 34 34 34 34 34 34 34 34 35 35 34 34 33 33 34 33 33 33 33 33 33 33 33 33 32 32 32 32 32
37 37 37 36 36 36 35 34 33 33 33 32 32 31 31 31 31 31 32 32 33 33 33 33 33 33 32 33 33 33 33 33 33 33 34 34 34 34 34 34 35 35 35
33 33 33 33 32 32 31 31 31 31 30 29 29 29 28 28 29 30 30 30 31 32 32 32 31 31 32 33 33 33 33 34 34 34 35 35 35 36 36 37 37 38 39
30 30 30 30 29 29 29 28 28 28 27 27 27 26 27 27 27 28 28 29 30 31 31 31 31 31 32 33 33 34 34 34 35 35 36 37 37 37 38 39 39 40 41
27 27 27 27 27 27 26 26 26 26 25 25 25 25 25 26 26 27 28 29 30 30 31 31 32 32 33 33 34 34 35 35 36 37 38 38 39 39 40 41 42 44 45
26 26 26 26 26 26 25 25 25 24 24 24 24 25 25 26 27 28 29 30 30 31 31 32 33 33 34 34 35 35 36 37 38 38 39 40 41 41 42 44 45 47 48
25 25 25 25 25 25 25 25 24 24 24 24 25 25 26 27 28 29 30 30 31 32 32 33 34 34 35 35 36 37 37 38 39 40 41 42 43 44 45 47 48 50 51
24 24 25 25 25 25 25 25 25 25 25 25 26 26 27 28 29 30 30 31 32 33 34 34 35 36 36 37 37 38 38 39 40 41 42 43 44 46 48 50 51 51 52
26 25 25 25 26 26 26 26 26 26 26 27 27 28 29 29 30 31 32 32 33 34 35 35 36 37 37 38 38 39 40 41 41 42 43 45 46 48 49 51 52 53 54
27 27 27 27 27 26 27 27 27 27 28 28 29 29 30 31 32 33 33 34 35 35 36 37 37 38 38 39 40 41 41 42 43 44 45 46 48 49 51 52 52 53 53
27 27 28 28 28 28 28 29 29 30 30 31 31 31 32 33 33 34 35 35 36 37 37 38 38 39 40 40 41 42 42 43 44 45 46 48 49 50 52 53 53 53 52
27 28 28 29 29 29 30 30 30 31 31 32 32 33 34 35 35 36 36 37 37 38 38 39 40 40 41 42 42 43 43 44 45 46 48 49 50 52 53 53 53 52 52
28 29 29 30 30 31 31 32 32 32 33 33 33 34 35 35 36 36 37 38 38 39 39 40 41 42 42 43 43 44 45 46 46 47 49 50 51 52 53 52 52 52 51
30 30 30 30 31 31 32 32 33 33 34 35 35 35 36 36 37 37 38 38 39 40 40 41 42 43 43 44 44 45 46 47 47 48 50 51 52 52 52 52 52 51 50
31 31 32 32 32 32 32 33 33 34 35 35 35 36 37 37 37 38 38 39 40 41 42 42 43 43 43 44 45 46 47 48 48 49 50 52 52 52 51 51 51 50 48
32 32 33 33 33 33 33 34 34 34 34 34 35 36 37 37 38 39 39 39 40 41 42 43 43 44 44 45 46 47 47 48 49 49 51 52 51 51 51 50 50 49 48
33 33 34 34 34 34 34 34 34 34 34 35 36 36 37 38 38 39 39 40 40 41 42 42 43 43 44 45 46 46 47 48 49 49 51 51 51 50 50 50 49 49 48
32 33 34 34 35 35 35 35 35 35 36 36 36 37 37 38 38 39 40 40 41 41 42 42 43 44 45 45 45 46 46 47 48 49 50 50 50 50 49 49 49 48 47
32 32 33 33 34 35 35 35 36 36 36 36 37 37 37 38 38 39 40 40 41 42 42 43 43 44 44 45 45 45 46 47 49 50 50 49 49 49 49 49 48 47 46
31 31 32 33 33 34 35 35 35 36 36 36 37 37 38 38 38 39 39 40 41 41 42 42 43 43 43 44 44 45 47 48 49 50 49 48 48 48 48 48 47 46 45
30 30 31 31 32 32 33 33 34 34 34 35 35 35 36 36 37 37 37 38 39 39 40 41 41 42 43 44 45 46 48 49 49 49 48 47 47 48 48 47 46 45 43

GEFSGL_500_meanwind_066.txt.gz
Wind_Speed
49 49 50 50 50 50 51 51 51 51 50 50 49 49 49 48 47 47 46 46 46 45 44 43 43 42 41 41 41 39 39 38 38 37 37 36 36 35 35 35 34 34 33
50 51 51 51 52 52 52 52 52 52 51 50 50 49 48 47 46 46 46 45 44 44 43 42 41 41 40 40 38 38 37 37 37 36 35 35 34 34 34 34 34 33 32
48 49 50 51 51 52 52 52 52 51 50 49 48 47 47 46 45 45 45 44 43 42 41 40 40 39 38 38 37 36 36 36 35 35 34 34 34 33 33 33 33 32 31
45 46 47 48 49 49 49 49 49 48 48 46 46 45 44 44 43 43 43 42 42 41 40 39 38 37 36 36 35 35 34 34 34 34 33 33 33 33 33 33 32 32 32
43 43 44 45 45 45 45 45 45 45 44 44 44 43 43 43 42 42 41 40 39 38 38 37 36 35 35 34 33 33 33 33 33 33 32 32 33 33 33 33 33 33 33
41 41 42 42 42 42 42 43 43 43 42 42 42 42 41 41 41 40 39 38 37 36 35 34 34 33 32 31 31 31 31 32 32 32 32 32 33 33 33 33 34 34 34
40 40 40 40 40 40 40 40 40 40 40 40 40 40 39 39 38 37 36 35 35 34 33 32 31 30 30 30 30 31 31 31 32 32 33 33 34 34 34 34 35 35 35
38 38 38 38 38 38 37 37 37 37 37 37 36 36 36 36 35 34 34 33 32 31 30 30 30 29 29 30 30 30 31 31 32 33 33 34 34 35 35 35 36 36 37
36 36 37 37 37 36 35 35 35 35 34 34 33 33 33 32 32 32 31 30 30 29 29 29 29 29 30 30 30 31 31 32 32 33 34 34 35 35 36 37 37 38 39
33 33 34 34 34 34 34 33 32 32 31 31 31 31 30 30 30 29 29 29 29 29 29 29 29 29 30 30 31 31 32 33 33 34 35 35 36 37 37 38 39 40 40
29 29 30 30 30 31 31 31 30 30 29 29 30 29 29 29 29 29 29 28 28 29 29 29 29 30 30 31 31 32 33 33 34 35 36 36 37 38 39 40 41 41 42
27 28 28 28 28 28 28 28 28 28 28 28 29 29 28 28 28 28 28 29 29 30 30 30 30 31 31 32 32 33 34 35 36 36 37 38 39 40 41 42 42 43 44
26 26 26 26 27 27 28 28 28 28 28 28 28 28 29 29 29 29 29 30 30 31 31 31 31 32 32 33 33 34 36 36 37 38 39 40 41 41 42 43 44 45 46
25 26 26 26 27 27 27 27 27 27 28 28 28 29 29 29 29 30 30 31 32 32 32 32 33 33 34 35 36 36 37 38 39 40 41 41 42 42 43 44 45 46 46
26 26 26 26 26 27 27 27 28 28 29 29 29 30 30 30 31 31 32 32 33 33 33 34 34 35 36 37 38 38 39 40 40 41 42 42 43 44 45 45 46 47 47
26 27 27 28 28 28 27 28 28 28 29 30 30 30 31 32 32 33 33 33 34 34 34 35 36 37 38 38 39 39 40 41 42 42 43 43 44 45 46 46 47 47 48
27 27 27 28 28 28 28 29 29 30 30 30 31 31 32 32 32 33 33 34 35 35 36 37 37 38 39 40 40 41 42 42 42 43 43 44 45 46 47 47 48 48 48
28 28 29 30 30 30 30 30 30 31 31 31 32 32 33 33 34 35 35 35 36 37 37 38 39 39 40 40 41 41 42 42 42 43 43 44 45 46 47 48 48 48 48
30 30 31 31 31 31 31 31 31 32 32 32 33 34 34 35 35 36 36 37 38 38 38 39 40 40 40 40 41 41 42 42 43 43 45 46 47 47 48 47 47 47 48
31 32 32 32 33 33 33 34 34 34 34 34 34 35 35 36 36 37 37 38 38 39 39 40 40 40 41 41 41 42 42 43 43 44 45 46 47 47 47 47 47 48 48
32 32 32 33 33 34 34 35 35 35 35 36 36 36 37 37 38 38 38 39 39 40 40 41 41 41 41 42 42 42 43 43 44 45 45 46 46 46 46 46 47 47 48
32 33 33 33 33 34 35 35 35 36 36 36 37 37 38 38 39 39 40 40 40 41 41 41 41 41 41 41 41 42 42 43 43 43 44 45 45 45 45 47 48 48 49
32 32 33 33 33 33 34 34 35 35 35 36 37 37 38 39 40 40 41 41 41 41 41 41 41 41 40 40 41 41 41 42 42 43 44 44 45 46 47 48 49 49 49
30 31 32 32 32 33 33 33 34 34 35 36 37 37 38 39 39 40 40 40 41 41 41 40 40 40 40 40 40 40 40 41 42 43 44 45 46 47 48 49 49 49 49
29 30 30 31 31 31 32 32 33 34 34 35 35 36 36 37 37 38 38 38 38 38 38 38 38 39 39 38 39 39 40 41 43 44 45 46 47 48 49 49 49 49 49
29 29 29 29 30 30 31 31 31 32 32 33 33 34 34 35 35 35 35 35 35 35 36 36 37 37 38 38 39 40 41 43 44 45 46 47 48 49 49 49 49 49 49

GEFSGL_500_meanwind_072.txt.gz
Wind_Speed
49 49 50 51 52 52 52 51 51 51 51 50 50 50 50 50 50 50 50 50 49 49 49 48 48 47 47 47 46 45 44 43 42 41 40 39 37 36 35 34 33 32 31
46 47 47 48 49 49 49 50 50 50 50 50 51 51 51 51 51 51 51 51 50 50 49 49 48 47 47 46 44 43 43 42 40 39 38 36 35 34 33 32 31 31 30
41 43 44 46 47 47 48 49 50 51 51 51 51 51 52 52 52 52 51 51 50 50 49 48 47 46 45 44 43 42 41 40 39 37 36 35 34 33 32 31 30 30 29
38 39 41 42 43 45 46 47 48 49 50 51 51 51 51 51 51 50 50 49 48 48 47 46 45 45 44 43 42 41 39 37 36 35 34 33 32 31 30 30 30 30 29
37 38 39 40 42 43 44 45 46 46 47 47 48 48 48 48 48 47 47 46 46 45 44 44 43 42 41 40 39 38 36 35 34 33 32 32 31 30 30 30 30 30 30
36 37 38 39 40 42 43 44 44 44 45 45 45 45 45 45 45 45 44 44 43 42 42 41 40 39 38 37 35 34 33 32 32 32 31 31 30 30 30 30 30 30 30
36 37 38 38 39 40 41 42 42 42 42 43 42 42 42 42 42 42 42 41 41 40 39 39 38 37 36 34 33 33 32 31 31 31 31 31 31 30 30 30 30 30 31
35 36 37 37 38 39 40 40 40 41 41 41 41 40 40 40 40 40 39 39 38 37 37 36 35 33 33 32 32 31 31 31 31 31 31 31 30 30 31 31 31 32 32
35 36 36 37 37 38 38 38 38 38 38 39 39 39 38 38 37 37 36 35 35 34 33 32 31 31 30 30 30 30 31 31 31 31 31 31 31 31 31 32 32 33 34
35 35 35 35 35 36 36 36 36 36 36 35 35 35 35 35 35 34 33 32 32 31 30 30 30 29 29 29 30 30 31 31 31 31 31 31 32 32 33 34 34 35 36
33 34 34 34 34 33 33 33 32 32 32 32 32 32 32 32 32 31 31 30 30 30 30 30 30 29 29 30 30 30 31 31 32 32 32 33 34 34 35 35 36 37 38
32 32 32 32 32 32 31 31 30 30 30 29 29 29 29 29 29 29 29 29 29 29 29 29 29 29 30 30 31 31 32 32 32 33 34 34 35 35 36 37 38 39 39
31 31 31 31 31 31 30 29 29 28 28 28 28 28 28 29 29 29 28 28 28 28 28 29 29 29 30 31 32 32 33 33 34 34 35 36 37 37 38 38 39 40 40
31 31 31 31 30 30 29 28 28 28 27 27 27 27 28 28 28 28 28 28 29 29 29 30 30 31 32 33 33 33 34 35 35 36 37 37 38 39 39 39 40 40 41
30 30 29 29 29 29 29 29 29 28 27 27 27 27 28 28 28 29 29 29 30 30 31 31 32 32 33 33 34 34 35 36 36 37 38 39 39 39 40 40 41 41 41
30 29 29 28 28 28 28 28 28 28 28 28 28 28 29 29 29 29 30 31 31 31 31 32 33 33 34 35 35 36 36 37 38 38 39 39 40 40 41 41 41 42 42
28 28 28 29 29 29 29 29 29 29 29 29 29 29 30 30 31 31 31 31 31 31 32 33 33 34 35 36 36 37 38 38 39 40 40 41 41 41 41 41 42 42 43
30 30 29 29 29 29 29 29 29 30 30 30 30 31 31 32 32 32 32 32 32 33 33 34 35 36 36 37 37 38 39 39 40 40 40 41 41 41 42 42 42 42 43
31 31 31 31 30 30 31 31 31 31 31 31 31 32 33 33 33 33 33 34 34 34 34 35 36 36 37 38 39 39 39 40 40 41 41 41 42 42 42 43 43 42 42
33 33 33 32 32 32 33 33 33 33 33 34 34 34 35 35 35 35 35 35 35 36 36 37 38 39 39 39 40 40 40 41 41 41 42 42 42 42 42 42 42 42 42
34 33 33 33 33 33 33 34 34 34 34 34 35 35 36 36 36 36 37 37 37 37 38 38 39 39 39 40 40 40 40 41 41 41 42 42 42 41 42 41 42 43 43
34 33 33 33 33 32 33 33 33 33 34 34 35 36 36 36 36 36 36 37 37 37 37 38 38 38 39 39 40 40 40 40 41 41 41 41 41 41 41 42 43 44 44
34 34 34 33 33 33 33 33 33 33 33 34 34 34 35 35 35 36 36 37 37 37 38 38 38 38 39 39 39 39 39 39 39 40 40 40 40 41 42 43 44 45 46
33 33 33 33 33 33 33 33 33 33 33 33 33 33 33 33 34 34 35 35 36 36 36 37 37 37 37 37 38 38 38 38 38 39 40 40 41 42 43 44 45 46 47
33 33 33 33 33 33 33 33 33 33 32 33 33 33 33 33 33 34 34 34 34 34 35 35 35 35 35 36 36 37 37 38 39 39 40 41 42 43 44 45 46 47 48
33 33 33 32 32 33 33 32 32 32 32 32 32 32 32 32 32 33 33 33 33 33 33 33 34 35 35 36 37 37 37 38 39 40 41 42 43 44 45 46 47 48 49

GEFSGL_500_meanwind_078.txt.gz
Wind_Speed
45 46 47 48 48 49 50 51 51 52 52 53 53 53 53 52 52 52 52 52 51 51 50 50 50 49 49 48 48 48 47 47 47 46 45 44 43 42 41 39 38 36 35
44 44 45 46 47 48 49 49 50 51 52 52 53 53 53 53 53 52 52 52 51 51 50 50 50 50 49 48 48 48 48 47 46 45 44 43 42 40 39 38 36 35 33
42 43 44 45 45 46 47 48 49 50 50 51 52 52 52 52 52 51 50 50 50 49 49 49 49 48 48 47 47 47 46 45 44 43 42 41 39 39 37 36 35 33 31
39 40 41 41 42 44 45 46 47 47 47 48 48 49 49 49 48 47 47 47 47 47 47 47 47 46 46 45 45 44 44 43 42 41 40 39 38 36 35 33 32 31 30
37 37 38 39 40 40 41 42 42 43 45 45 45 45 45 45 45 45 45 45 45 46 45 45 45 44 44 43 43 42 41 40 39 38 37 36 35 34 32 31 31 30 30
37 37 38 38 39 40 41 41 41 42 43 43 43 43 43 43 44 44 44 44 44 44 44 43 43 42 42 41 40 39 38 38 37 36 35 34 33 32 31 30 30 30 30
36 37 38 39 39 39 40 40 41 41 42 42 42 42 43 43 44 44 44 43 43 43 42 41 40 40 39 39 38 37 36 35 34 34 33 32 31 30 30 30 30 30 29
38 38 38 39 39 40 41 41 41 42 42 42 42 42 42 42 42 42 42 41 41 40 40 39 39 38 38 37 36 35 34 34 33 32 31 30 30 29 29 30 30 29 29
40 40 40 41 41 42 42 42 42 42 42 42 41 41 41 41 40 39 39 38 38 37 37 37 36 36 35 35 34 33 33 32 31 30 29 29 29 29 29 29 29 29 29
40 40 40 41 41 41 41 42 42 42 42 41 41 40 39 39 38 37 36 35 35 34 34 34 34 33 33 32 32 31 30 30 29 29 29 29 29 29 29 29 29 29 30
39 39 40 40 40 41 41 41 41 41 40 40 39 38 37 36 36 34 34 33 33 32 32 31 31 30 30 30 30 30 29 29 28 28 29 29 29 29 29 29 29 30 30
38 38 38 39 39 39 39 39 39 38 38 38 37 36 36 35 34 33 32 31 31 30 30 29 29 29 29 29 29 29 28 28 28 28 28 28 29 29 29 30 30 31 31
37 37 37 37 37 37 38 38 37 37 36 36 35 34 34 33 33 32 31 31 30 30 29 28 28 28 28 28 28 28 28 28 28 29 29 30 30 30 30 30 31 32 32
36 36 36 36 36 36 36 36 36 36 35 34 33 33 32 32 31 30 30 30 30 29 28 28 28 28 28 28 28 28 28 29 29 29 30 30 30 31 31 32 33 33 34
36 36 36 36 36 36 36 35 35 34 34 33 32 32 31 31 30 30 30 30 29 28 28 28 28 28 28 28 29 29 29 30 30 30 30 31 32 32 33 34 34 35 36
37 36 36 36 36 36 35 35 34 34 33 32 31 31 31 31 30 30 30 30 29 29 28 28 28 29 29 30 30 30 30 31 31 31 32 33 33 34 35 35 36 36 37
37 37 36 36 36 35 35 34 34 33 33 32 32 32 32 31 31 31 31 31 31 30 30 30 30 30 31 31 31 31 32 32 33 33 34 34 35 35 36 37 37 38 38
38 37 37 36 36 35 35 34 33 33 33 32 32 32 32 32 32 32 31 31 31 31 31 32 32 32 32 32 33 33 33 34 35 36 36 36 37 37 38 38 38 39 39
39 38 38 37 36 36 35 35 34 33 33 32 32 33 33 33 33 33 33 33 32 33 33 33 33 34 34 34 34 35 35 36 37 37 38 38 38 38 38 39 39 39 39
40 39 39 38 37 37 36 36 35 35 34 34 33 34 34 34 33 33 33 33 33 34 34 35 35 36 36 36 36 37 37 38 38 38 38 38 38 38 39 39 39 39 39
40 40 40 39 38 38 38 37 36 36 35 35 35 35 35 35 34 34 34 34 34 34 35 35 36 36 37 37 38 38 38 38 38 38 38 38 38 38 39 39 39 39 39
41 40 40 40 39 39 38 38 37 36 36 35 35 35 35 34 34 34 34 35 35 35 35 35 36 36 37 38 38 38 38 38 37 37 38 38 38 38 38 38 39 39 39
40 40 40 39 39 39 39 38 37 36 36 36 35 35 35 35 34 34 35 35 36 36 36 36 36 36 37 37 37 37 36 36 36 37 37 37 37 37 38 38 39 39 39
38 39 39 39 38 38 37 37 36 36 36 36 36 36 35 35 35 35 35 35 35 35 35 35 35 35 35 35 35 35 35 35 35 35 36 36 37 37 37 38 39 39 40
36 37 37 37 37 37 36 36 35 35 35 35 34 34 34 34 34 34 34 34 34 34 35 35 35 34 34 35 35 35 34 34 34 35 36 36 37 38 38 39 39 40 41
36 36 36 36 35 35 35 34 34 34 33 33 33 33 33 33 33 34 34 33 34 34 33 33 33 33 33 33 34 34 34 34 34 35 36 37 38 39 39 40 40 41 42

GEFSGL_500_meanwind_084.txt.gz
Wind_Speed
41 41 42 43 44 44 45 45 46 47 47 48 48 49 49 49 50 50 51 51 51 52 51 51 52 52 52 51 51 51 50 50 49 48 47 47 47 46 45 44 43 41 40
41 42 43 44 45 46 46 47 47 48 49 49 50 50 50 51 51 52 52 52 51 51 51 51 51 51 51 51 50 50 49 49 48 47 46 46 46 45 43 42 41 39 38
43 43 44 45 46 47 47 48 49 49 50 50 51 51 51 51 51 51 51 51 50 51 51 51 50 50 50 49 49 48 48 47 46 45 44 44 43 42 41 40 38 37 36
44 45 46 47 47 47 48 48 49 49 50 50 50 50 49 49 49 48 48 48 48 48 48 48 48 48 48 48 47 46 46 45 44 44 42 42 41 40 39 38 37 36 34
46 46 47 47 48 48 48 48 48 49 49 48 48 47 47 47 46 46 46 46 46 46 47 47 48 48 47 46 46 45 45 44 43 42 41 40 39 38 37 37 35 34 33
46 46 47 47 47 47 46 46 47 47 46 46 46 46 46 46 46 46 46 45 45 46 46 46 45 45 45 45 44 44 43 42 41 40 39 38 37 36 35 35 33 32 31
47 47 47 47 47 47 47 46 46 46 46 46 45 45 45 45 45 45 45 44 45 45 44 44 44 43 43 42 42 41 41 40 39 38 37 36 35 34 33 33 32 31 30
47 47 47 47 47 47 47 47 47 46 46 45 45 45 45 45 45 45 45 45 45 45 44 44 43 42 41 41 40 39 38 37 36 35 34 34 33 32 32 31 30 30 29
47 48 48 48 48 48 47 47 47 47 46 45 45 45 45 45 45 45 45 45 45 44 44 43 42 41 40 39 37 36 35 34 34 33 32 32 31 30 30 30 29 29 28
48 48 48 48 48 48 48 48 47 47 46 46 46 46 46 45 45 45 45 44 44 43 43 42 41 40 38 37 36 34 33 32 32 31 30 30 29 29 29 29 28 28 28
48 48 48 48 48 48 48 47 47 46 46 46 46 46 45 45 45 45 44 43 43 42 41 40 38 37 35 34 34 32 31 31 30 29 29 29 28 28 28 28 28 27 27
47 47 47 48 48 48 47 47 46 46 46 46 45 45 44 44 44 43 43 42 41 40 39 37 36 34 34 33 32 32 31 30 29 29 28 28 27 27 28 27 27 27 27
46 47 47 47 47 47 46 46 46 46 45 45 44 44 44 43 43 42 41 40 39 38 37 36 35 33 33 32 32 31 30 30 29 29 28 27 27 27 27 27 28 28 28
46 46 46 46 46 46 46 45 45 45 44 44 44 43 42 42 41 40 39 39 38 37 36 34 34 33 32 31 31 30 30 29 29 28 28 28 27 28 28 28 29 29 29
46 45 45 45 45 45 45 45 45 44 43 43 43 43 42 41 41 40 39 38 37 36 35 34 33 33 32 32 31 30 30 29 30 29 29 29 29 30 30 30 30 31 31
45 45 44 44 44 44 44 44 44 44 44 43 42 42 42 41 40 40 39 38 37 35 34 33 33 33 32 32 31 31 30 30 30 30 30 30 31 31 31 31 32 32 33
45 45 44 44 44 44 44 44 44 44 43 42 42 41 40 40 40 39 38 37 36 35 33 33 33 33 32 32 32 32 31 31 31 31 32 32 32 33 33 33 34 34 34
45 46 46 45 44 44 44 44 44 43 42 42 41 41 40 39 39 38 37 36 34 34 33 33 33 33 33 33 33 32 32 32 32 32 32 33 33 34 34 35 35 35 35
45 44 45 45 45 44 44 44 44 43 43 42 41 40 40 39 38 38 37 35 34 33 33 33 33 33 33 33 32 32 32 32 32 32 32 33 34 34 35 36 37 37 37
44 44 45 45 45 44 44 44 44 44 44 43 41 41 40 39 38 37 36 35 34 34 33 33 34 34 33 33 33 33 33 33 33 33 34 34 35 36 36 37 37 37 37
43 44 44 44 44 44 44 44 44 44 43 42 41 40 40 39 38 37 36 36 35 34 34 34 34 34 34 34 34 34 35 35 35 35 35 36 37 37 37 37 37 37 37
42 42 42 43 43 44 44 44 43 43 42 41 40 39 39 39 38 38 37 37 36 36 35 35 34 34 34 34 34 35 35 35 36 36 37 37 37 37 37 37 37 37 37
40 40 40 40 41 41 42 42 42 41 41 40 40 39 39 38 38 38 37 37 37 36 35 35 34 34 34 34 34 35 35 35 36 37 37 37 37 37 37 36 36 37 37
39 39 39 39 40 40 40 40 40 39 38 38 39 39 38 38 37 37 36 36 36 35 35 35 34 34 34 34 34 34 34 35 35 36 36 36 36 36 36 36 36 37 37
38 38 38 38 38 39 39 39 39 39 38 37 37 37 37 37 37 36 36 35 35 35 34 34 34 34 34 34 34 34 34 35 35 35 35 35 35 35 35 35 36 37 37
37 37 37 37 37 38 38 38 38 38 37 36 35 35 35 36 36 35 35 35 34 34 34 33 33 33 33 34 34 34 34 34 34 34 34 34 34 34 35 35 36 37 37

GEFSGL_500_meanwind_090.txt.gz
Wind_Speed
30 31 32 32 32 33 34 34 35 35 36 36 37 37 38 40 41 42 42 44 44 44 45 45 46 46 46 47 47 47 47 48 47 47 47 47 46 46 45 44 44 43 42
31 32 33 34 35 36 37 37 37 38 38 40 41 41 41 42 43 43 44 45 46 46 47 46 46 46 47 47 47 47 47 46 46 45 45 45 45 44 44 43 43 42 41
34 34 35 37 37 38 39 40 41 42 42 43 44 44 44 44 45 45 45 45 45 46 46 46 46 46 46 46 46 45 45 45 45 44 44 43 43 43 43 42 41 41 40
36 37 37 38 39 40 41 42 43 44 44 45 45 46 45 45 45 45 46 46 45 45 45 45 45 45 45 44 44 44 44 44 43 43 43 42 42 42 41 41 40 39 38
40 41 42 43 43 43 44 45 46 46 46 47 47 47 47 47 47 46 46 46 45 45 45 44 44 44 43 43 43 43 43 42 42 42 42 41 41 40 39 38 38 37 36
43 44 45 46 47 47 47 48 48 48 48 48 48 48 48 48 47 47 46 46 45 44 44 44 43 43 43 43 42 42 42 41 41 41 41 40 39 38 37 36 35 34 33
46 47 48 48 49 50 50 50 49 49 49 49 49 48 48 47 47 46 46 46 45 44 44 44 43 43 42 42 42 42 41 41 40 40 39 38 37 36 35 34 33 32 31
47 48 49 50 50 51 51 50 50 50 50 49 49 49 48 47 47 47 46 46 45 45 45 44 43 42 42 42 41 41 41 40 39 38 38 36 35 35 34 33 32 31 30
49 50 50 51 51 52 51 51 51 50 50 50 49 49 48 48 48 47 47 46 46 45 45 44 44 43 42 41 41 41 40 39 38 37 36 35 34 33 32 31 30 30 29
51 52 52 52 52 52 52 51 51 51 50 50 50 49 49 48 48 47 47 46 46 46 45 44 44 43 42 41 41 40 39 38 37 35 34 33 32 32 31 30 29 28 27
54 54 55 54 54 54 53 52 52 51 51 51 51 50 49 49 48 48 47 46 46 45 45 44 43 42 41 41 40 39 38 37 36 35 34 32 31 31 30 29 28 27 26
55 56 56 55 55 54 54 53 52 52 52 51 50 50 49 48 48 47 47 46 45 45 44 43 42 41 40 39 39 38 38 36 35 34 33 32 31 30 30 29 27 26 26
54 55 55 55 55 54 54 53 52 52 51 51 51 50 49 49 48 47 47 46 45 44 43 42 41 40 39 39 38 38 37 36 35 34 33 32 30 30 29 28 27 27 26
54 54 54 53 53 52 52 52 52 51 50 50 50 49 49 49 48 48 47 47 46 45 43 42 41 40 39 39 38 37 36 35 34 33 32 31 30 29 29 28 27 27 27
53 53 53 53 53 52 51 51 50 50 49 49 49 49 48 48 48 48 46 45 45 44 43 42 41 41 40 38 37 36 36 35 34 32 32 31 30 29 29 29 28 28 27
52 52 52 52 52 52 51 50 49 49 49 49 48 48 48 48 47 47 46 45 44 44 43 42 41 40 39 38 37 36 35 34 34 33 32 31 31 30 29 29 29 29 29
51 50 50 50 50 50 50 50 49 48 48 48 47 47 47 46 46 46 46 45 44 44 43 42 41 40 39 38 37 37 35 35 34 33 33 32 31 31 30 30 30 30 29
48 48 48 48 48 48 48 48 48 48 48 47 46 46 46 46 46 46 46 45 44 43 42 41 41 40 39 39 38 37 36 35 34 33 33 32 32 32 32 31 31 31 31
47 47 46 46 46 46 46 46 46 47 47 47 47 46 46 46 46 46 46 44 43 42 41 40 40 40 39 38 38 37 36 35 34 34 33 33 33 33 32 32 32 32 32
46 46 45 44 44 44 44 44 45 45 46 46 46 46 46 46 46 45 45 44 43 41 40 40 39 39 38 38 37 37 36 35 35 34 34 34 33 32 32 32 33 33 33
45 45 45 43 43 43 43 43 43 44 44 45 45 45 45 45 45 45 44 44 43 42 41 40 39 39 38 37 37 36 36 35 35 34 34 33 33 33 33 33 34 34 34
43 43 43 43 42 41 41 41 42 42 43 43 44 45 45 44 44 44 43 43 42 42 41 40 39 38 38 37 37 36 36 35 34 34 34 34 33 33 34 34 34 35 35
40 40 39 39 39 39 39 39 39 40 40 41 42 43 43 43 43 43 43 43 42 42 41 40 38 37 37 37 36 36 36 35 35 35 34 35 35 35 35 35 35 36 36
37 37 36 35 35 36 36 36 37 37 38 39 40 40 41 41 41 41 41 41 41 40 40 39 38 37 37 36 36 36 36 36 36 35 35 35 35 35 35 36 36 36 36
36 35 34 34 33 33 32 32 33 35 36 37 38 39 39 39 39 38 39 39 39 38 38 38 37 36 35 35 35 35 35 35 35 35 35 35 35 35 36 36 36 36 36
35 34 33 31 30 29 28 29 30 31 32 34 36 36 36 37 37 37 37 37 36 36 36 36 37 36 35 35 35 34 34 34 34 35 35 35 35 35 35 36 36 36 37

GEFSGL_500_meanwind_096.txt.gz
Wind_Speed
15 15 17 21 24 27 30 30 31 32 33 35 37 38 40 42 43 43 42 41 42 43 43 42 41 40 40 40 41 41 42 42 43 44 45 46 47 48 48 47 47 47 47
12 13 15 18 21 24 26 29 31 33 34 35 36 37 38 40 40 41 41 41 41 43 44 43 42 43 43 43 43 44 45 45 46 46 46 47 47 47 46 46 46 46 46
13 15 16 17 19 23 26 29 30 32 33 34 35 36 37 38 39 39 40 40 41 42 43 44 44 44 44 45 45 46 47 47 47 47 47 46 46 45 45 45 45 45 45
15 17 19 20 22 23 25 27 30 31 32 34 35 36 38 39 40 41 43 44 44 44 45 46 46 46 46 46 46 47 47 47 48 47 46 45 45 45 45 44 43 43 42
19 21 23 25 26 28 30 32 33 34 36 37 38 40 41 42 44 45 46 47 48 48 48 48 48 48 47 48 48 47 47 47 47 46 45 45 44 44 43 43 42 41 41
24 26 27 29 31 33 35 36 38 39 41 43 44 44 45 46 48 49 49 50 50 49 49 49 50 50 49 48 48 47 46 46 46 45 45 44 44 44 43 42 41 40 40
28 30 32 34 36 39 40 42 43 44 45 46 47 48 49 50 50 51 51 51 51 51 50 50 50 49 49 48 47 47 46 46 46 45 45 44 44 43 42 41 40 40 39
32 34 37 39 41 43 45 46 47 49 50 50 51 51 52 52 53 53 52 52 51 51 51 50 49 49 49 49 47 47 46 46 45 45 44 44 44 43 42 40 40 39 38
37 40 42 45 47 48 50 51 52 52 53 53 54 54 54 54 54 54 53 53 52 51 51 51 51 50 49 49 48 48 47 46 45 45 44 44 43 42 41 40 39 38 37
41 44 47 49 51 52 54 55 55 56 56 56 55 54 54 54 54 54 53 53 52 52 52 51 51 50 50 49 48 48 48 46 46 45 44 43 42 41 40 39 38 37 36
46 48 50 52 54 56 57 57 58 58 57 56 56 55 55 54 54 53 53 53 53 53 53 52 51 50 50 49 49 48 47 46 45 44 43 42 41 40 39 38 37 36 35
49 52 54 56 58 59 59 60 60 59 59 58 56 55 54 54 53 53 53 52 53 53 53 52 52 51 50 49 49 47 46 45 44 43 42 41 40 39 38 37 36 35 34
53 55 57 59 61 62 62 62 61 60 58 57 56 55 54 53 53 53 53 53 53 53 52 53 52 52 51 49 49 47 46 45 43 42 41 41 39 38 37 36 35 34 33
57 58 60 61 62 63 63 62 61 60 59 57 56 54 54 53 53 53 53 53 54 53 52 52 51 51 51 49 48 47 46 45 44 42 41 40 39 38 36 36 35 34 32
60 61 61 61 62 62 61 60 59 58 58 56 55 54 52 51 51 52 52 52 52 52 52 51 50 49 48 48 47 47 45 44 43 41 40 40 39 37 36 35 34 33 32
60 60 61 61 61 60 59 58 57 56 55 55 54 52 50 50 50 50 51 51 51 51 51 50 50 49 48 47 46 45 44 43 41 40 39 39 38 37 36 35 34 33 32
59 60 60 60 60 58 57 57 56 55 55 53 52 50 48 47 47 48 49 50 51 51 50 49 48 47 46 45 44 43 43 42 40 39 39 38 37 36 35 34 33 33 32
59 59 59 58 57 56 55 55 55 53 52 51 50 49 48 46 45 45 46 48 50 50 49 48 47 46 44 43 42 42 42 41 40 39 39 38 37 36 35 34 34 33 32
58 57 56 55 54 53 53 53 52 50 49 47 46 46 45 45 44 44 45 46 47 48 48 46 46 44 44 42 41 41 40 40 39 39 38 37 36 35 35 34 34 33 33
56 55 54 52 51 51 50 50 48 46 45 43 42 41 41 42 41 42 43 43 45 46 46 46 45 44 43 42 41 41 40 39 38 38 37 36 36 35 35 34 34 33 33
54 52 51 50 49 48 47 45 43 41 40 39 39 39 39 39 39 40 40 41 42 43 44 44 44 44 43 41 41 40 39 38 37 37 36 36 35 35 34 34 34 33 33
52 50 48 47 46 44 42 39 38 37 36 36 36 36 36 37 37 38 38 39 40 41 41 41 42 42 42 41 40 39 39 37 36 36 35 35 35 35 35 34 34 33 33
50 48 45 43 41 39 37 35 33 32 32 33 32 32 33 34 35 35 36 37 38 39 39 39 39 40 39 39 39 38 38 37 36 35 35 35 35 35 35 34 34 34 33
48 45 42 40 37 35 33 32 31 30 29 28 28 28 28 29 31 32 33 34 36 37 38 37 38 39 38 38 37 37 36 36 36 35 35 35 35 34 34 34 34 34 34
45 42 38 36 34 32 31 29 28 27 26 25 24 24 25 26 27 29 30 32 34 35 36 35 36 37 37 37 37 36 35 35 35 35 35 34 34 34 34 34 34 34 34
42 39 36 34 31 30 28 27 26 24 23 23 22 22 21 22 23 25 28 30 32 33 34 34 34 34 35 35 35 35 35 35 34 34 34 34 33 33 33 34 34 34 34

GEFSGL_500_meanwind_102.txt.gz
Wind_Speed
16 19 23 25 27 29 30 31 32 32 33 34 36 38 40 41 44 45 46 46 47 48 48 48 48 48 48 49 50 50 51 51 49 47 47 47 47 46 46 46 47 47 47
14 15 19 22 23 24 26 28 29 31 32 34 35 37 39 41 43 44 46 47 47 47 48 48 48 49 50 51 52 51 50 50 49 50 49 49 48 48 48 48 48 49 48
12 14 15 17 20 22 23 25 28 29 31 33 35 37 39 40 41 43 45 47 48 50 51 51 52 53 53 53 53 51 51 50 50 51 51 50 50 50 50 50 50 49 49
9 10 11 13 15 18 19 21 24 28 30 33 36 38 40 42 43 45 47 48 49 50 52 53 52 52 52 53 53 52 52 52 52 52 51 51 51 51 51 51 50 49 48
6 7 8 10 13 15 17 20 23 26 29 32 35 37 39 41 44 45 47 47 48 49 50 51 52 53 53 53 54 54 54 54 53 53 53 52 51 51 51 51 50 49 48
6 7 9 11 13 16 19 21 23 26 29 32 35 38 40 42 44 46 48 49 50 51 52 54 54 55 56 56 57 57 57 56 56 56 55 54 53 52 52 51 49 48 47
7 10 12 15 17 20 23 25 27 30 32 35 38 41 44 45 47 48 50 52 53 54 54 55 55 57 58 58 59 60 59 59 58 57 56 56 54 53 52 50 49 48 47
14 16 18 21 24 26 29 31 33 35 37 39 42 45 47 49 51 51 52 54 54 55 56 57 57 58 60 60 61 61 60 60 59 58 57 56 54 53 52 51 50 48 47
20 22 25 27 30 32 35 37 40 42 44 46 48 50 52 54 56 56 57 57 58 58 59 59 60 60 61 62 62 62 62 61 61 59 58 55 53 52 51 50 49 48 46
25 27 30 32 35 38 41 43 46 49 51 53 54 55 57 58 58 59 60 61 60 60 60 60 61 62 63 63 63 62 62 61 60 59 58 56 54 52 51 49 48 47 46
30 32 35 38 41 43 46 49 52 54 57 59 60 60 60 61 61 62 62 63 62 62 61 61 61 62 63 63 62 61 61 60 59 58 57 56 54 52 50 49 48 46 45
35 37 40 43 46 49 52 55 57 60 62 63 64 64 64 64 64 64 64 63 63 63 61 61 60 61 62 62 62 61 60 59 58 57 56 55 53 52 51 49 48 47 45
39 42 45 48 51 54 57 60 62 64 65 65 66 66 65 65 65 65 64 62 62 62 61 60 60 60 60 60 61 61 60 58 57 56 55 54 52 51 50 48 47 45 44
44 46 49 52 55 58 61 63 65 66 66 66 66 66 65 64 63 63 62 61 61 61 60 60 59 59 58 58 59 59 59 58 57 56 55 53 51 50 48 47 45 44 43
49 52 54 57 59 61 63 64 64 64 65 65 64 64 63 61 60 60 60 59 59 60 59 59 58 57 57 57 57 57 56 55 55 54 53 52 51 49 47 45 44 44 42
54 56 59 61 62 63 63 62 62 61 61 62 61 61 60 59 58 58 57 57 56 56 56 55 55 55 54 54 55 55 54 52 52 51 50 49 48 47 46 45 43 42 41
58 59 61 62 62 62 61 60 58 58 58 58 58 57 57 56 56 56 55 53 53 53 52 51 51 52 52 51 52 52 53 51 50 49 48 46 45 45 44 43 41 41 40
60 61 61 61 61 60 59 58 57 55 55 55 56 56 55 54 53 53 52 50 48 49 49 48 48 48 48 49 49 49 49 49 48 46 45 44 43 42 42 42 41 40 39
60 60 60 60 60 59 57 56 55 54 53 52 52 52 52 50 49 48 47 46 45 44 45 45 45 45 45 46 46 46 47 47 46 44 42 41 41 41 40 40 39 38 37
60 60 59 59 58 57 55 54 53 52 51 50 49 48 46 45 43 42 41 41 40 40 41 42 42 43 43 44 44 44 45 44 43 42 42 41 41 40 39 38 37 36 36
59 59 58 58 56 55 53 52 51 50 49 47 46 44 42 40 38 36 35 35 35 35 36 38 39 40 41 42 42 42 41 41 41 41 40 40 39 39 38 37 37 36 36
58 58 57 56 55 53 52 50 49 47 45 44 42 40 38 35 33 32 31 31 31 31 32 33 35 36 37 38 39 39 39 39 40 39 38 38 38 38 38 37 36 35 35
57 57 56 55 53 51 50 48 46 43 41 39 36 34 33 31 29 27 27 27 27 27 28 30 32 33 33 34 35 36 37 37 38 38 37 37 37 36 36 35 35 34 34
57 56 55 52 50 49 47 45 43 40 37 34 32 31 29 27 25 24 23 23 23 25 26 27 29 31 31 31 32 34 35 36 36 37 36 35 35 35 34 34 34 34 33
56 55 53 50 48 47 45 42 39 36 33 31 29 27 25 24 22 21 20 20 20 21 22 24 26 28 30 30 30 32 33 35 36 36 36 35 34 34 33 33 33 33 33
55 53 51 49 46 44 42 39 35 33 30 28 26 24 22 20 19 17 16 16 16 17 18 21 24 26 27 29 30 31 32 33 34 34 34 34 34 33 33 33 32 32 32

GEFSGL_500_meanwind_108.txt.gz
Wind_Speed
15 19 22 25 27 31 35 37 39 41 43 43 43 43 44 44 45 46 47 48 47 47 48 50 51 51 51 51 52 53 52 52 52 51 50 49 49 50 50 50 50 50 51
12 15 17 19 21 24 29 31 34 37 38 40 40 40 41 42 44 45 46 46 46 47 48 49 51 51 52 53 55 55 54 53 53 52 52 52 51 51 51 52 51 52 53
7 9 11 13 15 17 21 26 30 32 33 33 34 35 37 39 41 42 43 45 46 47 48 50 51 52 53 54 55 55 55 54 55 54 53 53 52 52 53 53 53 54 54
5 7 8 10 12 14 17 20 23 26 28 29 31 33 35 36 39 41 43 45 45 46 48 51 52 53 54 55 56 56 56 56 57 56 55 54 55 55 55 55 55 55 55
4 5 7 9 12 14 16 18 20 23 26 27 29 31 34 36 38 40 42 44 45 47 50 52 53 53 55 56 57 58 58 59 59 59 58 57 57 58 58 58 57 55 55
2 4 7 9 11 14 16 18 20 23 25 28 30 32 35 37 39 42 44 46 47 49 51 53 54 56 58 58 60 60 61 60 60 60 60 60 59 59 60 59 57 56 55
2 4 6 9 11 14 17 20 22 24 26 28 30 33 35 38 41 43 45 47 49 51 54 56 57 59 61 61 62 62 63 63 63 62 62 61 60 60 60 60 59 59 57
5 6 8 10 13 15 18 21 24 26 28 30 33 35 38 41 44 46 48 50 52 55 57 59 61 62 63 64 64 65 65 65 66 65 64 63 63 64 63 61 61 61 60
11 12 14 16 18 20 22 25 28 31 34 36 37 40 42 45 48 50 53 55 57 60 62 64 65 66 67 68 68 69 68 69 69 68 67 67 67 66 64 63 62 61 59
17 18 20 22 24 26 28 30 33 36 39 42 44 46 48 50 53 56 58 60 62 63 64 65 66 67 68 69 70 70 69 69 69 69 69 68 67 66 65 63 61 60 58
22 23 24 26 28 30 32 34 37 40 43 46 49 51 54 56 58 59 62 63 65 66 66 67 68 69 69 69 69 69 69 70 71 71 70 68 66 65 64 62 60 58 56
26 27 29 30 32 35 37 39 42 45 48 51 54 56 59 61 62 62 64 65 67 67 67 68 68 68 69 68 68 68 69 70 69 69 68 66 64 62 61 60 59 58 57
29 31 33 35 38 40 43 45 48 50 53 55 58 60 62 63 65 66 66 66 67 66 65 65 65 65 65 65 65 66 67 67 67 66 64 62 60 59 58 58 58 56 54
34 36 38 41 43 45 48 50 52 54 56 57 59 61 63 65 66 67 67 66 65 64 64 63 62 62 61 61 61 63 64 64 63 62 61 60 59 58 56 55 54 52 50
39 40 42 45 47 49 52 54 55 56 58 59 61 63 64 64 65 65 64 64 63 63 62 61 59 58 58 58 58 59 59 59 58 58 57 57 56 54 53 51 50 49 47
42 44 46 49 51 53 54 55 57 58 60 61 62 63 63 63 62 61 61 61 61 61 60 58 57 56 55 55 55 54 54 53 53 53 52 51 51 50 48 47 46 45 45
46 49 51 53 54 55 56 56 57 59 61 61 61 61 61 60 59 58 58 58 57 57 57 55 54 53 52 51 50 49 48 48 48 47 47 46 46 45 44 43 42 42 42
50 52 53 55 55 56 57 58 59 59 59 59 60 60 59 58 56 55 55 54 53 53 53 52 51 50 49 47 45 43 42 42 42 42 42 42 41 41 41 40 39 39 38
52 54 55 56 57 58 58 59 59 59 59 58 58 58 56 54 53 52 51 50 49 48 47 46 45 43 41 40 38 37 37 37 38 38 38 38 38 38 38 37 37 37 37
54 55 56 57 58 59 59 59 59 59 58 57 56 55 53 51 50 48 46 45 45 44 42 40 38 36 35 34 33 33 33 34 34 34 33 35 36 36 35 35 35 35 36
55 57 57 58 59 59 59 59 58 58 57 55 54 52 50 48 46 43 42 41 40 38 36 34 32 31 30 30 30 29 29 29 29 30 31 32 33 33 33 34 34 34 34
56 57 58 59 59 59 58 58 57 57 55 53 51 49 47 44 42 40 38 36 34 33 31 30 28 27 26 26 25 26 26 26 27 27 28 30 31 32 32 33 33 34 33
56 57 58 59 59 58 57 56 56 55 53 50 48 45 43 40 38 36 33 31 30 28 27 25 23 21 21 21 21 21 22 23 24 26 27 28 30 32 32 32 33 33 32
57 58 58 58 57 56 55 54 53 52 50 47 45 42 39 36 34 32 29 27 26 24 22 21 19 18 17 17 18 18 19 21 23 24 25 27 28 30 30 30 31 31 31
57 58 58 57 56 55 53 52 50 49 47 44 42 38 35 32 30 28 25 23 21 20 18 17 16 15 15 15 15 17 19 20 21 23 24 26 27 28 28 29 30 30 30
56 57 57 56 54 52 51 49 47 46 44 41 37 34 31 29 27 24 22 20 19 17 15 14 14 13 13 14 14 16 17 19 20 21 23 25 26 27 28 28 28 28 28

GEFSGL_500_meanwind_114.txt.gz
Wind_Speed
8 11 15 19 21 24 28 32 36 39 41 43 44 46 48 49 51 54 55 56 55 53 53 53 55 54 54 53 53 55 55 55 57 56 55 53 53 53 54 53 52 52 51
7 8 10 13 15 18 21 25 30 34 36 39 41 43 45 46 48 50 52 53 54 52 51 51 52 52 52 52 54 56 57 58 59 58 57 56 56 56 56 56 55 54 53
4 6 8 10 12 14 17 19 23 27 31 34 37 39 41 44 45 47 48 50 51 51 50 50 51 52 53 54 56 57 58 59 60 59 58 57 58 58 58 58 56 55 54
3 4 5 6 9 10 14 16 19 23 25 28 32 35 37 39 42 44 45 46 47 48 49 51 52 54 55 55 56 57 58 57 58 59 59 59 59 59 59 58 56 55 55
5 3 3 3 4 6 9 12 15 19 23 25 28 31 33 36 38 40 41 43 46 47 49 51 53 54 55 56 57 58 58 59 60 60 60 60 60 60 60 59 58 58 57
7 6 6 5 5 6 7 9 12 16 19 22 25 29 31 34 36 38 41 43 46 48 50 51 52 53 55 55 56 58 59 60 61 61 62 62 62 62 62 62 62 61 60
9 8 8 8 8 9 9 11 13 15 18 20 23 27 29 32 34 37 39 42 45 48 49 51 53 54 55 57 58 60 60 61 62 63 64 63 64 64 64 64 64 64 62
11 11 11 11 12 13 14 15 17 18 20 23 26 29 32 35 37 39 41 43 45 47 50 52 54 56 58 59 61 62 62 63 65 66 67 66 66 66 66 66 65 65 65
13 13 14 15 16 16 17 18 20 22 23 26 29 32 35 37 39 41 43 45 47 49 51 54 56 58 60 62 64 65 66 67 67 68 69 69 68 68 69 69 69 68 67
16 16 17 18 20 21 21 22 24 25 27 29 32 34 36 39 41 43 46 48 50 52 54 55 58 60 62 64 65 66 67 67 67 67 68 69 68 69 69 69 69 69 68
19 20 21 22 23 24 25 26 27 29 31 34 35 37 39 41 43 46 48 51 53 55 56 58 60 62 64 66 67 67 67 67 67 67 67 67 68 68 67 67 67 67 67
22 23 24 25 26 28 29 31 32 34 36 37 39 41 42 44 46 48 50 53 56 58 59 60 61 63 65 66 67 68 67 67 66 67 67 67 68 68 67 66 65 65 65
26 27 28 30 31 32 34 35 37 38 40 42 43 45 46 48 49 51 53 54 56 58 60 61 62 63 64 65 66 67 67 67 66 66 66 66 66 65 65 64 64 64 63
30 31 32 33 35 37 38 40 41 43 44 45 47 48 49 50 51 52 53 55 56 58 59 60 61 62 63 64 64 65 65 65 65 65 64 63 63 62 61 61 60 60 59
33 34 35 37 39 41 42 44 45 46 47 48 49 50 51 52 52 53 53 54 55 56 58 59 60 60 61 61 61 61 60 60 60 59 59 58 58 58 58 57 57 56 56
36 38 39 41 43 44 45 47 48 50 50 51 51 52 52 53 52 52 53 54 55 56 57 58 58 57 57 57 57 57 56 56 55 55 54 54 54 53 52 51 50 50 50
39 41 42 44 45 47 48 49 50 51 52 52 52 53 53 52 52 53 53 54 55 55 55 54 54 54 53 52 52 52 52 51 51 50 48 48 47 46 45 45 45 45 44
42 43 45 46 48 49 50 51 51 51 52 52 53 53 52 52 53 53 53 54 54 53 52 51 50 50 49 48 47 46 46 46 45 44 42 41 41 40 39 40 40 41 42
44 45 47 48 50 51 51 52 52 52 52 52 52 52 52 52 53 53 53 52 51 51 50 48 47 45 44 43 42 41 40 39 39 38 37 35 36 36 35 34 35 36 38
45 46 48 49 50 51 52 52 53 52 52 51 51 51 51 52 52 51 51 50 49 48 46 44 42 40 39 38 38 37 35 34 33 32 32 31 31 31 31 31 30 31 32
46 47 49 50 51 52 52 53 53 52 51 51 51 51 51 51 51 50 49 48 46 44 41 38 37 35 34 34 33 32 31 30 29 29 28 27 27 27 27 28 28 29 30
48 49 51 52 52 53 53 53 52 51 51 50 50 50 50 50 49 48 46 44 41 38 36 34 32 31 31 30 29 28 28 27 26 25 25 24 24 25 25 25 26 27 28
49 50 51 52 52 53 53 52 52 51 50 50 49 49 49 48 47 45 42 39 36 33 31 30 29 29 28 27 25 25 24 23 22 21 21 21 21 22 23 23 24 26 26
49 50 51 52 52 52 52 52 51 50 49 48 48 47 46 45 43 40 37 34 32 30 28 27 27 26 25 24 23 22 21 20 19 18 18 18 18 19 21 22 24 25 26
49 50 51 51 52 52 51 50 49 48 47 45 45 44 43 40 38 35 32 30 28 27 26 25 25 24 23 22 21 19 18 17 16 16 16 16 17 18 19 21 23 25 26
49 49 50 50 50 50 49 48 47 45 43 43 42 41 38 36 33 30 28 27 25 25 25 24 23 22 20 19 18 17 16 15 14 13 14 14 14 16 18 19 21 23 24

GEFSGL_500_meanwind_120.txt.gz
Wind_Speed
14 16 20 22 24 26 27 29 30 32 34 36 38 38 40 41 42 43 45 48 50 52 52 53 55 54 54 55 55 56 57 56 55 53 53 54 54 54 55 54 53 53 53
11 11 11 13 15 18 21 23 25 27 30 32 33 35 37 38 39 41 42 45 48 50 51 51 52 54 54 54 55 56 56 56 55 55 55 56 57 56 56 55 55 55 55
11 11 10 10 11 12 14 16 18 21 23 26 28 30 32 34 36 37 39 42 44 46 48 49 51 52 54 54 54 56 57 56 55 55 57 58 58 58 56 56 57 57 56
12 11 11 11 10 10 11 12 14 17 19 21 23 26 28 31 33 35 36 38 40 42 44 46 49 51 52 54 55 56 56 56 57 57 57 58 58 58 58 58 59 58 58
12 12 11 11 10 9 10 11 12 14 16 18 20 22 24 26 29 31 32 34 36 39 42 45 48 51 52 53 54 55 55 56 57 59 59 58 59 59 60 60 60 60 59
13 12 11 11 10 10 11 11 12 14 15 16 17 19 21 24 27 29 30 32 35 37 39 42 44 46 48 50 52 54 55 56 57 59 59 59 60 61 61 61 60 61 60
13 12 12 12 12 11 12 13 13 14 16 18 18 20 22 23 25 27 29 32 34 36 38 40 42 44 46 48 51 53 55 57 59 58 60 60 60 60 61 61 61 62 61
14 13 13 13 14 14 14 14 15 17 18 19 20 21 23 24 26 28 30 32 34 37 39 42 44 47 49 51 52 53 55 58 59 60 60 61 61 61 61 60 61 61 60
16 15 15 15 15 16 17 17 18 19 20 21 22 24 25 27 29 31 33 34 37 39 42 45 47 49 51 53 54 54 55 57 58 58 60 60 61 61 62 62 61 61 61
17 17 18 18 19 19 20 20 22 23 23 24 25 27 29 31 33 34 36 37 39 41 43 46 48 50 51 52 54 56 57 57 58 58 58 59 60 60 61 62 62 61 61
20 20 20 21 21 22 23 24 25 26 27 28 29 31 32 34 35 37 39 40 42 43 45 46 47 49 51 53 54 55 55 56 57 58 59 60 61 61 60 60 61 61 60
23 23 24 24 25 26 27 27 28 29 31 32 33 35 36 37 39 40 42 43 45 46 46 47 49 50 51 52 53 54 55 56 57 59 60 61 61 61 60 59 59 60 59
26 26 27 28 28 29 30 31 32 34 35 35 37 38 40 41 42 44 45 46 47 48 48 48 49 50 51 51 52 53 55 56 57 58 59 60 60 60 60 59 58 57 57
29 30 31 31 32 33 33 35 36 37 38 39 40 41 43 44 45 46 48 48 48 48 48 48 48 49 50 51 52 52 54 55 57 58 58 58 58 58 56 56 56 55 54
32 33 34 34 35 36 37 38 39 40 41 42 43 44 45 46 47 48 49 49 49 48 48 48 49 49 50 51 52 53 54 55 55 55 55 54 54 53 53 52 53 52 52
35 36 37 37 38 39 40 41 42 43 44 45 45 46 47 49 49 50 50 49 49 49 48 48 49 50 50 51 52 53 53 52 52 51 50 50 49 49 48 49 49 49 48
37 38 39 40 40 41 42 43 44 45 46 47 47 48 49 50 50 50 49 49 49 48 48 48 49 49 50 50 50 50 49 48 47 45 44 44 44 44 44 44 44 44 44
38 39 40 41 42 43 44 45 46 46 47 48 49 49 50 50 50 50 49 49 48 48 48 48 48 48 48 48 47 46 44 43 42 40 39 39 39 39 39 40 39 40 39
40 40 41 42 43 45 45 46 47 47 48 48 49 50 50 51 51 50 49 48 48 48 48 47 47 47 46 45 43 42 40 39 37 36 35 35 34 34 35 35 35 34 34
41 41 42 43 44 45 46 47 47 48 48 49 49 49 50 50 50 49 49 48 48 47 46 46 45 44 43 41 39 38 37 35 34 33 32 31 31 30 29 29 29 29 29
42 42 43 44 45 46 46 47 47 48 49 49 50 50 50 50 49 48 47 47 46 46 44 43 42 41 39 37 36 35 34 32 31 30 29 29 28 26 25 25 24 24 24
42 43 44 45 46 47 47 48 48 49 49 49 50 50 50 49 48 47 46 45 44 43 41 40 38 37 36 34 33 32 31 29 28 26 26 25 24 23 22 21 20 19 18
43 44 45 46 47 48 48 48 48 49 49 49 49 48 48 47 46 45 44 42 41 40 38 36 35 34 33 33 31 29 27 25 24 23 22 21 20 19 18 17 16 16 15
44 44 45 46 47 47 48 48 48 47 48 47 46 46 45 44 44 42 41 39 37 36 34 32 32 31 31 29 28 26 24 22 21 19 19 18 17 17 15 14 14 13 13
44 45 45 46 47 47 47 46 46 45 45 44 43 43 42 42 41 39 37 35 34 32 30 29 29 29 28 27 25 24 22 20 19 18 17 16 15 14 13 12 11 11 12
44 44 45 45 45 46 45 44 43 42 41 41 40 40 40 40 38 37 35 33 30 29 28 27 27 26 26 24 23 21 20 18 17 16 14 13 12 11 10 10 9 10 10

GEFSGL_500_meanwind_126.txt.gz
Wind_Speed
20 21 22 23 24 25 26 28 29 31 32 32 34 35 37 37 39 41 43 44 45 46 47 47 48 50 51 52 52 54 55 57 58 57 57 57 56 56 55 55 56 55 55
17 17 17 18 20 21 23 24 25 27 28 29 30 32 33 34 35 37 39 41 43 44 46 46 47 48 49 51 52 54 55 57 58 58 58 59 59 58 58 58 58 57 57
14 15 15 16 16 18 19 20 21 23 24 25 26 27 28 30 32 34 35 37 39 41 43 45 46 46 48 49 51 53 53 55 57 57 58 59 59 59 59 60 59 58 58
13 13 14 15 16 17 17 17 18 19 20 21 22 23 25 27 29 32 34 36 37 39 41 43 44 46 47 49 50 51 52 53 54 55 57 57 59 59 59 60 60 60 59
13 13 15 16 16 17 16 17 17 17 18 19 20 21 23 24 26 29 31 34 36 38 40 42 43 45 46 47 48 50 51 52 54 55 56 57 58 59 60 60 60 60 60
13 14 15 16 17 17 17 17 18 18 18 19 20 21 23 24 26 28 31 33 35 37 38 40 41 42 44 45 47 49 50 52 53 54 55 57 58 59 59 60 60 61 61
15 16 16 17 17 17 17 18 18 19 19 20 22 23 24 25 26 28 30 32 34 36 38 39 40 41 43 44 45 47 49 50 52 53 54 54 55 57 58 59 61 61 61
16 17 17 18 18 19 19 19 20 20 21 22 23 24 25 27 28 29 31 32 34 35 37 39 40 42 43 44 46 47 48 49 51 53 54 56 57 58 59 60 61 62 62
18 19 20 20 21 21 21 22 22 23 23 24 25 25 26 28 29 30 31 32 33 35 36 38 40 42 43 45 46 47 48 50 52 54 55 56 57 59 60 61 62 63 63
19 20 21 22 22 23 23 24 25 25 26 27 27 28 29 30 30 31 32 33 35 36 37 39 41 42 43 44 46 48 50 51 53 55 56 56 58 58 60 62 63 62 62
22 23 23 24 24 25 26 27 27 28 29 30 29 30 30 31 32 33 34 35 36 37 38 40 41 43 44 45 47 48 49 51 52 54 55 56 56 57 58 60 62 63 61
25 25 26 26 27 28 29 30 31 31 32 32 32 32 32 33 34 35 36 37 38 39 40 41 42 43 44 45 46 47 48 49 50 52 53 54 55 55 56 57 58 60 59
27 27 28 28 29 30 31 32 33 33 34 34 34 34 35 36 37 38 39 40 41 42 42 43 44 44 45 46 46 47 48 49 50 51 52 53 53 54 55 56 56 56 56
30 30 31 31 32 33 34 34 35 35 36 36 36 37 37 38 39 40 41 42 43 43 43 44 45 45 46 46 46 47 48 49 50 50 51 52 53 53 54 54 54 54 53
32 33 33 34 34 35 36 36 37 37 37 37 38 38 40 40 42 43 43 44 44 44 45 45 46 46 46 47 47 48 48 49 50 50 50 50 51 52 53 53 53 53 52
33 34 35 35 36 36 37 37 38 39 39 39 40 41 42 43 44 45 45 46 46 46 46 46 46 46 46 47 47 48 48 49 49 49 49 49 49 50 50 50 49 48 48
34 35 36 36 37 38 39 40 40 40 41 42 43 43 44 45 45 45 45 46 46 45 46 46 46 46 46 46 47 47 48 48 48 47 47 47 46 46 45 44 44 43 42
36 37 37 38 39 40 41 41 42 42 43 43 43 44 44 45 45 45 46 46 46 46 46 46 46 45 45 46 46 46 45 44 44 44 44 43 42 41 39 38 38 37 37
37 38 39 40 40 41 42 43 43 43 43 43 44 44 45 46 46 46 46 46 45 46 46 46 45 45 44 44 44 43 42 41 40 40 39 39 38 36 35 33 32 32 32
38 39 40 40 41 42 43 43 43 43 43 43 44 45 45 45 45 45 45 45 45 45 45 44 43 42 41 40 40 39 38 38 37 37 36 34 32 31 29 29 28 28 28
39 40 40 40 41 42 43 43 43 43 43 43 44 45 45 44 44 44 44 43 43 42 42 41 40 39 38 37 37 36 35 35 34 33 32 30 28 27 26 25 24 24 24
40 40 40 41 42 43 43 42 42 42 43 43 43 43 43 43 42 42 41 41 41 41 40 38 37 36 35 35 34 33 33 32 31 29 28 26 25 24 23 21 21 20 20
39 40 40 41 42 42 41 41 42 42 42 42 41 41 41 40 40 39 39 39 39 38 37 36 34 33 32 32 31 30 29 28 27 26 24 23 22 20 19 19 18 18 18
39 40 40 41 41 40 40 41 41 41 41 41 40 39 38 38 37 37 37 37 37 36 35 33 31 30 30 29 28 27 26 25 24 23 21 20 18 17 16 16 16 16 16
39 40 40 40 40 40 40 40 40 40 39 38 37 36 36 35 35 35 36 36 35 34 32 30 29 28 27 26 26 25 24 23 21 20 19 17 16 15 14 13 13 13 14
39 40 40 40 40 40 39 39 39 39 37 36 35 34 34 34 34 35 35 34 33 31 30 29 28 26 25 25 24 23 22 21 20 18 17 15 14 13 12 11 11 11 11

GEFSGL_500_meanwind_132.txt.gz
Wind_Speed
27 28 28 29 29 30 30 31 31 32 33 33 34 34 35 36 38 39 40 41 42 42 43 43 44 46 48 49 50 50 51 51 52 52 52 53 55 56 57 57 58 60 60
26 26 27 28 28 29 29 29 29 30 31 31 32 32 33 34 35 36 38 38 39 40 41 41 42 43 44 45 47 49 50 51 52 52 52 53 54 55 57 58 60 61 61
23 24 25 26 26 27 27 28 28 29 30 30 30 31 32 32 33 35 36 36 37 38 39 40 41 42 42 43 45 46 48 50 51 52 52 54 55 56 58 59 59 60 61
21 22 23 23 24 25 26 27 27 28 28 28 28 29 30 30 32 33 34 35 36 37 38 39 40 41 42 44 45 47 49 50 50 51 52 53 54 55 56 57 58 59 60
21 22 22 23 24 25 26 26 27 26 26 27 27 28 29 30 31 33 34 35 35 36 37 38 40 41 42 44 45 46 48 49 50 51 52 53 53 54 55 56 57 57 58
22 22 23 24 25 25 26 26 26 27 27 28 29 29 30 31 32 33 34 34 34 35 36 37 39 40 41 43 44 46 47 47 49 51 52 53 53 54 55 56 56 56 56
22 23 24 24 25 26 26 27 27 27 28 29 30 31 32 33 34 34 35 35 35 36 37 38 40 41 43 44 45 46 47 48 49 50 50 52 53 54 55 55 55 55 56
22 23 23 24 24 25 26 27 28 29 30 31 32 32 33 34 35 36 36 36 37 37 38 39 40 41 42 44 45 45 46 47 48 49 50 51 51 52 53 54 55 56 57
24 24 24 25 26 26 27 28 29 30 31 32 32 33 34 35 36 37 37 37 37 38 39 39 40 41 42 43 43 44 45 46 47 49 50 51 51 52 53 54 55 56 57
26 27 27 27 28 28 28 29 30 31 32 33 34 35 36 36 37 37 38 38 38 38 39 40 41 42 43 43 44 44 45 46 47 48 50 51 52 53 54 54 55 56 56
28 29 29 29 29 30 30 31 32 33 33 34 35 36 37 37 38 38 38 38 38 39 40 41 42 43 44 44 44 45 46 46 46 48 49 50 52 53 53 54 55 55 55
31 31 31 32 32 32 33 33 34 34 35 35 36 37 38 38 38 39 39 39 40 41 41 42 43 43 43 43 44 45 46 46 47 48 49 50 51 52 53 53 54 54 54
33 33 34 34 34 34 35 35 35 35 36 37 38 39 39 39 40 40 40 41 41 42 42 43 43 43 43 44 45 45 46 47 48 48 49 50 51 51 51 51 52 52 51
35 35 36 36 36 36 36 36 37 37 38 38 39 39 40 40 41 41 41 42 42 43 43 43 44 44 44 45 46 46 47 48 48 48 48 49 49 49 49 50 51 51 51
36 36 37 37 37 37 37 38 38 39 39 40 40 41 41 42 42 42 42 43 43 43 43 43 44 44 45 46 46 47 48 48 48 48 48 48 48 49 49 49 50 51 50
37 37 37 37 37 37 38 39 39 39 40 41 41 42 43 43 43 43 43 43 43 43 44 44 45 45 45 45 45 46 46 46 46 46 47 47 47 47 47 47 47 47 46
37 37 37 37 37 37 38 39 39 40 41 42 43 44 44 43 43 43 43 43 44 44 45 45 46 45 45 45 44 44 44 45 45 45 45 44 43 43 43 42 41 41 40
37 37 36 36 37 38 38 39 40 40 42 43 44 44 43 43 43 43 43 44 44 44 44 45 44 44 44 43 43 43 43 43 43 42 41 40 40 40 39 38 37 36 34
37 37 37 37 37 38 39 39 40 41 42 43 44 44 43 42 42 42 43 43 43 43 43 43 42 42 42 42 41 41 41 40 39 38 37 37 37 37 36 35 33 32 31
36 37 37 37 38 39 39 40 41 42 43 43 43 42 41 41 41 41 42 41 41 41 41 41 41 41 40 40 38 38 37 36 35 35 35 35 34 33 32 31 30 29 28
37 37 37 38 38 39 40 40 41 41 42 42 42 41 40 40 40 40 40 40 39 39 40 40 40 39 38 37 36 35 34 34 33 33 33 32 31 30 29 28 27 26 26
38 38 38 38 39 39 40 40 40 40 41 40 40 39 39 39 39 39 39 39 39 39 39 39 39 37 35 34 33 32 32 32 31 31 31 30 28 27 27 26 25 24 23
37 37 37 37 38 38 38 38 39 39 39 39 38 38 38 38 38 38 38 38 38 38 38 37 36 34 33 31 31 32 32 32 31 30 29 27 26 26 25 24 24 22 21
36 36 36 37 37 37 38 38 39 38 38 38 37 37 37 37 37 37 37 37 37 37 35 34 33 32 31 31 32 32 32 31 30 28 27 26 26 25 23 22 21 20 19
36 36 36 36 37 37 38 38 38 38 37 37 37 37 37 37 37 37 36 36 36 34 34 33 32 32 32 32 32 32 31 29 28 27 26 25 24 22 20 19 18 17 17
35 36 36 36 37 37 37 37 37 37 36 36 36 36 36 36 36 36 35 35 33 33 32 32 32 31 31 31 31 30 29 28 27 26 24 22 21 19 18 17 16 16 15

GEFSGL_500_meanwind_138.txt.gz
Wind_Speed
30 30 30 30 31 31 32 32 32 33 34 35 35 36 36 37 37 38 38 39 40 40 41 41 42 42 43 44 45 46 47 48 48 47 48 48 50 51 51 52 52 53 55
28 28 28 29 29 30 30 31 31 31 32 33 34 35 36 36 37 37 38 39 39 40 40 41 41 42 42 43 43 44 46 46 47 47 48 49 50 51 52 53 54 54 55
27 27 28 28 29 30 30 30 31 31 32 33 34 35 36 36 37 37 38 38 39 39 40 40 41 41 42 42 42 43 44 45 46 47 48 49 50 51 52 53 54 56 57
26 27 28 28 29 29 30 30 31 32 32 33 34 35 36 36 36 37 37 37 38 39 40 40 41 41 41 42 42 43 43 44 45 46 47 48 49 51 52 53 54 55 56
26 27 27 27 28 28 29 30 31 32 33 33 34 35 35 36 36 37 37 37 38 39 40 40 41 41 41 42 42 42 42 43 44 46 47 48 50 51 52 53 54 55 55
27 27 27 27 27 28 29 29 30 31 33 34 35 35 36 36 37 37 38 38 39 40 41 41 41 42 42 42 42 42 43 44 45 46 47 48 48 49 50 52 53 53 53
27 27 28 28 28 29 30 30 31 32 32 33 34 35 36 36 36 37 38 39 40 41 42 42 42 42 42 42 42 43 44 45 46 47 47 47 48 48 49 50 51 53 54
28 28 29 29 30 30 30 31 32 33 34 34 35 35 36 36 36 37 38 39 41 41 42 42 42 42 43 43 44 45 46 47 48 48 49 49 49 50 50 51 51 52 53
29 30 30 31 31 31 31 32 33 34 35 35 36 36 36 37 37 38 39 40 41 41 41 42 42 43 43 44 45 46 47 47 48 48 49 49 49 50 50 51 52 53 53
30 31 31 32 32 33 33 34 35 35 35 36 36 36 37 38 38 39 40 41 42 42 43 43 44 44 44 45 46 47 47 47 47 46 47 47 48 48 49 50 51 51 52
31 31 32 32 33 34 34 35 36 36 36 36 37 37 38 38 39 40 41 42 43 43 43 43 44 45 45 46 47 47 47 46 45 45 46 47 48 48 49 50 51 51 52
33 33 33 34 34 35 36 37 37 37 37 37 38 38 38 39 39 39 40 41 42 43 43 44 44 44 45 45 46 46 45 45 44 45 46 46 47 48 49 50 51 51 51
35 35 35 35 36 36 37 37 38 37 38 38 39 38 38 38 38 39 40 41 42 43 43 43 43 43 44 44 44 43 43 43 43 44 45 46 47 48 48 49 49 50 50
37 37 37 37 38 38 38 38 38 38 38 38 38 38 39 39 39 40 41 42 43 43 42 42 42 43 43 43 43 42 42 43 43 43 44 45 45 46 46 46 47 46 46
38 38 38 39 39 38 38 38 39 39 39 38 38 38 39 39 40 41 42 42 43 42 41 41 41 42 42 42 42 42 42 42 41 42 42 43 43 43 43 43 43 42 42
38 38 38 38 38 38 38 38 38 38 38 37 38 38 39 40 41 42 42 42 41 41 41 40 41 41 41 41 41 41 40 40 40 40 41 41 41 40 40 40 40 39 39
38 38 38 37 37 37 37 37 37 37 37 37 38 39 40 40 41 41 41 41 41 40 39 39 39 40 40 40 40 39 39 39 39 39 39 38 38 38 38 37 37 37 36
38 38 38 37 37 36 36 37 37 37 37 38 39 39 40 40 40 40 40 40 39 39 38 38 39 39 39 39 38 38 38 38 38 37 37 36 36 36 36 35 35 34 33
37 37 37 37 36 36 36 37 37 37 38 38 39 39 39 39 39 39 39 38 38 37 37 37 37 38 37 37 37 37 36 36 36 35 34 34 34 34 34 33 32 32 31
36 36 35 35 35 35 36 37 37 37 37 37 38 38 38 38 38 37 37 37 36 36 36 36 36 36 36 36 36 35 34 34 33 33 32 32 32 32 32 31 30 29 28
34 34 34 34 35 35 36 36 36 36 36 37 37 37 37 37 36 36 35 35 35 35 35 35 35 34 34 34 35 34 33 32 32 32 32 32 32 31 30 29 28 27 27
34 33 34 34 34 35 35 35 36 36 36 36 36 36 36 35 35 35 34 34 34 34 34 34 34 33 33 34 33 32 31 31 31 31 31 31 30 30 29 28 27 27 26
33 33 34 33 34 34 34 34 34 34 34 34 35 35 35 35 35 34 34 34 34 34 34 34 33 33 33 32 32 31 31 31 31 30 30 30 29 29 28 27 27 26 26
33 33 33 33 33 33 33 33 33 33 33 33 34 34 33 33 33 33 33 34 34 34 33 33 33 32 32 31 31 31 31 30 30 29 29 29 28 27 26 26 25 25 24
32 32 32 32 32 31 32 32 32 32 32 32 32 32 32 32 32 33 33 33 33 33 33 32 32 31 31 30 30 30 30 29 28 27 27 28 27 25 24 24 23 22 21
32 31 31 31 30 30 31 31 31 31 31 32 32 32 32 32 32 32 32 33 33 32 32 31 31 31 30 30 30 29 28 27 26 26 26 26 24 23 22 22 21 19 18

GEFSGL_500_meanwind_144.txt.gz
Wind_Speed
33 34 34 35 35 36 36 37 37 37 37 37 38 38 39 39 39 39 39 40 40 40 40 40 40 41 41 42 42 43 44 44 44 44 45 46 46 46 45 46 47 48 49
34 34 35 35 36 36 37 37 38 38 38 38 38 39 39 39 39 39 39 39 40 40 40 40 41 41 42 42 43 44 44 45 45 45 46 46 45 45 45 46 46 47 48
33 34 35 35 36 37 37 38 38 38 39 39 39 39 39 39 39 39 39 40 40 41 41 42 42 42 43 43 44 45 46 47 47 47 46 45 45 45 45 45 46 47 48
33 34 35 35 36 37 37 38 38 38 38 38 39 38 39 39 39 40 40 41 41 41 42 42 43 43 44 45 46 47 47 48 49 48 47 46 46 46 46 46 47 48 48
33 34 34 35 36 36 37 37 37 38 38 38 38 38 39 39 40 41 41 42 42 43 43 43 44 45 45 46 47 48 49 49 49 48 47 47 47 48 48 49 49 49 49
33 33 34 34 35 35 36 36 37 37 38 38 38 39 39 40 41 42 42 43 43 44 44 45 45 46 47 47 48 48 48 48 47 47 47 48 48 49 50 50 50 50 49
33 33 34 35 35 35 36 36 37 38 38 38 39 40 40 41 42 43 44 44 44 44 44 45 46 47 47 47 48 49 49 48 48 48 48 48 48 49 49 49 49 49 49
34 35 36 36 36 36 37 38 38 38 38 39 40 40 41 41 42 43 44 44 44 45 45 45 46 47 47 48 49 49 48 48 48 49 49 49 49 49 49 49 49 49 49
34 35 36 36 37 37 37 38 38 38 39 40 40 41 41 42 42 43 43 44 44 45 45 45 46 47 47 48 48 48 48 48 48 49 48 48 49 49 49 49 49 49 49
35 36 37 37 37 37 37 38 38 38 39 40 41 41 42 42 42 43 43 44 44 44 44 45 45 46 46 46 46 46 46 46 47 47 47 47 48 48 49 49 49 50 50
37 37 37 37 38 38 38 38 39 39 39 40 41 41 42 42 43 43 44 44 43 44 44 44 45 45 45 45 45 45 45 46 46 46 46 46 47 48 48 49 49 50 50
38 38 38 38 39 39 39 39 39 40 40 40 41 41 41 42 43 44 44 44 44 44 44 44 44 44 44 44 45 45 45 45 45 45 46 46 47 47 48 48 48 49 49
39 38 38 39 39 39 40 40 40 41 41 41 41 41 42 42 43 44 44 44 43 43 43 43 43 43 43 43 43 43 43 43 43 44 44 45 45 46 46 46 46 46 46
41 40 40 40 40 40 40 40 41 41 41 41 41 41 41 42 42 42 42 42 43 42 42 42 41 42 42 42 42 42 42 42 43 43 44 44 45 45 45 44 43 43 43
41 41 40 40 40 41 41 41 41 41 41 41 41 41 40 40 40 40 40 41 41 40 40 40 41 41 41 40 41 41 41 42 42 43 43 43 43 43 43 42 41 41 40
41 41 41 41 41 41 41 41 41 41 40 40 39 39 39 39 39 39 39 39 38 39 39 39 40 40 40 40 41 41 41 41 42 42 42 41 41 41 41 40 39 39 39
41 41 41 41 41 41 41 40 40 40 40 39 39 38 38 38 38 38 39 39 38 38 39 39 39 39 39 40 41 41 41 41 41 41 40 40 40 39 38 38 38 38 38
41 41 40 40 41 41 40 40 39 39 39 39 38 38 37 37 38 38 38 38 38 38 38 38 38 39 39 40 40 40 40 40 40 39 39 38 38 37 36 36 37 36 36
40 40 39 39 39 39 39 39 39 39 39 39 38 38 38 37 37 38 38 37 37 37 37 37 37 38 39 39 40 39 39 39 39 38 38 37 36 35 35 35 36 35 34
39 39 39 38 38 38 38 38 38 38 37 37 37 37 37 37 37 37 37 37 37 37 37 36 37 38 38 38 38 37 37 37 37 37 36 35 34 34 34 34 34 33 32
39 38 38 37 37 36 36 36 36 35 35 35 36 36 36 36 36 36 36 36 36 36 36 36 36 37 37 37 36 36 36 36 35 35 34 34 34 33 33 33 32 32 32
37 37 36 36 36 35 34 34 34 34 34 34 35 35 35 34 34 34 35 35 34 34 35 35 36 36 36 35 35 35 35 34 34 33 32 32 32 32 32 32 31 31 31
36 35 35 34 34 33 33 33 33 33 33 33 33 33 33 33 33 33 33 33 33 34 34 35 34 34 34 34 34 34 33 33 32 32 31 31 31 31 31 31 30 30 30
35 34 33 32 32 32 32 32 33 32 32 32 32 32 32 31 32 32 32 33 33 33 33 33 33 33 33 33 33 33 32 32 32 31 30 30 31 31 30 30 29 28 28
34 33 33 32 32 32 32 32 32 32 31 31 31 30 30 30 31 31 31 32 32 32 32 32 32 33 32 32 32 32 31 31 31 30 29 29 29 29 28 28 28 27 27
33 33 32 32 32 32 32 32 31 31 30 29 29 29 29 29 29 29 30 31 31 31 31 31 31 31 31 31 31 30 30 30 29 28 28 27 27 27 27 27 26 25 24

GEFSGL_500_meanwind_150.txt.gz
Wind_Speed
36 37 38 39 39 40 40 40 40 40 40 40 41 41 42 43 43 44 44 44 43 43 43 44 44 44 44 44 44 45 45 45 45 45 46 47 47 47 47 48 48 47 48
35 36 37 38 39 40 40 41 41 42 42 42 43 43 43 44 44 44 44 44 44 44 44 45 45 46 46 45 46 46 46 46 47 47 47 48 48 48 49 49 50 49 49
35 36 37 38 39 40 41 42 43 43 44 44 44 44 44 44 44 44 45 45 45 45 46 46 46 46 46 46 46 46 47 47 47 48 48 49 48 49 50 51 52 52 52
35 36 37 38 39 40 41 42 42 42 43 43 43 44 44 45 45 46 46 46 46 46 47 47 47 47 47 47 47 47 48 48 49 49 49 49 49 50 51 51 51 52 52
36 36 37 37 38 39 40 41 42 43 43 43 44 44 44 45 46 47 47 47 46 47 47 47 48 48 48 48 49 49 49 49 50 50 50 50 50 51 51 50 50 51 51
35 37 37 37 38 39 40 41 42 43 44 44 45 46 46 46 46 46 47 46 47 47 47 47 48 48 48 49 49 49 50 50 50 50 50 50 51 51 51 51 50 50 49
35 36 37 38 39 40 40 41 42 43 44 45 45 46 46 46 46 46 46 46 47 47 48 48 48 48 48 49 49 50 50 49 49 49 50 50 50 51 51 51 51 50 49
36 38 39 39 40 41 41 42 43 43 43 44 44 45 45 45 45 45 46 46 47 47 48 48 48 48 49 49 49 49 49 49 49 49 50 50 50 50 50 50 50 50 50
38 38 39 40 41 42 43 43 43 43 43 43 44 44 44 44 45 45 46 46 47 47 47 48 48 48 48 49 49 49 49 49 49 49 49 49 49 49 50 50 49 50 50
39 40 41 42 43 43 43 43 43 44 43 44 44 44 45 45 45 45 46 46 47 47 47 48 48 48 48 49 49 48 48 48 48 48 48 48 48 48 48 49 49 49 49
41 42 43 44 44 44 44 44 43 43 43 44 44 44 45 45 45 45 46 46 46 46 46 47 47 47 48 48 48 47 47 47 47 47 47 47 47 47 48 48 48 47 47
44 44 44 45 45 44 44 44 44 43 43 43 43 44 44 44 44 44 45 45 45 46 46 46 47 47 47 47 46 45 45 45 45 45 45 45 45 46 46 46 46 46 47
45 45 45 44 44 44 44 44 44 44 43 43 43 43 43 43 43 43 44 44 44 44 45 45 45 45 45 45 44 44 44 43 43 43 43 43 44 44 44 44 45 45 45
45 45 45 44 44 43 43 43 43 43 43 43 43 43 43 43 43 43 43 43 43 43 43 43 43 42 42 42 42 42 41 41 41 41 41 42 43 43 44 44 43 43 43
44 44 44 44 44 43 43 43 43 43 43 43 43 43 43 43 43 42 42 42 42 41 41 41 41 40 40 40 40 39 39 39 40 40 40 41 41 42 42 42 42 42 42
43 43 44 43 43 43 43 43 43 43 43 43 43 42 42 42 42 42 41 41 40 40 39 39 39 38 38 38 37 38 38 38 38 39 39 40 40 41 41 41 42 41 40
43 43 44 43 43 43 43 43 43 43 42 42 41 41 41 41 41 40 40 39 39 39 38 38 38 38 37 37 36 36 36 37 38 39 39 40 40 40 41 41 40 39 38
43 43 44 44 43 43 43 43 43 42 41 40 40 40 40 39 38 37 38 38 38 37 37 37 37 37 36 36 36 36 36 37 38 38 39 39 39 39 39 39 38 36 35
43 43 43 42 42 43 42 42 41 40 40 39 39 39 38 37 37 36 37 37 37 36 36 36 36 36 35 35 35 36 37 37 38 38 38 38 38 38 37 36 35 34 34
42 41 41 41 40 40 40 39 38 38 38 37 37 36 36 35 35 35 35 36 36 35 35 35 35 35 35 35 35 36 36 37 37 37 37 37 36 36 35 35 34 33 32
40 40 39 39 38 38 38 37 36 36 36 35 35 34 34 33 34 34 34 34 34 34 34 34 34 34 35 35 35 35 36 36 36 35 35 35 35 34 34 33 33 32 31
39 38 38 37 36 36 36 36 36 35 34 34 33 32 32 32 33 33 33 33 33 33 32 33 33 33 33 33 33 34 34 34 33 34 33 33 33 33 32 32 31 30 30
39 38 38 37 36 36 35 35 34 33 32 32 32 32 32 32 32 32 32 32 31 31 32 32 32 32 32 32 32 32 32 32 32 32 31 31 31 31 30 29 29 29 29
38 37 37 36 35 35 34 33 32 31 31 30 31 31 31 31 31 31 31 30 30 31 31 31 31 31 30 30 30 30 30 31 31 30 29 30 29 29 28 27 28 28 28
37 36 36 35 35 34 33 32 31 30 30 30 30 30 30 30 30 30 29 29 29 29 30 30 29 29 29 29 29 28 28 29 28 28 28 28 27 27 26 26 26 27 26
37 36 35 35 34 33 33 31 30 29 29 29 29 29 29 29 29 29 29 28 28 28 28 28 28 28 27 27 27 27 27 27 27 26 26 26 25 24 24 25 25 25 23

GEFSGL_500_meanwind_156.txt.gz
Wind_Speed
38 38 39 39 40 41 42 42 42 43 44 45 45 45 46 46 47 47 48 48 48 49 48 49 50 51 51 51 52 52 52 52 52 51 51 50 50 50 50 50 50 50 51
37 38 38 39 41 41 42 42 43 44 45 45 46 46 47 47 47 48 49 49 50 51 50 49 50 50 51 52 53 53 53 53 53 52 52 51 51 51 50 51 51 52 52
36 37 38 39 39 40 41 42 43 44 44 45 45 46 47 47 47 47 48 49 50 50 51 51 51 51 52 52 52 53 52 52 52 52 51 51 51 51 51 52 52 52 52
35 35 36 37 38 39 40 42 43 43 44 45 45 46 46 47 48 48 48 49 49 50 51 51 51 52 52 52 52 52 51 51 52 52 51 51 51 51 52 52 52 53 53
35 36 36 37 38 39 41 41 42 43 44 45 46 46 47 47 48 49 49 50 50 50 51 51 51 51 51 51 51 51 51 51 51 51 51 51 51 52 52 52 52 52 52
36 37 38 39 40 41 42 42 43 43 44 45 46 47 47 48 49 49 50 50 51 51 51 51 51 51 51 51 51 51 51 51 51 51 51 51 51 52 52 52 52 52 52
38 39 40 40 41 41 42 43 43 44 44 45 46 46 47 48 49 50 50 50 50 51 52 52 51 51 51 51 51 51 51 51 51 51 51 52 52 52 52 52 51 51 52
39 40 40 41 41 42 42 43 44 44 45 45 46 47 47 48 49 49 49 49 49 50 50 51 51 51 51 51 51 50 51 51 51 51 51 51 51 51 51 51 51 51 52
40 41 42 42 42 43 43 43 44 44 45 46 46 46 47 47 48 49 49 49 49 49 49 50 50 50 50 50 49 49 50 50 50 50 50 50 50 50 50 50 50 50 50
42 42 43 43 43 44 44 45 45 45 46 46 46 47 47 48 48 48 48 48 48 48 49 49 49 49 48 48 48 48 48 48 48 49 49 50 49 49 49 50 50 49 49
42 43 43 44 44 45 45 46 47 47 47 47 47 47 47 48 48 48 48 47 47 47 47 47 48 48 47 48 47 47 47 47 47 48 48 48 49 48 48 49 48 48 47
44 44 44 45 45 46 46 47 47 48 48 47 47 47 48 48 48 48 48 47 47 47 46 47 47 47 47 47 46 46 46 46 46 46 47 47 47 47 47 47 47 46 46
45 45 45 45 46 47 47 48 48 48 48 47 47 47 47 47 48 48 47 47 47 46 46 46 46 45 45 45 44 44 44 44 44 44 44 44 44 45 45 45 45 45 45
45 45 46 46 47 48 48 48 48 48 48 48 47 47 47 47 47 47 46 46 46 45 45 44 44 44 43 42 42 42 42 42 42 42 42 43 43 43 43 43 43 43 42
46 46 46 47 48 48 48 48 48 48 48 48 48 47 47 46 46 46 45 45 45 45 43 42 42 42 41 40 40 40 40 40 40 40 40 40 41 41 41 41 41 41 41
46 46 47 47 48 48 48 48 48 48 48 48 47 47 46 45 45 44 44 44 43 43 42 41 41 41 40 39 39 39 39 39 39 39 39 39 40 40 40 40 39 40 40
47 47 47 48 48 48 48 48 47 47 47 47 47 46 45 44 43 43 42 42 42 41 41 41 40 40 39 39 38 38 38 38 37 37 38 38 39 39 39 38 39 39 39
48 48 48 48 49 48 48 48 47 47 46 45 45 45 44 43 42 42 41 41 40 39 39 38 38 38 37 37 37 37 37 37 36 37 37 38 37 37 37 38 38 38 37
49 49 48 48 48 47 47 46 46 45 45 44 44 43 43 42 41 40 39 39 38 38 37 36 35 35 34 35 35 35 35 35 36 36 37 37 36 36 37 37 37 36 35
49 48 48 47 47 46 45 45 45 44 43 43 42 41 41 40 39 38 37 37 36 36 35 34 33 33 33 33 33 34 34 34 35 36 36 36 36 35 35 35 34 33 33
48 48 47 46 46 45 45 44 44 43 42 41 39 39 38 37 36 36 35 35 34 34 33 33 32 32 32 32 32 33 33 33 34 34 35 35 34 34 33 32 32 31 31
48 47 46 45 45 44 44 43 42 41 40 38 37 36 36 36 35 34 34 33 33 33 32 32 31 31 31 31 31 31 31 32 32 33 33 32 32 31 31 30 30 29 29
47 46 45 45 44 43 43 42 41 39 38 36 36 36 35 35 34 34 33 33 32 31 31 30 30 30 30 30 30 30 30 31 31 31 31 30 29 29 28 28 27 27 27
46 45 44 43 43 42 41 40 39 37 36 35 35 34 34 34 33 32 32 32 31 30 30 29 29 29 29 29 29 29 30 30 29 29 29 28 27 27 27 26 26 26 27
44 43 42 41 40 39 39 38 37 36 35 34 33 33 33 32 32 31 31 31 30 30 29 29 28 27 27 27 28 28 28 28 28 27 26 26 25 25 25 25 25 26 26
41 40 40 39 38 37 37 36 35 34 33 32 31 31 31 31 30 30 30 30 29 29 28 27 27 26 26 26 27 27 27 26 26 25 24 24 24 24 24 24 24 25 24

GEFSGL_500_meanwind_162.txt.gz
Wind_Speed
34 35 36 36 37 38 39 40 41 42 42 43 43 44 45 46 47 47 48 48 49 50 50 49 49 49 50 50 51 52 52 52 53 53 53 53 54 54 54 53 53 53 52
35 36 36 37 38 38 39 40 41 41 42 43 44 44 46 47 47 48 49 50 50 51 51 51 51 50 50 51 51 51 51 52 52 53 53 54 55 54 54 53 52 52 51
35 36 36 37 37 38 38 40 41 41 42 43 44 45 45 46 47 48 49 50 50 51 51 52 51 51 51 51 51 52 52 53 53 53 54 54 55 54 53 52 52 51 51
35 35 36 37 37 38 39 40 41 42 43 44 44 44 44 45 46 46 47 48 49 50 51 51 52 52 51 52 52 53 53 53 54 53 54 53 53 52 52 51 51 51 51
35 35 36 37 38 39 39 40 41 42 42 43 43 44 45 45 46 46 47 47 48 49 50 50 51 51 52 52 52 52 53 53 53 53 53 52 52 51 51 50 50 50 51
36 37 37 38 39 40 40 41 41 42 43 44 44 44 45 46 46 47 46 46 47 48 48 49 49 50 51 51 51 52 52 52 52 52 52 52 51 51 50 50 50 49 49
38 39 39 40 41 41 42 42 43 43 44 45 45 45 45 45 46 46 46 46 46 47 47 48 48 49 49 50 50 50 50 51 51 51 51 51 51 50 50 49 49 49 49
39 40 40 41 42 43 44 44 44 44 44 44 44 45 45 46 46 47 47 47 47 47 48 48 48 48 49 49 49 49 50 50 50 50 50 50 50 49 49 48 48 48 48
41 41 42 42 43 44 44 44 44 44 44 44 44 44 45 45 46 47 47 47 47 48 47 48 48 49 49 49 48 49 49 49 49 49 49 48 48 48 48 48 47 47 47
41 42 42 43 43 44 44 44 44 44 44 45 44 44 45 46 46 47 47 47 48 48 48 49 49 50 49 49 48 48 48 48 48 47 47 47 47 46 46 46 46 46 46
42 43 43 44 44 44 44 44 44 45 45 45 45 46 46 46 47 47 48 49 49 49 49 49 49 49 49 48 48 47 47 47 46 46 46 46 46 45 45 45 45 45 45
42 43 44 44 45 45 45 45 45 46 46 46 46 46 47 47 48 48 49 49 50 49 49 49 49 49 48 48 47 46 46 46 46 46 45 45 45 44 44 44 44 45 45
43 43 44 45 45 46 46 46 46 46 47 47 47 47 47 48 49 49 49 49 50 49 49 48 48 48 47 47 46 46 46 46 45 45 44 44 44 43 43 43 43 43 44
43 44 44 45 45 46 46 46 47 47 47 47 47 48 48 48 49 49 49 49 49 48 47 46 46 46 46 45 45 45 45 44 44 43 43 42 42 42 42 42 42 42 42
44 45 45 45 46 46 46 47 47 47 48 48 48 48 49 49 49 49 49 49 48 47 46 45 45 45 44 44 44 44 43 42 42 41 41 40 40 40 40 40 40 40 39
45 45 46 46 46 47 47 47 47 47 48 48 49 49 49 49 49 49 48 48 47 46 45 44 43 43 43 42 42 41 41 40 40 40 39 39 39 39 39 38 38 38 38
46 46 46 46 47 47 47 48 47 48 48 49 49 49 49 49 48 48 47 46 45 44 43 42 42 41 41 40 40 39 38 38 38 38 38 37 37 37 37 37 37 37 37
46 47 47 47 47 48 48 49 49 49 48 48 48 48 48 48 47 46 45 44 43 43 42 41 41 40 39 39 38 37 36 36 36 36 35 36 36 36 36 36 36 37 36
47 48 48 48 49 49 49 50 50 49 48 48 47 47 47 46 45 44 43 42 42 41 41 40 39 38 37 37 36 36 35 34 34 34 34 34 34 35 35 35 35 35 34
48 48 49 49 49 50 50 50 49 49 48 47 46 46 45 44 43 41 41 40 40 39 39 38 38 36 36 35 35 35 34 34 34 34 33 33 33 33 33 32 32 32 31
49 49 49 50 50 49 49 49 48 47 46 46 45 44 44 42 41 40 39 39 39 38 37 36 35 35 34 34 34 34 34 33 33 32 32 32 31 31 31 30 30 30 30
49 49 49 49 49 48 48 47 46 45 44 44 43 42 41 40 39 39 38 37 37 36 35 34 34 33 33 33 32 32 31 31 31 31 31 30 30 29 29 28 28 28 28
48 48 48 47 47 46 46 45 44 43 43 42 41 40 39 38 37 37 36 35 34 33 33 33 32 32 31 31 30 30 29 29 29 30 29 29 28 28 27 27 27 27 26
46 46 45 44 44 44 43 42 42 41 40 39 38 37 36 35 35 34 34 33 32 32 31 31 30 30 29 29 28 28 28 28 28 28 28 27 27 27 26 26 25 25 25
43 43 42 41 40 40 39 39 38 38 37 37 36 34 33 32 32 32 31 31 30 29 28 28 28 28 27 27 26 26 26 25 25 25 25 25 25 25 25 24 24 23 23
40 39 39 39 38 37 37 36 36 35 35 34 33 32 32 31 30 29 29 29 28 27 26 26 26 26 25 24 24 24 24 23 23 23 23 23 23 23 23 22 22 22 22

GEFSGL_500_meanwind_168.txt.gz
Wind_Speed
33 34 35 36 36 37 37 37 38 38 38 39 39 40 41 41 42 43 44 45 45 46 47 48 49 49 50 51 52 52 53 53 53 52 53 53 53 53 53 54 54 54 54
34 35 35 36 37 38 38 38 39 39 40 40 41 41 42 43 43 44 45 46 46 47 48 48 49 50 50 51 52 52 53 53 53 52 52 52 52 53 53 53 53 53 53
36 36 37 38 38 38 38 39 40 40 41 42 42 43 43 44 44 45 46 47 48 49 49 49 49 49 50 50 51 51 52 52 52 52 51 51 51 51 51 51 51 52 52
37 38 38 38 38 39 39 39 40 41 42 42 43 43 44 44 44 45 46 47 48 49 49 49 49 49 50 50 50 51 51 51 51 51 51 51 51 51 51 50 51 51 51
39 39 39 39 40 40 40 41 41 42 42 43 43 43 44 44 44 45 45 46 47 48 48 49 49 50 51 50 50 50 51 51 51 51 51 51 51 51 50 50 50 50 50
40 40 40 41 41 41 42 42 42 43 43 43 44 44 44 45 46 46 46 46 46 47 47 48 49 50 50 50 50 51 50 50 51 51 51 51 51 51 50 49 49 48 48
41 41 41 42 42 42 43 43 44 44 44 44 45 45 45 46 46 47 47 46 46 46 47 48 49 49 49 50 50 50 50 50 51 51 50 51 50 50 50 49 48 47 47
42 42 42 42 42 43 43 44 44 44 45 45 45 45 46 46 47 47 47 47 47 47 48 48 49 49 49 49 50 50 50 50 51 51 51 51 50 50 49 48 48 47 47
42 43 43 43 43 43 43 44 44 45 45 46 46 46 46 47 47 48 48 48 48 48 49 49 50 50 50 51 51 50 50 50 51 51 51 50 50 49 48 48 47 46 46
44 44 44 44 44 44 44 44 45 45 45 46 46 46 47 47 48 49 49 49 49 50 50 50 50 51 51 51 51 51 51 51 51 50 50 49 49 48 47 46 46 46 46
45 45 45 45 45 45 45 45 46 46 46 47 47 47 48 49 49 49 49 49 50 50 51 51 51 51 51 51 51 51 51 51 50 50 49 48 47 47 46 46 46 46 46
45 45 45 45 46 46 46 46 46 47 47 47 48 48 48 49 49 49 50 50 50 50 50 51 51 51 51 51 51 51 51 50 49 48 47 46 46 45 45 45 45 45 45
46 46 46 46 46 46 46 47 47 48 48 48 47 48 48 48 49 50 50 50 50 50 51 51 51 51 51 51 51 50 50 49 48 47 47 46 45 45 45 45 45 45 45
47 47 47 47 47 47 47 47 47 47 47 47 48 48 48 48 49 50 49 49 50 50 51 51 51 51 50 50 49 49 48 48 47 47 46 45 45 44 43 43 43 43 43
48 47 47 47 47 47 46 46 47 47 47 47 48 48 49 49 49 49 49 49 50 50 50 50 49 49 49 48 48 47 47 46 46 45 44 44 43 42 42 42 42 42 41
47 47 47 47 46 46 46 46 46 47 47 47 48 48 49 49 49 49 49 50 50 50 50 49 49 48 48 47 46 46 45 44 44 44 43 42 42 41 40 40 40 40 39
47 47 47 47 46 46 46 46 46 46 47 47 47 48 48 49 49 49 50 50 50 49 48 48 48 47 46 46 45 44 43 43 43 42 42 41 40 40 39 39 38 38 38
46 46 46 46 46 46 46 46 46 46 46 46 47 48 49 49 49 50 49 49 48 48 47 47 46 45 45 44 43 43 42 41 41 40 39 38 38 37 37 37 36 36 36
46 46 46 46 46 47 47 46 46 46 47 47 47 48 49 49 48 48 48 47 46 45 45 45 44 44 43 43 42 42 41 40 39 38 37 37 36 35 35 34 34 34 34
45 45 45 45 46 46 46 46 46 47 47 47 48 48 48 48 47 47 46 45 45 44 43 43 43 42 42 41 41 40 39 38 37 36 35 35 34 34 33 33 32 32 31
44 44 44 45 45 45 46 46 47 47 47 47 47 46 46 46 45 45 44 44 43 43 43 42 41 41 40 39 39 38 37 35 35 34 33 32 32 31 30 30 30 30 29
43 43 44 44 45 45 45 45 46 46 46 46 45 45 44 44 44 44 43 42 42 42 42 41 40 38 37 37 36 35 34 33 32 31 31 30 29 29 28 28 28 28 28
42 42 42 43 44 44 44 44 45 45 45 45 45 44 43 43 43 42 41 40 39 39 38 37 36 35 34 34 33 32 31 29 29 28 27 27 26 26 26 26 26 26 26
40 40 41 42 42 43 43 43 43 44 44 43 43 42 41 41 40 39 38 37 36 36 35 34 33 32 31 30 29 28 27 27 26 26 25 25 25 25 24 24 24 24 24
39 39 40 40 41 42 42 42 42 42 41 40 40 39 38 37 36 35 34 34 33 32 31 30 30 29 28 27 26 25 25 25 25 24 24 24 23 23 23 23 23 23 23
39 39 39 39 39 39 39 39 39 38 37 37 36 35 34 33 32 32 31 30 29 29 28 27 27 26 25 24 24 24 24 23 23 22 22 22 22 22 22 22 22 22 21

GEFSGL_500_meanwind_174.txt.gz
Wind_Speed
30 31 32 33 34 35 36 37 38 38 39 39 40 40 40 40 41 41 43 43 44 44 45 45 45 46 47 47 48 48 48 49 49 50 51 52 52 52 53 53 53 53 53
30 32 33 34 35 36 37 39 40 40 41 41 42 42 42 42 43 43 44 45 45 46 46 46 47 47 48 49 49 49 50 50 50 50 50 51 52 52 52 52 52 52 51
32 33 34 36 38 39 40 41 42 42 42 43 43 43 44 44 44 45 45 46 46 46 47 47 48 48 48 49 49 50 50 50 51 51 51 52 52 53 53 53 53 52 52
34 35 37 38 40 41 42 42 42 43 43 44 44 45 45 45 46 46 46 46 47 47 48 48 49 49 49 49 50 50 50 51 51 51 52 52 53 53 53 53 53 53 52
36 38 39 41 41 42 43 43 43 43 44 44 45 45 46 47 47 47 47 47 48 48 48 49 49 50 49 50 50 50 50 51 51 51 52 53 53 54 54 54 53 53 52
39 40 42 43 43 44 44 44 44 44 45 45 45 46 46 47 47 48 48 48 48 49 49 49 49 50 50 50 51 51 51 52 52 52 53 53 53 53 53 53 53 53 52
40 42 43 44 44 44 44 45 45 45 45 46 46 46 46 47 48 48 48 49 49 50 50 50 50 50 50 51 51 52 52 52 53 53 53 53 53 53 53 53 53 53 52
42 42 43 44 44 44 45 45 46 46 46 47 47 47 47 48 49 49 49 49 50 50 50 50 50 50 51 52 52 53 53 53 54 54 54 54 54 54 53 53 52 52 52
43 43 44 45 45 45 45 45 46 46 47 47 47 47 48 48 49 49 50 50 50 51 51 51 51 51 52 53 53 54 54 54 54 54 54 54 54 53 53 53 52 52 52
44 45 45 46 46 46 46 46 47 47 47 47 47 48 49 49 50 50 50 50 50 50 50 51 51 52 52 53 53 54 54 54 54 54 53 53 53 53 53 53 52 52 51
46 46 46 46 46 47 47 48 48 48 48 48 48 49 49 50 50 50 50 50 50 50 50 51 51 51 52 53 53 53 53 53 54 53 53 53 53 52 53 53 52 51 51
47 47 47 47 48 48 48 49 49 50 50 50 49 49 50 50 50 50 50 50 50 50 50 50 51 51 51 52 52 52 52 53 52 52 52 52 52 52 52 52 51 50 49
47 47 48 48 48 49 49 49 50 50 51 50 50 50 50 50 50 50 51 51 51 51 51 50 51 51 51 51 51 51 51 51 50 50 50 50 50 50 50 50 49 48 48
47 48 48 49 49 48 48 49 49 50 50 50 50 50 50 50 50 50 50 51 51 51 51 51 51 51 51 51 51 50 50 50 49 49 48 48 48 48 48 48 47 47 46
48 48 48 48 48 48 48 48 49 49 49 49 49 50 49 49 49 49 49 49 49 49 50 50 50 50 50 50 50 49 48 48 47 47 47 47 47 47 47 46 45 45 44
48 48 48 48 48 48 48 48 48 48 48 48 48 48 48 48 48 48 48 48 48 48 49 49 49 49 49 48 48 47 47 46 46 47 47 47 46 46 45 44 43 42 41
47 47 46 46 47 47 47 47 47 47 47 47 47 47 47 47 47 47 47 47 47 48 48 48 48 47 47 47 46 46 46 47 47 46 46 45 45 44 43 42 41 40 39
47 47 47 46 46 46 46 46 46 45 45 45 45 46 46 46 46 46 46 47 47 47 47 47 46 46 46 45 45 46 46 46 45 45 44 43 43 42 41 40 39 38 38
46 46 46 46 45 45 45 44 44 44 44 44 44 45 45 45 45 46 46 46 46 46 45 45 45 44 44 44 44 44 44 43 42 42 41 41 41 40 39 37 37 36 36
44 44 44 44 44 43 43 43 43 43 43 43 44 44 44 44 44 44 44 44 44 43 43 43 43 43 43 43 42 42 41 41 40 40 39 38 38 36 35 34 34 33 33
42 41 42 42 41 41 41 41 41 41 42 42 42 43 43 43 43 43 43 42 42 41 41 40 40 40 41 40 40 39 38 38 38 37 36 35 34 33 33 32 31 30 30
39 40 40 39 39 39 39 39 40 40 41 41 41 41 41 41 41 41 41 40 39 39 38 38 37 38 38 37 36 36 36 35 35 34 33 32 32 30 29 29 28 27 27
38 38 38 38 38 38 38 39 39 39 39 39 39 40 40 39 39 39 39 38 38 37 37 36 36 36 35 34 34 34 33 32 32 30 30 30 29 28 27 27 26 25 24
38 37 37 37 37 37 37 37 37 38 38 38 39 39 39 38 38 37 37 36 35 35 35 35 34 33 32 32 32 31 30 29 28 27 27 27 26 26 25 24 23 23 23
36 36 36 36 36 36 36 36 37 37 37 37 37 37 37 37 37 36 35 34 33 33 32 32 31 30 30 29 29 28 27 27 26 25 25 24 24 23 22 22 21 21 21
36 36 35 35 35 35 35 35 35 35 35 35 34 34 34 34 33 33 32 31 31 30 30 29 29 28 28 27 26 25 25 25 24 23 22 22 21 21 21 20 20 19 19

GEFSGL_500_meanwind_180.txt.gz
Wind_Speed
32 33 33 33 33 34 35 36 37 38 39 40 41 42 42 42 43 43 43 44 44 45 46 47 48 48 47 48 49 50 51 52 52 52 52 53 54 53 54 54 54 54 55
33 34 35 35 35 35 36 36 37 39 40 41 42 43 43 43 44 44 44 45 45 46 47 48 49 50 50 50 51 51 52 52 53 52 52 53 53 53 53 54 55 55 55
33 35 36 36 37 37 38 38 39 39 41 42 43 44 44 44 44 45 46 46 47 47 48 49 49 50 51 51 52 52 53 53 53 53 53 53 53 54 54 54 55 55 55
34 36 37 37 38 39 39 39 40 41 43 44 45 45 46 46 46 46 47 47 48 49 49 49 50 51 52 52 52 52 53 53 54 54 54 54 54 55 55 55 55 55 56
36 37 38 39 40 41 42 42 43 44 45 46 46 47 47 47 47 47 48 49 49 49 50 50 51 52 52 53 53 53 53 53 53 54 54 54 55 55 55 55 55 56 56
37 38 39 40 42 43 44 45 46 46 47 47 48 48 48 48 48 49 49 49 50 50 50 51 51 52 53 53 53 54 54 54 53 54 54 54 55 56 56 56 56 56 56
38 39 41 42 43 44 45 46 46 47 48 48 49 49 49 49 49 49 49 49 50 50 51 52 52 53 53 53 53 53 54 53 54 54 54 55 55 56 56 56 56 56 56
40 41 42 43 44 45 46 47 47 48 49 49 49 49 49 50 50 50 50 51 51 52 52 52 53 53 54 54 53 53 53 54 54 54 55 55 56 56 56 56 56 56 55
43 44 45 45 46 46 47 48 49 49 50 50 50 50 50 50 51 51 52 52 52 52 52 52 53 54 54 55 55 54 54 55 55 55 55 55 55 55 55 55 55 54 53
45 46 47 47 48 48 49 49 50 50 51 51 51 51 51 52 52 53 53 53 53 53 53 53 54 54 54 55 55 54 55 54 55 54 54 54 54 54 54 53 53 52 52
48 48 49 50 50 51 51 52 52 52 52 52 52 52 52 53 53 53 53 53 53 53 53 53 53 54 54 54 54 55 54 55 55 54 53 53 53 53 53 52 52 51 51
49 50 50 51 52 52 52 53 53 52 53 53 53 53 53 53 54 54 53 53 53 53 52 53 53 53 53 53 53 53 53 54 54 53 53 53 53 53 52 51 51 51 51
49 49 50 51 52 53 53 53 53 53 53 53 54 53 54 54 53 53 53 53 52 52 52 52 52 52 52 53 52 52 52 52 52 52 53 53 53 53 52 52 52 52 51
49 49 50 51 51 52 52 53 53 53 53 53 53 53 53 53 53 53 52 52 52 52 51 51 51 52 52 51 51 51 51 51 51 51 52 52 51 51 51 52 51 51 50
48 49 50 51 51 51 51 51 52 52 52 52 53 53 52 52 53 52 51 51 50 51 51 51 50 50 50 50 50 50 50 50 50 50 50 50 50 50 50 50 50 50 49
49 49 50 50 50 50 50 50 50 51 51 51 52 52 52 52 51 51 50 49 49 50 50 49 49 49 49 49 49 49 49 49 49 49 49 48 48 48 48 48 49 48 48
49 49 49 50 50 50 50 50 50 49 50 50 50 51 51 50 49 48 48 48 48 49 48 48 47 47 47 46 46 47 47 47 47 47 47 46 46 46 47 47 46 46 45
48 49 49 49 50 50 50 50 50 49 49 49 49 49 49 48 47 47 47 47 47 47 47 46 45 45 44 44 44 45 45 45 45 44 44 44 44 44 44 43 43 43 42
48 48 49 49 49 49 50 50 49 49 48 48 47 47 46 46 45 45 45 45 45 44 44 43 43 43 42 42 43 43 42 42 42 41 41 41 41 41 40 40 39 39 38
46 46 47 47 47 47 48 48 47 47 46 45 44 44 43 43 43 43 43 43 42 42 42 41 41 40 40 40 41 40 39 39 38 38 38 37 37 37 37 36 36 35 35
44 44 45 45 45 45 45 45 44 44 43 42 41 41 41 41 41 40 40 40 40 40 40 39 38 38 38 38 38 37 36 36 35 35 35 35 35 34 34 33 33 33 32
43 43 43 43 43 42 42 42 42 41 40 40 40 40 40 39 38 38 38 38 38 38 38 38 37 37 37 37 36 35 34 34 34 34 33 33 33 32 32 32 32 31 30
42 42 42 41 41 41 40 40 39 39 39 38 38 38 37 37 37 37 37 37 37 37 37 36 36 36 36 35 35 34 33 33 32 32 31 31 31 31 30 29 28 28 27
40 40 40 40 39 39 39 38 38 38 37 37 37 37 36 36 36 36 36 36 36 36 35 34 34 34 33 33 32 32 31 31 31 30 29 29 29 28 27 26 26 25 25
39 39 38 38 38 37 37 37 37 37 37 37 36 36 35 35 35 35 35 34 34 33 32 32 32 31 31 31 30 30 29 29 28 27 27 27 26 25 24 24 23 23 23
38 38 38 37 37 36 36 36 36 36 36 35 35 34 34 34 34 34 33 33 32 31 31 31 30 30 29 29 28 28 27 26 26 25 24 24 23 23 22 22 21 21 20

GEFSGL_500_meanwind_186.txt.gz
Wind_Speed
30 31 32 32 34 34 34 35 36 36 36 37 38 38 39 40 40 41 42 43 44 45 46 47 48 49 50 50 50 50 51 52 52 51 52 52 52 52 52 52 53 53 53
30 33 33 34 35 36 36 36 37 38 39 40 40 39 39 40 41 42 43 44 45 46 47 48 49 50 51 51 52 52 53 54 54 54 54 54 54 53 53 53 54 54 54
31 33 35 35 36 38 39 38 39 40 40 41 41 41 41 42 42 44 45 46 47 47 48 48 49 50 51 52 53 53 54 55 55 55 54 54 54 54 54 54 55 55 55
32 33 35 37 37 38 40 41 41 41 41 42 43 44 44 45 45 45 46 47 48 48 48 49 50 51 51 52 52 53 54 54 54 54 54 54 54 54 55 55 56 56 56
32 33 34 37 37 39 40 41 43 43 43 44 44 45 45 46 47 47 48 48 49 49 51 51 51 51 51 52 52 53 53 54 54 55 54 54 54 54 55 56 56 56 56
32 34 35 36 38 40 41 42 43 43 44 45 46 46 46 47 47 48 49 50 50 51 51 51 51 51 52 52 52 53 54 54 55 55 56 56 55 56 56 56 56 57 56
33 35 36 37 39 41 42 42 43 44 45 46 46 47 47 48 49 49 50 51 51 51 52 52 52 52 52 52 53 53 54 55 56 56 56 56 56 57 57 57 57 57 57
36 37 37 39 40 41 42 43 44 45 47 47 48 49 49 50 51 51 52 53 53 53 53 53 53 53 54 54 54 55 55 56 57 57 57 57 57 57 57 57 57 56 55
38 39 39 41 42 43 44 45 46 47 48 49 50 51 51 52 52 53 53 53 53 52 52 53 53 54 54 55 56 56 56 56 56 56 56 56 56 56 56 56 55 55 55
39 40 41 42 44 45 46 47 48 49 49 50 51 51 51 52 52 53 53 53 52 52 52 53 54 54 55 56 56 56 55 55 55 55 55 55 55 55 55 54 54 54 54
41 41 42 44 45 46 47 48 48 49 50 50 51 51 52 52 52 52 52 53 52 52 53 53 54 55 55 55 55 55 54 55 55 55 55 55 54 54 53 53 53 53 53
42 43 43 44 45 46 47 47 48 49 50 50 50 51 51 51 51 52 52 53 53 53 53 54 54 54 55 55 54 54 54 54 54 54 54 54 53 53 53 53 53 53 52
42 42 43 44 45 46 47 48 48 48 49 50 50 50 50 50 50 51 51 52 52 53 53 54 54 54 54 54 53 53 54 53 53 53 53 53 53 52 52 52 53 52 51
42 43 44 44 45 46 47 47 47 47 48 48 49 49 49 49 49 50 51 51 52 52 53 53 53 52 52 52 52 52 52 52 52 52 52 51 51 50 51 51 52 51 50
43 43 44 44 45 46 46 46 46 46 47 48 48 49 49 49 49 50 50 50 51 51 51 51 51 51 50 50 50 50 51 51 51 50 50 49 49 49 49 49 49 49 48
43 43 44 44 45 45 45 46 47 47 47 47 48 49 48 49 49 49 49 50 50 50 51 50 50 49 49 49 49 49 49 49 49 49 49 48 48 48 47 47 47 46 45
44 44 44 44 44 44 46 47 47 47 47 47 48 48 48 48 49 49 49 50 50 50 50 49 48 47 48 48 48 48 48 47 47 47 46 46 46 45 45 44 44 43 42
45 45 45 45 45 45 46 46 46 46 46 46 46 47 48 48 48 48 48 49 48 48 48 47 46 46 46 46 46 46 46 45 44 44 43 43 43 42 41 41 40 40 39
46 46 46 46 46 46 46 46 46 46 45 46 46 46 46 46 46 47 47 47 46 45 45 44 44 44 44 44 44 43 42 42 41 40 40 40 39 38 38 37 37 37 37
45 45 45 45 45 45 45 45 45 44 45 45 45 45 45 45 45 45 45 44 43 42 42 41 41 42 42 41 41 40 39 38 38 38 38 37 36 36 35 35 35 35 35
44 44 44 44 44 44 44 44 44 43 43 43 43 43 43 43 43 43 43 42 41 40 40 39 39 40 39 39 38 38 38 37 37 37 35 35 34 34 33 33 33 33 33
43 43 43 43 43 42 42 42 42 42 42 42 42 42 42 42 41 41 40 40 39 39 38 38 38 37 37 37 36 36 36 36 35 34 33 33 33 32 31 31 31 31 30
42 42 42 42 42 42 42 41 41 41 41 40 40 40 40 40 39 38 37 37 36 36 36 36 35 35 35 34 35 34 34 33 33 32 32 31 30 30 30 29 29 28 27
41 41 40 40 40 40 40 39 39 39 39 39 39 38 38 38 37 36 35 35 35 34 34 33 32 32 32 32 32 32 31 31 30 29 29 28 28 28 28 28 27 26 25
39 39 38 38 38 38 38 38 38 37 37 37 37 37 36 35 34 34 34 33 33 32 32 31 31 31 31 30 30 30 30 29 28 27 27 27 27 27 26 25 24 23 22
37 37 37 37 37 37 36 36 35 34 34 34 34 34 33 33 32 32 31 31 31 30 30 30 31 30 29 28 28 28 27 27 26 26 26 25 25 24 23 23 22 21 20

GEFSGL_500_meanwind_192.txt.gz
Wind_Speed
23 24 23 25 27 29 29 31 33 35 35 35 36 37 38 38 38 38 38 39 41 42 43 44 44 45 46 46 47 48 49 50 50 51 52 52 52 52 51 51 52 53 53
23 24 26 26 28 29 30 31 33 34 35 34 35 37 38 37 38 38 39 40 40 42 43 43 44 46 47 48 49 50 51 51 52 52 52 52 52 53 53 54 53 54 54
23 24 26 28 29 30 31 32 33 35 36 36 37 38 39 39 40 40 41 42 42 43 44 45 46 47 47 48 49 50 51 51 52 52 53 54 54 55 54 55 55 55 55
25 25 28 29 30 31 32 34 35 37 38 39 39 40 40 41 42 42 43 43 44 45 46 47 48 49 49 50 50 50 51 52 52 53 53 54 55 55 55 55 55 55 55
26 27 28 29 32 34 35 36 37 38 39 40 40 41 41 42 43 44 44 45 46 47 48 49 50 50 51 52 52 52 53 53 53 53 53 54 54 54 55 56 56 56 56
28 29 30 31 32 34 36 38 38 39 40 41 41 42 42 43 44 45 46 47 48 49 50 51 51 51 52 52 53 53 52 52 53 53 53 53 54 55 56 56 56 56 56
30 31 32 33 33 34 36 37 38 39 40 41 43 44 44 44 45 46 47 49 50 51 51 51 51 52 52 52 53 53 52 53 53 53 53 54 55 55 56 57 57 57 56
32 33 33 34 35 36 37 38 39 41 42 43 44 46 47 47 48 48 49 50 51 51 52 52 52 52 52 52 52 52 52 52 53 53 54 54 55 56 56 56 56 56 55
33 34 35 35 36 38 38 39 40 41 43 44 45 46 47 48 49 50 51 52 52 52 53 53 53 53 53 52 52 52 52 52 53 53 54 55 56 56 56 56 55 55 54
34 34 35 37 38 39 40 41 41 42 43 45 46 47 47 48 49 51 51 51 51 51 52 52 53 53 53 53 54 54 53 53 54 54 54 55 55 56 56 56 55 55 54
35 36 36 37 39 40 41 42 42 42 43 44 46 46 47 48 49 50 51 51 51 51 51 51 52 52 53 53 54 54 54 54 54 54 55 55 55 55 55 55 55 55 54
36 36 37 38 39 40 41 42 43 43 44 44 45 46 46 47 48 49 49 50 50 50 51 51 51 52 52 53 53 54 54 54 54 55 55 54 54 54 55 55 55 55 54
38 38 39 40 40 40 41 41 42 43 43 44 45 45 46 47 47 48 48 48 49 49 49 50 51 51 51 52 53 53 53 53 54 54 54 54 54 54 54 54 54 54 54
39 40 40 40 40 41 41 42 42 43 43 44 45 45 46 47 46 46 46 47 48 48 48 50 50 51 51 51 52 52 53 53 53 53 53 53 54 54 54 53 52 52 52
41 41 41 41 41 42 42 42 43 43 44 44 44 44 45 45 45 45 46 46 47 49 49 50 50 50 51 51 51 51 52 52 52 52 52 52 52 52 52 51 51 51 50
41 41 42 42 43 43 43 43 44 44 44 43 43 44 44 45 45 45 46 47 48 48 49 50 50 51 50 50 50 50 51 51 51 51 50 50 50 50 50 50 49 49 48
42 42 43 43 44 44 44 44 43 43 44 44 44 45 45 46 46 46 47 47 47 48 48 49 49 48 48 48 48 49 49 49 48 48 48 48 48 48 48 47 47 46 45
43 44 44 44 45 45 44 44 43 43 43 44 45 45 46 47 47 48 48 48 48 48 48 47 46 46 47 47 47 47 46 45 45 45 46 46 45 45 45 44 43 43 43
44 44 45 45 45 45 45 45 45 45 45 45 45 46 47 47 47 48 47 47 47 47 46 45 45 45 45 45 45 44 44 43 43 43 43 43 43 42 41 41 41 40 40
44 44 45 45 45 45 45 45 45 45 46 46 47 47 47 47 46 46 46 46 46 45 45 44 44 44 43 43 42 41 41 40 40 40 40 40 39 39 39 39 38 37 36
44 45 45 45 45 45 45 45 46 46 46 46 46 46 46 45 45 45 45 45 45 44 44 43 43 42 42 41 40 39 38 38 37 37 37 37 37 37 37 36 35 34 33
45 45 45 45 45 45 45 45 46 45 45 45 45 44 44 44 44 44 43 43 43 42 42 42 41 40 39 38 37 36 36 35 35 35 35 35 35 34 33 33 32 31 30
46 46 45 45 45 45 45 45 44 43 42 42 42 42 42 41 41 41 41 40 40 40 39 38 37 36 36 35 35 35 34 34 34 34 33 33 32 31 30 29 29 28 28
45 45 45 44 44 43 43 42 41 41 40 40 39 39 38 38 38 38 38 38 37 36 35 34 34 33 33 33 33 32 32 32 32 31 31 30 29 29 28 27 26 26 25
43 42 42 41 41 40 39 39 39 38 38 37 37 36 36 36 36 35 34 34 33 33 32 31 31 31 31 30 30 30 30 30 29 29 28 27 27 26 26 25 25 24 24
40 40 39 39 38 37 37 37 36 36 35 34 34 33 33 33 32 32 31 30 30 30 30 30 29 29 28 28 28 28 27 28 27 27 26 26 25 24 24 23 23 23 22

GEFSGL_500_meanwind_198.txt.gz
Wind_Speed
21 23 24 25 26 26 28 28 29 32 34 35 36 36 37 38 39 40 41 43 43 42 42 43 44 44 44 45 46 46 47 47 48 48 49 50 51 52 52 53 54 54 54
20 21 23 24 26 27 27 28 30 33 35 35 36 37 38 38 39 40 40 41 42 42 43 44 45 44 44 45 45 46 47 48 48 49 50 51 52 53 54 55 55 54 54
20 20 21 23 24 26 27 29 31 33 35 35 36 37 39 39 39 40 40 41 42 43 44 44 44 45 45 46 46 47 48 48 48 50 51 52 53 54 54 55 55 55 55
21 21 21 23 24 25 27 30 31 33 35 36 37 38 39 39 39 39 40 42 43 44 44 45 45 46 46 47 47 48 49 49 50 51 52 53 54 55 55 55 55 56 56
22 22 23 23 24 25 27 29 31 33 34 35 36 37 38 39 39 39 40 41 43 44 45 45 45 46 46 47 48 48 49 50 52 52 53 54 54 55 55 55 55 55 56
23 24 25 25 25 26 28 29 32 33 35 36 36 36 38 39 39 40 41 41 42 43 44 45 45 46 47 48 49 50 51 52 53 53 53 54 54 55 55 55 55 55 56
25 25 25 25 25 26 28 30 32 34 35 36 36 37 38 39 40 41 41 42 43 43 44 45 46 48 49 50 51 52 53 54 54 55 54 54 55 55 55 55 56 56 56
28 28 28 28 28 28 29 30 31 32 33 34 35 37 38 39 41 42 43 44 44 45 46 47 48 49 51 52 52 53 53 54 54 54 54 54 55 55 56 56 56 56 56
30 30 30 30 29 29 29 29 30 32 34 36 36 37 38 40 42 44 44 45 46 47 49 49 49 50 50 51 52 53 53 53 53 54 54 55 56 56 56 57 57 57 56
31 31 31 31 31 31 31 31 32 33 35 37 38 39 40 41 43 44 44 45 47 48 50 51 51 51 51 51 52 53 53 53 54 54 54 54 55 55 56 56 57 57 56
32 33 33 32 33 33 33 33 34 35 36 37 39 40 41 42 43 44 44 45 46 47 48 49 50 51 51 52 53 54 54 54 54 55 54 54 55 55 55 55 56 55 55
33 33 34 34 35 35 35 35 36 37 38 39 39 40 41 41 42 42 44 45 45 46 47 49 50 51 52 52 52 53 54 54 54 54 54 54 54 54 54 54 55 55 54
34 34 35 35 36 37 37 37 37 37 38 39 40 40 40 41 42 43 44 45 46 47 48 49 50 51 51 52 52 53 53 53 53 53 53 54 53 53 53 53 53 52 52
34 34 35 36 37 37 38 38 38 38 38 38 39 40 41 42 43 44 45 45 46 46 47 47 48 49 50 50 51 52 52 52 53 53 52 52 52 52 52 51 51 51 51
35 35 36 36 37 37 38 38 38 38 39 40 41 41 42 43 43 44 45 44 44 44 45 45 46 46 47 48 49 50 51 51 51 51 50 49 49 49 49 50 50 50 49
36 37 37 37 38 38 38 38 38 39 40 41 42 42 42 42 42 42 42 43 43 43 44 44 44 45 46 46 47 48 49 49 48 48 48 47 47 47 47 47 47 46 46
37 37 38 38 39 39 39 39 39 40 41 41 41 41 41 41 41 41 41 41 42 42 43 44 44 45 45 46 47 47 47 47 47 47 46 46 45 45 44 44 44 44 44
37 37 38 38 39 39 39 40 40 40 40 40 40 40 40 40 40 40 40 41 42 43 43 44 44 45 45 46 46 46 46 46 45 45 44 43 43 42 42 42 42 41 41
37 38 38 38 39 39 39 39 40 40 40 40 40 40 41 40 40 40 41 42 42 43 44 44 45 45 45 45 45 45 44 43 43 42 41 40 40 40 39 39 39 38 38
38 38 38 38 38 39 39 39 39 40 40 40 40 40 41 41 41 41 42 43 43 44 44 44 45 45 45 44 44 43 42 41 40 39 38 38 38 37 37 37 36 36 36
38 39 39 39 39 39 40 40 39 39 39 39 40 41 41 41 42 42 43 43 43 43 44 43 43 42 42 42 42 40 39 38 37 37 37 37 36 35 35 35 35 35 35
39 39 40 40 40 40 40 40 40 40 40 40 40 40 41 41 41 42 42 42 42 42 41 40 40 40 39 39 38 37 37 36 36 36 35 35 34 34 34 34 34 34 34
39 39 40 40 40 40 40 40 40 41 41 41 41 41 41 41 41 41 40 40 40 39 39 38 38 37 37 36 35 35 35 35 34 34 33 33 32 32 32 32 32 32 32
39 39 40 40 40 40 41 41 41 42 41 41 41 41 41 40 39 39 38 38 38 38 38 37 36 36 35 35 34 34 33 33 32 31 31 31 31 31 31 31 30 30 29
39 39 39 39 40 41 41 41 41 41 41 40 40 39 39 38 37 36 36 36 36 36 35 34 34 33 33 33 32 32 31 31 31 30 30 30 30 29 29 28 28 28 27
38 38 39 39 40 40 40 40 40 40 39 38 38 37 36 35 34 34 34 33 33 32 32 32 32 32 31 31 30 30 30 29 28 28 28 28 27 27 27 27 26 26 25

GEFSGL_500_meanwind_204.txt.gz
Wind_Speed
27 28 28 27 26 27 30 32 32 33 33 34 36 38 39 40 42 43 45 46 46 47 48 48 49 48 47 48 48 47 46 46 47 47 47 47 47 47 47 47 48 49 50
27 27 27 27 27 27 29 31 32 33 34 35 36 36 37 39 41 42 43 43 45 46 47 48 48 47 48 49 49 48 47 46 47 47 48 48 48 48 48 48 50 51 51
26 26 26 27 28 29 29 30 30 31 33 35 37 38 38 38 39 39 40 42 44 45 45 46 46 47 47 47 48 48 48 47 47 47 48 49 49 49 49 50 51 52 53
25 26 27 27 28 29 30 29 29 30 31 34 35 36 38 38 38 38 39 40 41 42 43 44 44 45 46 47 48 49 49 49 49 48 49 50 50 51 51 52 52 53 54
26 26 27 28 28 29 30 29 29 30 31 32 33 34 35 36 36 37 38 38 40 41 43 44 44 45 45 46 48 48 49 50 50 50 50 51 52 52 53 54 54 55 55
27 27 28 28 29 30 31 30 31 31 32 33 33 33 34 35 36 37 38 39 40 41 43 45 45 44 45 46 47 48 49 50 51 51 52 52 53 54 55 56 56 56 56
27 27 28 28 28 29 30 30 31 31 31 32 33 34 35 36 37 38 39 39 40 42 43 43 44 44 45 46 48 49 50 51 52 52 53 53 54 55 57 57 57 57 58
27 27 27 27 27 28 29 30 31 31 31 32 33 34 35 37 38 39 39 39 39 40 41 43 44 44 45 46 48 49 50 51 51 52 53 53 55 56 56 57 58 58 59
28 28 28 28 28 29 29 30 30 30 31 32 33 33 34 35 37 37 38 38 39 39 40 41 42 43 45 46 48 49 49 50 51 52 53 53 54 55 56 58 58 59 59
29 28 27 28 29 29 29 30 31 31 32 33 33 33 33 34 35 36 37 37 38 39 41 43 44 45 46 47 47 48 48 49 51 52 53 54 54 55 56 57 58 59 59
29 29 28 28 28 29 29 29 30 30 30 31 32 32 33 33 35 36 37 37 38 40 41 42 43 44 46 47 47 48 49 50 51 52 53 54 54 55 56 57 58 58 58
30 30 29 29 29 29 30 30 30 30 29 30 30 31 33 34 35 36 37 38 39 40 41 42 43 43 44 46 47 48 49 50 51 51 52 53 54 55 56 56 57 58 58
30 30 31 31 30 30 30 30 30 30 31 31 31 32 33 35 36 37 38 39 40 40 41 42 42 43 44 45 46 47 48 49 50 51 51 52 53 55 55 56 57 57 56
31 31 31 32 32 31 31 31 31 32 32 33 33 33 33 35 36 37 37 38 39 39 40 41 41 42 42 43 44 45 46 47 49 50 50 51 52 53 54 54 54 53 52
32 33 33 33 33 33 33 32 32 33 34 34 34 35 35 36 36 37 38 38 38 38 39 40 40 41 42 43 44 44 45 46 47 48 49 50 51 51 51 50 50 49 49
33 34 34 34 34 34 34 34 34 35 35 36 36 37 37 37 37 38 38 38 38 39 39 39 40 41 42 42 43 44 44 45 47 47 48 49 49 48 47 46 46 46 46
34 34 34 34 34 35 35 36 35 36 37 37 37 37 37 38 38 38 38 38 38 38 39 39 40 40 41 42 43 43 44 45 46 47 47 46 46 45 44 43 43 43 43
33 34 35 35 35 35 35 36 36 37 36 37 37 38 38 38 38 38 37 37 38 38 38 39 40 41 42 42 42 43 44 45 45 45 45 45 44 43 42 42 42 41 41
34 35 35 35 35 35 35 35 36 36 36 37 37 38 38 38 38 38 38 38 38 38 39 40 40 41 41 42 42 43 43 43 43 43 43 42 41 41 41 40 40 39 39
35 35 35 35 36 35 35 35 35 36 36 36 37 37 37 37 37 38 38 39 39 40 40 40 41 41 41 41 41 41 41 41 41 41 40 40 40 39 38 38 37 37 37
35 35 35 35 35 35 35 35 36 36 36 37 37 37 37 37 37 38 38 39 39 40 40 40 40 40 40 39 39 39 39 39 39 39 38 38 38 37 36 35 35 35 35
34 34 34 34 35 35 36 36 37 37 37 37 37 37 37 37 38 38 38 38 38 39 39 39 39 39 39 38 38 38 38 38 38 37 37 36 36 34 34 35 35 34 34
34 34 34 35 35 36 37 37 37 37 37 37 37 37 37 38 38 38 39 39 39 38 38 38 38 38 38 37 37 37 36 36 36 36 35 34 33 33 34 34 34 33 33
34 34 35 35 36 36 37 37 38 38 37 37 37 38 38 38 39 39 39 39 39 38 38 37 37 36 36 36 36 35 35 35 35 34 33 33 33 33 32 32 32 32 32
34 35 35 35 36 37 37 37 37 37 37 37 38 38 38 38 38 38 38 38 38 37 37 36 35 35 34 34 34 34 33 33 32 31 31 31 31 31 31 30 30 30 29
35 35 36 36 36 36 36 36 36 36 37 37 37 37 37 37 37 37 37 37 36 36 35 34 33 33 33 33 33 32 31 30 30 30 30 30 30 30 29 28 28 28 27

GEFSGL_500_meanwind_210.txt.gz
Wind_Speed
29 30 30 31 30 30 30 30 31 32 33 34 36 37 37 38 39 41 42 44 45 46 46 48 48 48 49 49 49 48 49 50 50 50 50 51 50 51 51 50 50 51 51
30 30 31 31 31 31 31 31 31 32 33 34 36 37 38 38 39 40 42 43 45 45 46 48 48 48 48 49 49 48 48 49 50 50 50 51 51 51 51 52 52 52 52
30 30 30 30 30 31 31 32 32 33 33 35 36 37 37 38 38 39 40 42 44 44 45 46 47 47 47 48 48 48 48 49 50 50 49 50 51 51 52 52 52 53 53
30 30 30 30 30 31 31 33 34 34 34 34 35 35 36 37 38 38 39 41 42 43 44 45 46 46 46 47 47 48 49 50 51 50 49 50 51 51 52 53 53 54 53
30 30 30 30 30 30 31 32 34 34 33 33 34 34 35 36 36 37 39 39 40 41 42 44 45 45 45 46 47 48 49 50 51 51 50 50 51 52 52 53 53 54 53
31 30 30 30 30 30 31 31 31 31 33 33 33 34 34 34 34 35 37 38 38 39 39 41 42 44 44 46 46 47 48 49 49 50 50 50 50 52 52 52 53 54 54
31 31 30 30 29 29 29 30 30 30 31 32 32 32 32 32 33 34 34 35 37 38 38 39 40 42 43 44 46 46 47 47 47 48 49 49 50 51 52 52 53 54 55
31 30 30 29 29 29 28 29 30 30 30 31 30 30 31 31 32 34 34 35 36 38 38 39 40 41 42 44 45 45 46 47 47 48 48 48 49 50 51 52 52 54 55
29 29 29 29 29 29 29 28 28 29 30 29 29 30 30 30 31 32 33 35 35 36 37 38 40 41 42 43 44 45 45 46 46 47 49 49 50 51 52 52 53 54 55
29 28 28 28 28 28 29 29 28 28 28 29 29 29 29 30 31 32 33 34 34 36 38 39 40 41 42 43 43 44 45 45 46 47 49 50 51 51 52 52 53 54 54
28 28 28 27 27 27 27 28 28 28 29 29 29 29 30 31 32 33 34 34 34 35 37 39 40 41 42 43 43 43 44 45 46 47 49 49 50 50 50 50 51 52 53
28 28 28 27 26 27 27 27 27 27 28 29 29 29 30 31 32 33 34 35 34 35 36 37 37 38 40 41 42 43 44 45 46 46 46 47 47 48 49 49 49 50 51
29 29 29 28 28 28 28 28 28 28 28 28 28 28 29 30 31 33 34 34 35 35 36 37 38 38 39 40 41 42 43 43 43 44 44 44 45 46 46 47 48 49 50
29 29 29 28 28 29 28 28 29 29 29 30 30 31 31 32 32 33 33 34 34 35 35 35 36 37 38 39 41 41 41 41 41 42 42 42 43 44 44 46 47 48 48
29 28 28 29 29 30 30 29 29 30 30 30 31 32 32 33 33 34 34 34 34 35 35 35 36 37 38 39 39 39 39 39 40 41 41 42 42 43 45 46 47 47 46
30 29 29 29 29 30 30 30 30 31 31 32 32 33 34 33 34 34 34 34 35 35 36 36 37 37 37 37 37 37 38 39 39 40 41 42 42 44 45 45 45 45 45
31 31 30 30 30 30 31 31 32 32 32 33 34 34 34 34 34 34 35 35 35 35 35 36 36 36 36 37 37 38 38 39 40 40 41 42 43 44 44 44 43 43 43
30 30 29 30 30 31 31 32 32 32 33 33 34 34 35 35 35 35 35 35 36 36 36 36 36 36 36 37 37 37 38 39 40 41 42 42 42 43 43 42 41 41 41
30 29 30 30 30 31 32 32 33 33 33 33 34 34 34 35 35 35 35 36 36 36 36 36 36 36 36 36 37 37 38 39 40 40 41 41 41 41 40 40 40 40 40
29 30 30 30 30 31 31 32 32 33 33 34 34 35 35 35 35 35 36 36 36 36 36 36 36 36 37 37 37 38 38 38 38 38 38 38 38 38 38 38 39 39 39
30 31 31 31 31 31 31 31 32 33 34 34 35 35 35 35 35 36 36 36 35 35 36 36 37 37 37 38 37 37 37 37 37 37 37 36 36 36 36 37 37 37 37
31 32 32 32 31 31 32 32 32 33 33 34 34 35 35 35 35 35 35 35 35 35 36 36 36 36 36 36 36 36 36 36 36 36 35 35 35 35 36 36 36 36 36
32 32 32 32 31 32 32 32 33 33 34 34 34 35 35 35 35 35 35 35 35 36 36 36 36 36 35 35 36 36 36 36 35 35 34 34 34 35 35 35 35 35 34
32 32 32 32 32 32 32 32 32 32 32 33 33 33 34 34 34 34 34 34 35 35 35 35 35 35 35 35 35 35 35 34 34 34 34 35 35 35 34 34 34 34 33
31 31 31 31 31 31 31 31 31 32 32 32 32 33 33 33 33 33 33 33 34 34 34 34 34 34 34 34 34 34 34 34 33 34 34 34 34 34 34 33 33 33 31
30 30 31 31 31 31 31 32 32 32 32 32 32 32 32 32 32 32 33 33 34 34 34 34 34 34 34 34 34 34 34 33 33 33 34 34 34 33 33 32 31 31 30

GEFSGL_500_meanwind_216.txt.gz
Wind_Speed
31 32 33 33 32 33 33 33 34 35 36 36 36 37 37 37 37 38 39 38 39 39 41 42 44 44 45 45 47 48 48 48 48 48 49 50 50 51 51 51 51 51 51
32 32 33 33 33 33 33 34 34 35 35 36 37 37 37 37 37 37 38 38 39 40 41 42 42 43 43 45 46 47 47 47 47 48 49 49 50 52 52 52 51 51 52
33 33 33 33 34 34 34 34 34 34 34 35 36 36 37 36 37 37 38 39 40 40 40 41 41 42 42 42 43 45 45 46 47 48 48 49 50 50 51 51 51 52 52
33 33 33 33 34 34 34 34 35 35 35 35 35 35 36 36 36 37 38 39 40 40 40 41 42 41 42 42 42 43 44 45 46 47 47 48 49 49 50 50 51 52 52
33 34 34 34 34 34 34 35 35 35 35 36 36 36 36 36 36 37 37 38 39 40 41 41 42 42 41 42 42 43 44 44 44 45 46 46 48 48 49 49 50 51 51
33 34 34 35 35 35 35 35 35 35 35 35 35 35 35 36 36 36 36 37 38 39 40 40 41 42 42 42 42 42 43 43 43 43 45 46 48 48 49 49 50 50 51
34 35 35 35 35 35 35 35 35 34 34 34 34 33 33 34 34 35 36 36 37 38 38 39 40 41 42 42 42 42 42 42 42 43 45 45 47 48 49 50 50 50 50
34 34 34 34 34 34 34 34 34 33 32 32 32 32 32 32 34 34 35 35 36 36 37 38 39 40 40 41 41 41 41 41 42 43 44 45 46 48 48 49 49 49 49
33 33 33 33 33 33 32 32 32 32 31 31 31 31 31 32 32 33 35 35 35 36 36 37 38 38 39 39 40 40 40 41 42 42 43 45 46 47 47 47 48 48 48
33 32 32 32 32 31 31 31 31 30 31 31 31 31 32 32 32 33 34 34 34 34 35 36 36 37 38 39 40 41 41 42 42 42 43 44 44 45 45 46 47 47 48
32 31 31 31 30 30 30 30 30 30 30 30 30 31 31 32 32 32 33 34 34 34 35 35 36 37 38 39 40 41 41 42 42 42 42 42 43 44 44 45 45 46 47
32 32 31 30 30 30 30 29 29 30 30 30 29 29 30 30 31 31 32 33 34 34 34 35 36 36 37 38 39 40 40 40 40 41 41 41 42 43 43 44 44 45 47
32 31 31 30 29 29 29 29 29 29 30 29 29 30 30 30 31 31 31 32 33 34 34 34 35 35 36 36 37 37 38 38 39 40 40 41 41 42 43 43 44 45 46
31 31 31 30 29 29 29 28 28 28 28 29 29 29 29 30 30 31 31 32 32 33 34 34 34 35 35 35 36 37 37 38 38 38 39 39 40 41 42 42 42 43 43
30 30 30 29 28 28 28 28 28 28 28 28 29 29 29 29 29 30 31 31 32 32 32 33 33 34 35 35 35 36 37 38 38 38 38 39 39 40 40 40 40 41 42
29 29 29 29 28 28 27 27 27 27 27 28 29 29 29 29 30 30 31 31 31 32 32 32 33 33 34 35 36 36 37 37 37 37 37 38 38 39 39 38 39 40 41
28 28 28 28 28 27 27 27 27 28 28 28 28 29 29 30 31 31 31 32 32 32 32 32 33 33 33 34 34 35 36 36 36 36 37 37 37 38 38 38 39 40 40
26 27 27 27 27 26 26 27 28 28 28 29 29 29 29 30 30 31 32 32 32 32 32 33 33 33 34 34 34 34 34 35 35 35 36 36 36 37 37 38 38 38 37
27 26 27 27 26 26 27 27 27 28 28 29 30 30 31 31 30 31 31 31 32 32 33 33 33 34 34 34 34 34 34 34 35 35 35 35 36 36 36 36 36 36 35
27 27 27 26 26 26 27 27 28 28 28 29 30 30 31 31 31 32 32 32 33 33 33 33 33 34 34 34 34 34 34 34 35 35 35 35 36 35 35 35 35 35 34
26 26 26 27 27 27 28 28 28 29 29 30 30 30 30 31 32 33 33 33 33 33 33 33 33 33 33 33 33 33 34 34 35 35 35 35 35 35 34 34 35 35 35
26 26 27 27 28 28 28 29 29 29 29 30 30 30 31 32 32 33 33 33 33 33 33 34 34 34 33 34 34 33 33 33 34 35 35 35 35 35 35 35 35 35 35
27 27 28 28 29 29 29 29 29 29 30 30 30 31 31 32 32 33 33 33 33 33 33 33 33 33 33 33 33 33 33 34 34 34 34 34 35 35 35 35 35 34 34
27 28 28 29 29 29 29 29 30 30 30 30 31 31 31 31 32 32 31 31 31 32 32 32 32 32 32 32 32 33 33 34 34 35 35 34 34 35 35 34 34 34 33
28 28 29 29 29 29 30 30 30 30 30 31 31 31 31 30 30 30 30 30 31 31 31 31 31 31 32 32 32 33 33 34 34 34 34 34 33 33 33 33 33 33 33
28 28 29 29 29 29 29 30 30 31 31 31 31 31 30 30 30 30 30 30 31 31 31 31 31 31 31 32 32 33 33 33 32 32 32 32 32 31 31 32 32 31 32

GEFSGL_500_meanwind_222.txt.gz
Wind_Speed
34 35 34 34 35 36 36 36 36 37 37 37 38 38 39 39 39 40 40 40 40 40 40 41 41 41 41 42 43 44 44 44 44 44 45 45 46 48 48 50 50 50 51
36 36 36 35 35 36 36 36 37 37 38 38 38 39 40 40 40 40 39 39 39 38 38 39 40 40 41 41 42 43 43 44 44 44 45 45 46 46 47 49 50 50 50
37 37 37 37 37 37 37 37 37 37 37 38 38 38 39 40 40 41 40 39 39 38 38 38 39 40 41 41 42 43 43 44 44 45 45 46 47 47 47 48 49 49 50
38 37 37 37 37 38 38 38 38 37 38 38 39 39 39 39 40 40 41 39 38 38 38 38 39 40 40 41 42 43 44 45 45 45 45 46 46 46 47 48 48 49 49
38 38 38 38 38 38 38 38 38 38 38 39 39 39 39 40 40 40 40 40 39 38 38 38 39 39 40 41 42 42 43 44 44 44 44 45 45 46 47 48 49 48 48
39 39 39 39 38 38 38 38 39 39 38 38 38 38 38 38 38 39 38 38 38 38 38 38 39 39 39 40 41 42 42 42 42 43 44 44 44 45 47 48 49 49 49
39 39 39 39 39 38 38 38 38 38 38 38 38 38 38 37 37 37 37 37 37 37 38 39 39 38 38 39 40 40 40 41 41 43 44 44 44 45 47 47 48 48 48
39 39 39 38 38 38 38 37 37 37 37 37 37 37 36 36 36 36 35 36 36 36 37 37 38 38 39 39 39 39 40 40 41 41 42 43 44 44 45 46 47 47 48
38 38 38 38 38 37 37 36 36 36 36 36 36 35 35 35 35 35 34 35 35 35 35 35 35 36 37 38 38 38 38 38 39 40 41 42 42 43 44 46 47 47 47
38 37 37 37 37 37 36 35 35 35 35 35 34 34 34 34 34 34 34 34 34 35 35 35 35 36 36 36 37 37 38 38 39 40 40 41 42 43 44 45 46 46 46
37 37 37 36 36 36 36 35 35 34 34 34 33 33 33 33 34 34 34 34 34 35 35 35 36 37 37 37 37 38 38 39 39 40 41 42 42 43 43 43 45 45 45
37 37 37 36 36 35 35 35 34 34 34 33 33 33 33 33 33 33 34 34 35 35 35 35 35 36 37 37 37 38 38 39 39 40 40 40 41 42 43 44 43 43 43
36 36 36 36 35 34 34 33 33 32 33 33 33 33 33 32 32 33 33 33 34 35 34 34 34 35 36 37 38 38 39 39 39 39 39 40 40 41 42 41 40 41 41
34 34 34 34 34 33 33 33 33 33 33 32 32 32 32 32 32 32 32 32 33 33 33 33 34 34 35 36 37 37 37 38 38 38 39 39 40 40 39 39 40 40 40
31 31 32 32 31 32 31 32 32 32 32 31 31 31 31 31 32 32 32 32 31 31 32 32 32 33 33 34 35 36 36 37 38 38 39 39 39 38 38 38 38 38 39
30 29 29 29 29 29 29 29 29 29 29 29 29 29 29 30 31 31 32 32 32 32 32 31 31 32 33 33 34 36 36 37 37 38 38 38 37 37 37 38 38 38 38
31 30 29 28 28 27 27 26 26 26 26 26 27 28 28 28 28 29 30 30 30 30 30 30 30 31 32 33 34 34 35 36 36 36 36 35 36 36 36 37 37 38 38
31 30 28 28 27 27 26 25 24 24 25 25 26 27 27 28 28 28 28 29 29 29 30 30 30 31 31 32 33 33 34 34 35 35 35 35 36 36 36 36 36 36 36
28 28 28 27 27 27 26 25 25 24 24 24 25 25 26 27 27 28 28 28 29 29 29 30 30 30 31 31 32 32 33 33 33 33 34 35 35 35 35 35 35 35 35
26 27 27 26 26 26 25 25 24 24 24 24 25 25 26 26 27 28 28 28 28 28 29 29 30 30 30 30 31 31 32 32 32 32 33 34 34 35 35 35 35 35 35
26 26 26 25 24 24 25 25 25 25 25 25 25 26 26 27 27 28 28 28 28 28 29 29 29 29 30 30 31 31 31 31 32 32 33 33 34 34 34 34 35 35 34
26 27 26 26 26 26 26 26 26 26 26 26 27 27 27 28 28 28 28 28 28 29 29 29 30 30 30 31 32 32 32 32 32 33 34 34 34 34 34 34 35 35 35
25 26 27 26 26 26 26 26 26 26 26 26 27 27 27 28 28 29 29 29 30 30 30 30 30 30 31 31 32 32 32 32 33 33 34 33 34 34 34 34 34 34 35
24 26 26 27 26 26 26 26 27 27 27 27 28 28 28 28 28 29 29 29 29 29 29 29 30 30 31 31 31 31 32 32 32 32 32 32 33 33 33 34 34 34 34
24 25 25 26 26 26 26 27 27 27 27 27 28 28 28 28 28 28 28 28 28 28 29 29 30 30 31 31 31 31 31 31 31 31 31 32 32 32 32 32 32 32 32
24 24 25 25 26 26 27 27 27 27 27 27 27 27 28 28 28 28 28 28 28 29 29 30 30 31 31 31 30 30 30 30 30 30 30 31 30 30 30 30 29 29 29

GEFSGL_500_meanwind_228.txt.gz
Wind_Speed
40 40 40 40 41 40 40 40 40 41 41 42 42 42 42 42 43 43 43 42 42 42 43 43 44 44 45 44 44 44 44 44 44 43 44 44 44 45 46 46 46 46 48
42 41 40 40 40 40 41 41 41 41 42 42 43 43 43 43 43 42 42 42 43 43 43 44 44 45 45 44 44 43 44 44 44 43 44 44 44 45 46 46 47 47 47
44 43 42 41 41 41 41 41 42 42 42 43 43 43 43 42 42 43 43 43 43 43 43 43 44 44 44 44 43 44 43 43 43 44 44 44 43 44 44 45 46 46 47
44 44 43 43 42 42 42 42 42 42 43 43 43 43 43 43 43 43 43 43 43 43 43 43 42 43 43 43 44 44 44 45 45 44 44 44 43 44 44 44 45 46 47
44 43 43 43 43 43 43 43 43 43 42 43 43 43 43 43 43 43 43 43 42 42 42 42 42 42 43 43 44 44 44 45 45 45 44 43 43 43 44 45 46 46 47
44 44 43 44 44 44 44 44 43 43 43 43 44 44 44 44 44 44 44 43 43 42 42 42 42 42 42 42 42 44 44 44 44 44 44 44 43 44 44 45 46 45 46
44 44 44 44 44 44 44 43 43 43 43 44 44 44 44 44 44 45 44 44 43 42 42 41 41 42 42 42 42 43 43 44 44 44 44 44 44 44 44 44 45 45 45
43 43 44 45 44 44 44 44 44 44 44 44 44 44 44 44 44 44 44 43 43 42 42 41 41 40 41 42 41 42 42 42 42 43 43 43 43 44 44 44 45 45 45
42 43 44 44 44 44 44 44 43 43 44 43 43 43 43 43 43 42 42 42 41 41 41 41 41 40 40 41 41 41 40 40 40 41 41 41 41 41 42 42 43 45 45
41 42 42 42 43 43 43 43 43 43 42 42 42 41 41 41 41 41 41 40 40 40 39 39 39 39 39 40 40 40 40 40 39 39 40 40 41 41 41 41 42 43 43
40 41 41 41 40 41 41 41 41 41 41 40 40 40 40 40 40 39 39 38 38 38 37 37 37 37 38 38 38 38 38 39 39 39 39 40 41 41 41 41 42 42 42
39 39 39 39 39 39 39 39 39 39 38 38 38 38 38 38 37 38 37 37 37 37 37 36 36 36 37 37 37 37 37 37 38 38 39 39 40 40 41 41 41 42 41
37 37 37 37 37 37 37 36 36 36 36 36 36 36 37 37 37 37 36 36 36 36 36 36 36 36 36 37 37 37 37 38 38 37 37 38 39 39 40 40 40 40 40
36 35 35 35 35 35 34 34 34 33 33 34 34 34 34 35 35 36 36 35 35 36 36 35 35 35 35 35 36 36 37 37 38 38 38 38 38 38 38 38 38 38 39
33 33 33 32 32 33 33 32 32 32 32 32 33 33 33 33 33 34 35 35 36 35 35 35 35 34 35 35 35 36 37 37 37 37 37 37 37 37 37 37 37 37 38
31 30 30 30 30 31 31 31 31 31 30 30 31 32 32 32 32 32 33 34 34 35 35 35 34 34 34 34 34 34 34 34 35 35 36 36 36 36 37 37 36 37 37
32 31 30 30 30 30 30 29 30 30 30 29 29 30 30 30 31 32 32 32 31 32 32 32 32 32 32 32 33 33 33 33 33 33 34 34 35 35 35 36 36 36 37
32 32 31 29 29 29 29 29 29 29 29 28 29 29 29 29 29 30 30 30 30 30 30 30 31 31 31 31 32 32 32 32 32 32 33 34 34 34 34 35 36 36 36
30 30 30 30 29 29 29 29 29 29 29 28 28 28 28 28 28 29 29 28 28 28 28 29 29 30 31 31 31 32 32 32 32 33 33 34 34 34 35 35 35 35 35
29 29 29 29 29 29 30 29 29 28 29 28 28 28 28 28 27 27 28 28 27 27 27 28 29 29 30 30 31 32 32 32 32 33 34 34 34 34 34 35 35 34 35
27 27 29 30 30 30 29 29 29 29 28 27 27 26 26 26 26 26 26 26 26 26 27 28 28 29 29 30 30 30 31 31 32 33 33 33 33 33 34 34 34 34 34
25 26 27 28 29 29 29 29 29 28 28 27 27 26 26 26 26 26 26 26 26 27 27 28 28 29 29 29 30 30 30 31 32 32 33 33 33 33 32 32 32 32 32
25 25 25 26 27 27 28 28 27 27 27 27 27 26 26 26 26 26 27 27 27 27 27 27 28 28 29 29 30 30 30 31 32 32 32 32 32 31 31 31 30 30 30
24 24 24 25 26 26 26 26 26 27 27 27 27 27 27 27 26 26 26 27 27 27 27 28 28 28 29 29 29 29 30 31 31 31 31 31 30 30 30 29 29 29 29
24 24 24 25 25 26 26 26 26 26 27 27 27 27 27 27 26 26 26 26 27 27 27 27 28 28 28 28 29 29 30 30 30 30 30 30 29 29 29 29 29 29 29
24 24 24 25 26 26 26 26 26 27 27 26 27 27 27 27 27 27 27 27 28 28 28 28 28 28 28 28 28 29 29 29 30 30 29 29 29 29 29 29 29 29 29

GEFSGL_500_meanwind_234.txt.gz
Wind_Speed
45 45 45 45 45 45 44 44 44 43 43 43 44 44 44 44 44 44 44 44 44 44 44 44 44 44 44 44 45 45 45 45 45 44 44 44 44 45 45 45 46 46 45
46 46 46 46 45 45 45 44 43 43 42 42 42 43 43 44 44 45 45 45 45 45 44 44 44 44 45 45 46 46 45 45 45 43 42 43 43 44 45 45 45 46 46
46 46 47 47 46 45 45 44 44 44 44 43 43 42 43 43 44 45 45 45 45 44 44 44 44 44 44 44 44 44 44 44 43 42 42 42 43 44 44 45 45 46 47
46 46 47 47 47 46 45 45 45 45 45 44 44 44 43 43 44 44 45 45 44 44 43 43 43 43 43 43 43 43 43 43 43 42 42 43 43 44 44 45 46 47 46
45 45 46 46 47 47 46 45 45 46 46 46 46 45 45 45 45 45 45 45 45 44 44 43 43 43 43 43 43 43 43 43 44 44 44 44 44 45 45 45 46 45 45
43 44 45 45 46 46 46 46 45 45 46 46 46 46 46 46 46 46 46 46 45 45 44 44 44 44 44 44 44 44 44 44 45 45 45 45 45 45 45 45 45 45 46
41 42 42 43 44 44 45 46 45 45 45 46 47 47 47 46 46 46 46 46 46 46 46 45 45 45 45 45 45 45 45 45 46 46 46 46 45 45 45 45 45 46 46
39 39 40 41 42 43 44 45 45 45 45 46 46 46 46 47 47 47 47 47 47 46 46 46 45 45 45 45 46 46 46 46 46 46 45 44 44 44 45 46 46 47 46
39 39 39 40 41 41 43 44 45 45 45 45 46 46 46 46 46 46 46 46 46 46 45 46 45 45 45 45 45 45 45 45 45 44 44 44 44 44 45 45 46 46 46
39 39 39 39 39 40 41 42 43 43 43 44 44 44 44 45 45 45 45 45 45 45 45 45 45 45 45 44 44 44 44 44 43 43 44 43 43 44 44 44 45 45 45
39 39 38 38 38 39 39 40 40 41 41 42 42 42 42 42 43 44 44 43 43 43 43 44 44 43 43 43 42 42 42 42 42 43 43 42 42 42 42 42 42 43 43
40 39 39 38 38 38 38 39 39 39 39 39 40 40 41 41 41 41 42 42 42 42 42 41 41 41 40 40 40 40 40 40 41 41 41 41 41 41 40 40 41 41 41
40 40 40 40 39 39 40 39 39 38 37 37 38 38 38 39 39 40 40 40 40 39 39 38 38 38 39 39 39 38 38 38 39 39 39 39 39 39 39 39 39 39 41
39 40 40 41 41 40 39 39 38 37 36 36 35 35 36 36 36 37 37 36 36 37 37 37 37 37 37 38 38 38 37 37 36 37 37 37 37 38 39 39 39 39 40
36 37 37 38 38 38 38 38 37 36 35 35 34 34 34 34 34 34 35 35 35 35 35 35 35 36 36 36 37 36 36 35 35 35 35 36 37 37 38 38 38 38 39
34 34 34 35 35 36 36 36 36 35 35 34 33 33 32 33 33 33 34 34 34 34 34 34 35 35 35 35 35 35 35 35 35 35 34 35 35 36 37 37 37 37 37
32 32 32 33 33 33 33 34 34 35 34 34 34 33 32 32 32 32 33 34 34 34 34 34 34 34 34 34 34 34 34 34 34 33 33 34 34 35 36 36 36 36 36
30 30 31 31 31 31 32 32 33 33 34 34 33 33 32 31 31 31 32 33 33 34 33 33 33 33 33 33 33 33 33 34 34 33 33 34 34 34 35 35 35 35 36
29 30 30 30 31 31 31 32 32 32 33 33 32 32 31 31 31 31 30 31 31 32 32 32 32 32 31 32 32 32 33 33 34 34 34 34 34 33 34 34 34 34 35
28 29 29 30 30 31 31 32 32 32 32 32 32 31 31 30 30 30 29 29 29 29 30 30 29 30 30 31 31 31 32 32 33 33 33 33 33 33 33 33 33 33 33
28 29 29 29 29 30 30 31 32 32 31 31 31 31 30 30 29 29 29 29 28 28 28 28 28 28 29 29 29 30 31 31 31 32 32 32 32 32 32 32 32 32 32
26 27 28 28 28 29 29 30 30 30 30 30 30 30 29 29 29 29 29 29 29 29 29 29 29 29 29 29 29 29 29 30 31 31 31 31 31 31 32 32 32 32 32
24 24 25 26 26 27 27 28 28 29 29 29 29 30 30 29 29 29 29 29 29 29 29 29 29 28 28 28 28 29 29 29 30 30 30 30 30 30 30 31 31 31 32
23 23 24 24 25 25 26 27 28 28 28 28 29 29 29 29 29 29 29 29 28 29 29 29 29 28 28 28 28 28 28 28 28 28 28 29 29 29 30 30 31 31 31
22 22 23 24 24 25 25 26 27 27 28 28 28 28 28 28 28 28 28 28 28 28 28 28 29 28 28 28 28 28 27 27 28 28 28 28 29 29 30 30 30 31 31
21 22 22 23 24 24 25 26 26 26 27 27 27 27 28 28 28 28 28 29 28 28 28 28 28 28 28 27 28 28 28 28 28 28 28 29 29 29 30 30 30 30 30

GEFSGL_500_meanwind_240.txt.gz
Wind_Speed
45 45 46 47 47 47 47 47 47 47 48 47 45 45 45 45 45 46 45 45 45 45 46 46 44 45 45 45 45 45 45 45 44 44 43 43 43 43 43 44 43 43 43
45 44 45 44 45 46 46 46 46 47 47 46 47 45 45 45 46 46 45 46 46 45 46 46 46 47 46 46 46 46 45 45 45 43 42 42 43 43 44 44 43 43 44
43 43 44 44 45 45 46 45 46 46 46 46 46 46 46 46 46 46 46 46 46 46 46 46 47 46 46 46 46 46 45 45 45 44 43 43 44 44 44 43 43 43 44
43 43 43 43 45 45 45 46 46 47 46 46 45 46 46 46 46 46 46 46 46 46 46 45 45 46 46 45 45 45 45 45 45 45 45 44 44 44 44 44 44 44 45
43 43 43 43 44 45 45 45 46 46 46 45 45 44 45 45 45 46 46 46 45 45 45 45 44 45 46 45 45 44 45 45 46 46 46 45 45 44 45 45 44 45 45
43 43 44 44 43 44 44 44 45 45 44 44 44 43 43 44 45 45 46 46 45 45 45 45 44 44 44 44 44 44 44 44 44 45 45 45 45 45 45 44 44 45 46
44 44 44 44 44 45 45 44 44 44 44 44 43 43 43 44 45 45 45 45 45 45 45 45 45 44 44 44 44 44 44 44 45 45 45 44 45 45 45 45 45 46 46
42 42 43 44 45 45 45 45 45 45 44 44 44 43 43 43 44 44 45 45 44 44 44 44 44 44 45 45 44 44 45 45 45 45 45 44 44 45 45 45 46 46 46
42 42 42 43 43 43 44 44 44 44 44 43 44 44 44 44 44 44 44 44 43 43 43 43 44 44 45 45 45 45 45 45 45 45 45 45 45 45 46 46 46 46 46
41 41 41 42 42 42 42 42 43 43 42 43 43 43 43 43 43 43 43 43 43 43 42 43 44 45 45 45 45 45 44 44 44 45 44 44 44 45 45 46 45 44 44
40 40 40 40 40 41 41 41 41 42 43 43 42 42 42 42 42 42 42 43 43 42 41 42 43 43 44 44 44 44 44 44 44 44 44 44 44 45 45 44 44 44 44
38 38 39 39 39 39 39 39 40 40 41 42 42 41 41 40 41 41 41 41 41 41 41 41 41 42 42 42 43 43 43 43 43 42 42 43 43 42 42 42 42 42 42
37 37 37 38 36 37 37 37 38 38 39 40 40 40 40 40 40 40 40 40 40 40 40 40 41 41 41 41 41 41 41 41 41 41 41 41 41 40 40 40 40 41 41
35 36 36 37 36 35 35 36 36 37 37 38 39 39 39 39 39 39 40 40 40 40 40 40 40 40 40 39 39 39 39 39 39 39 39 39 38 39 39 39 39 39 39
33 34 36 36 36 35 35 35 35 35 36 37 38 38 38 38 38 38 38 38 38 38 38 38 37 37 37 37 37 37 37 37 37 37 37 37 37 38 38 38 38 38 38
32 33 34 35 35 35 35 35 35 35 35 35 36 36 37 36 36 36 36 36 36 37 37 36 36 35 35 35 35 36 36 36 36 37 36 36 36 36 37 37 37 37 36
30 31 32 33 34 34 34 34 34 35 35 34 34 35 36 36 36 36 36 36 36 36 35 34 34 34 34 34 34 34 34 34 35 35 35 35 36 36 36 36 36 35 35
28 29 30 31 32 33 33 34 34 34 35 35 35 35 35 36 35 35 35 35 35 34 34 34 34 34 34 34 33 33 33 33 34 34 34 34 34 34 34 34 34 34 34
28 28 29 30 31 32 33 33 33 33 34 34 35 35 35 35 34 34 34 33 33 33 33 33 33 33 32 32 32 32 32 32 32 33 33 33 33 33 33 33 33 33 34
26 27 27 28 28 29 30 31 31 31 32 32 33 33 33 33 33 32 32 32 32 32 31 31 31 31 31 31 30 30 31 31 31 32 32 32 32 32 32 32 32 32 33
25 25 26 26 27 27 28 29 29 30 30 30 30 30 31 31 31 31 30 30 30 30 30 30 30 30 30 30 29 30 30 30 30 31 31 31 31 31 31 31 31 31 32
24 25 25 26 26 27 27 28 28 29 29 29 29 30 30 31 31 30 30 30 29 29 29 28 28 28 28 29 29 29 29 29 29 29 30 30 30 30 30 30 30 30 30
23 23 24 25 25 26 26 27 27 28 28 28 29 29 30 30 30 30 30 30 30 29 29 29 29 28 28 29 29 29 29 29 29 29 29 28 28 28 29 29 29 29 29
23 23 23 24 24 25 25 26 26 27 27 28 28 29 29 30 30 31 30 30 30 29 29 29 29 28 28 28 28 29 29 28 28 28 28 28 28 28 28 28 28 29 29
22 23 22 23 23 24 25 26 26 26 27 27 28 28 28 29 30 30 31 30 30 30 30 29 29 29 29 29 29 29 29 29 29 28 28 28 28 29 29 29 29 29 29
21 22 22 22 23 24 24 25 26 27 27 27 28 28 29 29 29 29 29 29 30 30 30 30 30 30 30 29 29 30 29 29 29 29 29 28 28 28 28 28 29 29 30